[[{"header":{"parameterUnit":"m.s-1","parameterCategory":1,"la1":31.0,"la2":29.5877,"lo1":-88.7671,"lo2":-86.6584,"dy":0.0162,"dx":0.0185,"nx":115,"ny":88,"refTime":"2024-02-26T06:00:00:Z","depth":0,"parameterNumber":2,"parameterNumberName":"U-component_of_WINDS"},"data":[0.0,0.0,0.0,0.0,0.0,0.0,0.0,0.0,0.0,0.0,0.0,0.0,0.0,0.0,0.0,0.0,0.0,0.0,0.0,0.0,0.0,0.0,0.0,0.0,0.0,0.0,0.0,0.0,0.0,0.0,0.0,0.0,0.0,0.0,0.0,0.0,0.0,0.0,0.0,0.0,0.0,0.0,0.0,0.0,0.0,0.0,0.0,0.0,0.0,0.0,0.0,0.0,0.0,0.0,0.0,0.0,0.0,0.0,0.0,0.0,0.0,0.0,0.0,0.0,0.0,0.0,0.0,0.0,0.0,0.0,0.0,0.0,0.0,0.0,0.0,0.0,0.0,0.0,0.0,0.0,0.0,0.0,0.0,0.0,0.0,0.0,0.0,0.0,0.0,0.0,0.0,0.0,0.0,0.0,0.0,0.0,0.0,0.0,0.0,0.0,0.0,0.0,0.0,0.0,0.0,0.0,0.0,0.0,0.0,0.0,0.0,0.0,0.0,0.0,0.0,0.0,0.0,0.0,0.0,0.0,0.0,0.0,0.0,0.0,0.0,0.0,0.0,0.0,0.0,0.0,0.0,0.0,0.0,0.0,0.0,0.0,0.0,0.0,0.0,0.0,0.0,0.0,0.0,0.0,0.0,0.0,0.0,0.0,0.0,0.0,0.0,0.0,0.0,0.0,0.0,0.0,0.0,0.0,0.0,0.0,0.0,0.0,0.0,0.0,0.0,0.0,0.0,0.0,0.0,0.0,0.0,0.0,0.0,0.0,0.0,0.0,0.0,0.0,0.0,0.0,0.0,0.0,0.0,0.0,0.0,0.0,0.0,0.0,0.0,0.0,0.0,0.0,0.0,0.0,0.0,0.0,0.0,0.0,0.0,0.0,0.0,0.0,0.0,0.0,0.0,0.0,0.0,0.0,0.0,0.0,0.0,0.0,0.0,0.0,0.0,0.0,0.0,0.0,0.0,0.0,0.0,0.0,0.0,0.0,0.0,0.0,0.0,0.0,0.0,0.0,0.0,0.0,0.0,0.0,0.0,0.0,0.0,0.0,0.0,0.0,0.0,0.0,0.0,0.0,0.0,0.0,0.0,0.0,0.0,0.0,0.0,0.0,0.0,0.0,0.0,0.0,0.0,0.0,0.0,0.0,0.0,0.0,0.0,0.0,0.0,0.0,0.0,0.0,0.0,0.0,0.0,0.0,0.0,0.0,0.0,0.0,0.0,0.0,0.0,0.0,0.0,0.0,0.0,0.0,0.0,0.0,0.0,0.0,0.0,0.0,0.0,0.0,0.0,0.0,0.0,0.0,0.0,0.0,0.0,0.0,0.0,0.0,0.0,0.0,0.0,0.0,0.0,0.0,0.0,0.0,0.0,0.0,0.0,0.0,0.0,0.0,0.0,0.0,0.0,0.0,0.0,0.0,0.0,0.0,0.0,0.0,0.0,0.0,0.0,0.0,0.0,0.0,0.0,0.0,0.0,0.0,0.0,0.0,0.0,0.0,0.0,0.0,0.0,0.0,0.0,0.0,0.0,0.0,0.0,0.0,0.0,0.0,0.0,0.0,0.0,0.0,0.0,0.0,0.0,0.0,0.0,0.0,0.0,0.0,0.0,0.0,0.0,0.0,0.0,0.0,0.0,0.0,0.0,0.0,0.0,0.0,0.0,0.0,0.0,0.0,0.0,0.0,0.0,0.0,0.0,0.0,0.0,0.0,0.0,0.0,0.0,0.0,0.0,0.0,0.0,0.0,0.0,0.0,0.0,0.0,0.0,0.0,0.0,0.0,0.0,0.0,0.0,0.0,0.0,0.0,0.0,0.0,0.0,0.0,0.0,0.0,0.0,0.0,0.0,0.0,0.0,0.0,0.0,0.0,0.0,0.0,0.0,0.0,0.0,0.0,0.0,0.0,0.0,0.0,0.0,0.0,0.0,0.0,0.0,0.0,0.0,0.0,0.0,0.0,0.0,0.0,0.0,0.0,0.0,0.0,0.0,0.0,0.0,0.0,0.0,0.0,0.0,0.0,0.0,0.0,0.0,0.0,0.0,0.0,0.0,0.0,0.0,0.0,0.0,0.0,0.0,0.0,0.0,0.0,0.0,0.0,0.0,0.0,0.0,0.0,0.0,0.0,0.0,0.0,0.0,0.0,0.0,0.0,0.0,0.0,0.0,0.0,0.0,0.0,0.0,0.0,0.0,0.0,0.0,0.0,0.0,0.0,0.0,0.0,0.0,0.0,0.0,0.0,0.0,0.0,0.0,0.0,0.0,0.0,0.0,0.0,0.0,0.0,0.0,0.0,0.0,0.0,0.0,0.0,0.0,0.0,0.0,0.0,0.0,0.0,0.0,0.0,0.0,0.0,0.0,0.0,0.0,0.0,0.0,0.0,0.0,0.0,0.0,0.0,0.0,0.0,0.0,0.0,0.0,0.0,0.0,0.0,0.0,0.0,0.0,0.0,0.0,0.0,0.0,0.0,0.0,0.0,0.0,0.0,0.0,0.0,0.0,0.0,0.0,0.0,0.0,0.0,0.0,0.0,0.0,0.0,0.0,0.0,0.0,0.0,0.0,0.0,0.0,0.0,0.0,0.0,0.0,0.0,0.0,0.0,0.0,0.0,0.0,0.0,0.0,0.0,0.0,0.0,0.0,0.0,0.0,0.0,0.0,0.0,0.0,0.0,0.0,0.0,0.0,0.0,0.0,0.0,0.0,0.0,0.0,0.0,0.0,0.0,0.0,0.0,0.0,0.0,0.0,0.0,0.0,0.0,0.0,0.0,0.0,0.0,0.0,0.0,0.0,0.0,0.0,0.0,0.0,0.0,0.0,0.0,0.0,0.0,0.0,0.0,0.0,0.0,0.0,0.0,0.0,0.0,0.0,0.0,0.0,0.0,0.0,0.0,0.0,0.0,0.0,0.0,0.0,0.0,0.0,0.0,0.0,0.0,0.0,0.0,0.0,0.0,0.0,0.0,0.0,0.0,0.0,0.0,0.0,0.0,0.0,0.0,0.0,0.0,0.0,0.0,0.0,0.0,0.0,0.0,0.0,0.0,0.0,0.0,0.0,0.0,0.0,0.0,0.0,0.0,0.0,0.0,0.0,0.0,0.0,0.0,0.0,0.0,0.0,0.0,0.0,0.0,0.0,0.0,0.0,0.0,0.0,0.0,0.0,0.0,0.0,0.0,0.0,0.0,0.0,0.0,0.0,0.0,0.0,0.0,0.0,0.0,0.0,0.0,0.0,0.0,0.0,0.0,0.0,0.0,0.0,0.0,0.0,0.0,0.0,0.0,0.0,0.0,0.0,0.0,0.0,0.0,0.0,0.0,0.0,0.0,0.0,0.0,0.0,0.0,0.0,0.0,0.0,0.0,0.0,0.0,0.0,0.0,0.0,0.0,0.0,0.0,0.0,0.0,0.0,0.0,0.0,0.0,0.0,0.0,0.0,0.0,0.0,0.0,0.0,0.0,0.0,0.0,0.0,0.0,0.0,0.0,0.0,0.0,0.0,0.0,0.0,0.0,0.0,0.0,0.0,0.0,0.0,0.0,0.0,0.0,0.0,0.0,0.0,0.0,0.0,0.0,0.0,0.0,0.0,0.0,0.0,0.0,0.0,0.0,0.0,0.0,0.0,0.0,0.0,0.0,0.0,0.0,0.0,0.0,0.0,0.0,0.0,0.0,0.0,0.0,0.0,0.0,0.0,0.0,0.0,0.0,0.0,0.0,0.0,0.0,0.0,0.0,0.0,0.0,0.0,0.0,0.0,0.0,0.0,0.0,0.0,0.0,0.0,0.0,0.0,0.0,0.0,0.0,0.0,0.0,0.0,0.0,0.0,0.0,0.0,0.0,0.0,0.0,0.0,0.0,0.0,0.0,0.0,0.0,0.0,0.0,0.0,0.0,0.0,0.0,0.0,0.0,0.0,0.0,0.0,0.0,0.0,0.0,0.0,0.0,0.0,0.0,0.0,0.0,0.0,0.0,0.0,0.0,0.0,0.0,0.0,0.0,0.0,0.0,0.0,0.0,0.0,0.0,0.0,0.0,0.0,0.0,0.0,0.0,0.0,0.0,0.0,0.0,0.0,0.0,0.0,0.0,0.0,0.0,0.0,0.0,0.0,0.0,0.0,0.0,0.0,0.0,0.0,0.0,0.0,0.0,0.0,0.0,0.0,0.0,0.0,0.0,0.0,0.0,0.0,0.0,0.0,0.0,0.0,0.0,0.0,0.0,0.0,0.0,0.0,0.0,0.0,0.0,0.0,0.0,0.0,0.0,1.4569,0.0,0.0,0.0,0.0,0.0,0.0,0.0,0.0,0.0,0.0,0.0,0.0,0.0,0.0,0.0,0.0,0.0,0.0,0.0,0.0,0.0,0.0,0.0,0.0,0.0,0.0,0.0,0.0,0.0,0.0,0.0,0.0,0.0,0.0,0.0,0.0,0.0,0.0,0.0,0.0,0.0,0.0,0.0,0.0,0.0,0.0,0.0,0.0,0.0,0.0,0.0,0.0,0.0,0.0,0.0,0.0,0.0,0.0,0.0,0.0,0.0,0.0,0.0,0.0,0.0,0.0,0.0,0.0,0.0,0.0,0.0,0.0,0.0,0.0,0.0,0.0,0.0,0.0,0.0,0.0,0.0,0.0,0.0,0.0,0.0,0.0,0.0,0.0,0.0,0.0,0.0,0.0,0.0,0.0,0.0,0.0,0.0,0.0,0.0,0.0,0.0,0.0,0.0,0.0,0.0,0.0,0.0,0.0,0.0,0.0,1.4357,1.4741,1.5509,1.5355,1.425,0.0,0.0,0.0,0.0,0.0,0.0,0.0,0.0,0.0,0.0,0.0,0.0,0.0,0.0,0.0,0.0,0.0,0.0,0.0,0.0,0.0,0.0,0.0,0.0,0.0,0.0,0.0,0.0,0.0,0.0,0.0,0.0,0.0,0.0,0.0,0.0,0.0,0.0,0.0,0.0,0.0,0.0,0.0,0.0,0.0,0.0,0.0,0.0,0.0,0.0,0.0,0.0,0.0,0.0,0.0,0.0,0.0,0.0,0.0,0.0,0.0,0.0,0.0,0.0,0.0,0.0,0.0,0.0,0.0,0.0,0.0,0.0,0.0,0.0,0.0,0.0,0.0,0.0,0.0,0.0,0.0,0.0,0.0,0.0,0.0,0.0,0.0,0.0,0.0,0.0,0.0,0.0,0.0,0.0,0.0,0.0,0.0,0.0,0.0,0.0,0.0,0.0,0.0,0.0,0.0,0.0,0.0,0.0,0.0,0.0,0.0,0.0,1.4632,1.4685,1.3819,0.0,0.0,0.0,0.0,0.0,0.0,0.0,0.0,0.0,0.0,0.0,0.0,0.0,0.0,0.0,0.0,0.0,0.0,0.0,0.0,0.0,0.0,0.0,0.0,0.0,0.0,0.0,0.0,0.0,0.0,0.0,0.0,0.0,0.0,0.0,0.0,0.0,0.0,0.0,0.0,0.0,0.0,0.0,0.0,0.0,0.0,0.0,0.0,0.0,0.0,0.0,0.0,0.0,0.0,0.0,0.0,0.0,0.0,0.0,0.0,0.0,0.0,0.0,0.0,0.0,0.0,0.0,0.0,0.0,0.0,0.0,0.0,0.0,0.0,0.0,0.0,0.0,0.0,0.0,0.0,0.0,0.0,0.0,0.0,0.0,0.0,0.0,0.0,0.0,0.0,0.0,0.0,0.0,0.0,0.0,0.0,0.0,0.0,0.0,0.0,0.0,0.0,0.0,0.0,0.0,0.0,0.0,0.0,0.0,0.0,1.2545,1.2572,1.2681,0.0,1.2545,0.0,0.0,0.0,0.0,0.0,0.0,0.0,0.0,0.0,0.0,0.0,0.0,0.0,0.0,0.0,0.0,0.0,0.0,0.0,0.0,0.0,0.0,0.0,0.0,0.0,0.0,0.0,0.0,0.0,0.0,0.0,0.0,0.0,0.0,0.0,0.0,0.0,0.0,0.0,0.0,0.0,0.0,0.0,0.0,0.0,0.0,0.0,0.0,0.0,0.0,0.0,0.0,0.0,0.0,0.0,0.0,0.0,0.0,0.0,0.0,0.0,0.0,0.0,0.0,0.0,0.0,0.0,0.0,0.0,0.0,0.0,0.0,0.0,0.0,0.0,0.0,0.0,0.0,0.0,0.0,0.0,0.0,0.0,0.0,0.0,0.0,0.0,0.0,0.0,0.0,0.0,0.0,0.0,0.0,0.0,0.0,0.0,0.0,0.0,0.0,0.0,0.0,0.0,0.0,0.0,0.0,0.0,0.0,0.0,0.0,1.2382,1.2382,1.2382,1.2382,0.0,0.0,0.0,0.0,0.0,0.0,0.0,0.0,0.0,0.0,0.0,0.0,0.0,0.0,0.0,0.0,0.0,0.0,0.0,0.0,0.0,0.0,0.0,0.0,0.0,0.0,0.0,0.0,0.0,0.0,0.0,0.0,0.0,0.0,0.0,0.0,0.0,0.0,0.0,0.0,0.0,0.0,0.0,0.0,0.0,0.0,0.0,0.0,0.0,0.0,0.0,0.0,0.0,0.0,0.0,0.0,0.0,0.0,0.0,0.0,0.0,0.0,0.0,0.0,0.0,0.0,0.0,0.0,0.0,0.0,0.0,0.0,0.0,0.0,0.0,0.0,0.0,0.0,0.0,0.0,0.0,0.0,0.0,0.0,0.0,0.0,0.0,0.0,0.0,0.0,0.0,0.0,0.0,0.0,0.0,0.0,0.0,0.0,0.0,0.0,0.0,0.0,0.0,0.0,0.0,0.0,0.0,0.0,0.0,0.0,1.2382,1.2382,1.2382,1.2382,1.2382,1.2382,0.0,0.0,0.0,0.0,0.0,0.0,0.0,0.0,0.0,0.0,0.0,0.0,0.0,0.0,0.0,0.0,0.0,0.0,0.0,0.0,0.0,0.0,0.0,0.0,0.0,0.0,0.0,0.0,0.0,0.0,0.0,0.0,0.0,0.0,0.0,0.0,0.0,0.0,0.0,0.0,0.0,0.0,0.0,0.0,0.0,0.0,0.0,0.0,0.0,0.0,0.0,0.0,0.0,0.0,0.0,0.0,0.0,0.0,0.0,0.0,0.0,0.0,0.0,0.0,0.0,0.0,0.0,0.0,0.0,0.0,0.0,0.0,0.0,0.0,0.0,0.0,0.0,0.0,0.0,0.0,0.0,0.0,0.0,0.0,0.0,0.0,0.0,0.0,0.0,0.0,0.0,0.0,0.0,0.0,0.0,0.0,0.0,0.0,0.0,0.0,0.0,0.0,0.0,0.0,0.0,0.0,0.0,0.0,1.2382,1.2382,1.2382,1.2382,1.2382,1.2382,0.0,0.0,0.0,0.0,0.0,0.0,0.0,0.0,0.0,0.0,0.0,0.0,0.0,0.0,0.0,0.0,0.0,0.0,0.0,0.0,0.0,0.0,0.0,0.0,0.0,0.0,0.0,0.0,0.0,0.0,0.0,0.0,0.0,0.0,0.0,0.0,0.0,0.0,0.0,0.0,0.0,0.0,0.0,0.0,0.0,0.0,0.0,0.0,0.0,0.0,0.0,0.0,0.0,0.0,0.0,0.0,0.0,0.0,0.0,0.0,0.0,0.0,0.0,0.0,0.0,0.0,0.0,0.0,0.0,0.0,0.0,0.0,0.0,0.0,0.0,0.0,0.0,0.0,0.0,0.0,0.0,0.0,0.0,0.0,0.0,0.0,0.0,0.0,0.0,0.0,0.0,0.0,0.0,0.0,0.0,0.0,0.0,0.0,0.0,0.0,0.0,0.0,0.0,0.0,0.0,0.0,0.0,0.0,0.0,1.2382,1.2382,1.2382,1.2382,1.2382,1.2382,0.0,0.0,0.0,0.0,0.0,0.0,0.0,0.0,0.0,0.0,0.0,0.0,0.0,0.0,0.0,0.0,0.0,0.0,0.0,0.0,0.0,0.0,0.0,0.0,0.0,0.0,0.0,0.0,0.0,0.0,0.0,0.0,0.0,0.0,0.0,0.0,0.0,0.0,0.0,0.0,0.0,0.0,0.0,0.0,0.0,0.0,0.0,0.0,0.0,0.0,0.0,0.0,0.0,0.0,0.0,0.0,0.0,0.0,0.0,0.0,0.0,0.0,0.0,0.0,0.0,0.0,0.0,0.0,0.0,0.0,0.0,0.0,0.0,0.0,0.0,0.0,0.0,0.0,0.0,0.0,0.0,0.0,0.0,0.0,0.0,0.0,0.0,0.0,0.0,0.0,0.0,0.0,0.0,0.0,0.0,0.0,0.0,0.0,0.0,0.0,0.0,0.0,0.0,0.0,0.0,0.0,0.0,0.0,0.0,1.2382,0.0,1.2382,1.2382,1.2382,1.2382,0.0,0.0,0.0,0.0,0.0,0.0,0.0,0.0,0.0,0.0,0.0,0.0,0.0,0.0,0.0,0.0,0.0,0.0,0.0,0.0,0.0,0.0,0.0,0.0,0.0,0.0,0.0,0.0,0.0,0.0,0.0,0.0,0.0,0.0,0.0,0.0,0.0,0.0,0.0,0.0,0.0,0.0,0.0,0.0,0.0,0.0,0.0,0.0,0.0,0.0,0.0,0.0,0.0,0.0,0.0,0.0,0.0,0.0,0.0,0.0,0.0,0.0,0.0,0.0,0.0,0.0,0.0,0.0,0.0,0.0,0.0,0.0,0.0,0.0,0.0,0.0,0.0,0.0,0.0,0.0,0.0,0.0,0.0,0.0,0.0,0.0,0.0,0.0,0.0,0.0,0.0,0.0,0.0,0.0,0.0,0.0,0.0,0.0,0.0,0.0,0.0,0.0,0.0,0.0,0.0,0.0,0.0,0.0,1.2382,1.2382,1.2382,1.2382,1.2382,1.2382,1.2382,0.0,0.0,0.0,0.0,0.0,0.0,0.0,0.0,0.0,0.0,0.0,0.0,0.0,0.0,0.0,0.0,0.0,0.0,0.0,0.0,0.0,0.0,0.0,0.0,0.0,0.0,0.0,0.0,0.0,0.0,0.0,0.0,0.0,0.0,0.0,0.0,0.0,0.0,0.0,0.0,0.0,0.0,0.0,0.0,0.0,0.0,0.0,0.0,0.0,0.0,0.0,0.0,0.0,0.0,0.0,0.0,0.0,0.0,0.0,0.0,0.0,0.0,0.0,0.0,0.0,0.0,0.0,0.0,0.0,0.0,0.0,0.0,0.0,0.0,0.0,0.0,0.0,0.0,0.0,0.0,0.0,0.0,0.0,0.0,0.0,0.0,0.0,0.0,0.0,0.0,0.0,0.0,0.0,0.0,0.0,0.0,0.0,0.0,0.0,0.0,0.0,0.0,0.0,0.0,0.0,0.0,0.0,0.0,0.0,1.2382,1.2382,1.2382,1.2382,1.2219,1.211,0.0,0.0,0.0,0.0,0.0,0.0,0.0,0.0,0.0,0.0,0.0,0.0,0.0,0.0,0.0,0.0,0.0,0.0,0.0,0.0,0.0,0.0,0.0,0.0,0.0,0.0,0.0,0.0,0.0,0.0,0.0,0.0,0.0,0.0,0.0,0.0,0.0,0.0,0.0,0.0,0.0,0.0,0.0,0.0,0.0,0.0,0.0,0.0,0.0,0.0,0.0,0.0,0.0,0.0,0.0,0.0,0.0,0.0,0.0,0.0,0.0,0.0,0.0,0.0,0.0,0.0,0.0,0.0,0.0,0.0,0.0,0.0,0.0,0.0,0.0,0.0,0.0,0.0,0.0,0.0,0.0,0.0,0.0,0.0,0.0,0.0,0.0,0.0,0.0,0.0,0.0,0.0,0.0,0.0,0.0,0.0,0.0,0.0,0.0,0.0,0.0,0.0,0.0,0.0,0.0,0.0,0.0,0.0,0.0,1.2382,1.23,1.2246,1.2246,1.1982,1.1864,1.1837,0.0,0.0,0.0,0.0,0.0,0.0,0.0,0.0,0.0,0.0,0.0,0.0,0.0,0.0,0.0,0.0,0.0,0.0,0.0,0.0,0.0,0.0,0.0,0.0,0.0,0.0,0.0,0.0,0.0,0.0,0.0,0.0,0.0,0.0,0.0,0.0,0.0,0.0,0.0,0.0,0.0,0.0,0.0,0.0,0.0,0.0,0.0,0.0,0.0,0.0,0.0,0.0,0.0,0.0,0.0,0.0,0.0,0.0,0.0,0.0,0.0,0.0,0.0,0.0,0.0,0.0,0.0,0.0,0.0,0.0,0.0,0.0,0.0,0.0,0.0,0.0,0.0,0.0,0.0,0.0,0.0,0.0,0.0,0.0,0.0,0.0,0.0,0.0,0.0,0.0,0.0,0.0,0.0,0.0,0.0,0.0,0.0,0.0,0.0,0.0,0.0,0.0,0.0,0.0,0.0,0.0,0.0,0.0,1.2355,1.2082,1.1946,1.2001,1.1728,1.1573,0.0,0.0,0.0,0.0,0.0,0.0,0.0,0.0,0.0,0.0,0.0,0.0,0.0,0.0,0.0,0.0,0.0,0.0,0.0,0.0,0.0,0.0,0.0,0.0,0.0,0.0,0.0,0.0,0.0,0.0,0.0,0.0,0.0,0.0,0.0,0.0,0.0,0.0,0.0,0.0,0.0,0.0,0.0,0.0,0.0,0.0,0.0,0.0,0.0,0.0,0.0,0.0,0.0,0.0,0.0,0.0,0.0,0.0,0.0,0.0,0.0,0.0,0.0,0.0,0.0,0.0,0.0,0.0,0.0,0.0,0.0,0.0,0.0,0.0,0.0,0.0,0.0,0.0,0.0,0.0,0.0,0.0,0.0,0.0,0.0,0.0,0.0,0.0,0.0,0.0,0.0,0.0,0.0,0.0,0.0,0.0,0.0,0.0,0.0,0.0,0.0,0.0,0.0,0.0,0.0,0.0,0.0,0.0,0.0,1.1791,1.1482,1.1537,1.1946,1.1509,1.1236,0.0,0.0,0.0,0.0,0.0,0.0,0.0,0.0,0.0,0.0,0.0,0.0,0.0,0.0,0.0,0.0,0.0,0.0,0.0,0.0,0.0,0.0,0.0,0.0,0.0,0.0,0.0,0.0,0.0,0.0,0.0,0.0,0.0,0.0,0.0,0.0,0.0,0.0,0.0,0.0,0.0,0.0,0.0,0.0,0.0,0.0,0.0,0.0,0.0,0.0,0.0,0.0,0.0,0.0,0.0,0.0,0.0,0.0,0.0,0.0,0.0,0.0,0.0,0.0,0.0,0.0,0.0,0.0,0.0,0.0,0.0,0.0,0.0,0.0,0.0,0.0,0.0,0.0,0.0,0.0,0.0,0.0,0.0,0.0,0.0,0.0,0.0,0.0,0.0,0.0,0.0,0.0,0.0,0.0,0.0,0.0,0.0,0.0,0.0,0.0,0.0,0.0,0.0,0.0,0.0,0.0,0.0,0.0,1.1731,1.181,1.1503,1.1531,1.1866,1.1342,1.0834,0.0,0.0,0.0,0.0,0.0,0.0,0.0,0.0,0.0,0.0,0.0,0.0,0.0,0.0,0.0,0.0,0.0,0.0,0.0,0.0,0.0,0.0,0.0,0.0,0.0,0.0,0.0,0.0,0.0,0.0,0.0,0.0,0.0,0.0,0.0,0.0,0.0,0.0,0.0,0.0,0.0,0.0,0.0,0.0,0.0,0.0,0.0,0.0,0.0,0.0,0.0,0.0,0.0,0.0,0.0,0.0,0.0,0.0,0.0,0.0,0.0,0.0,0.0,0.0,0.0,0.0,0.0,0.0,0.0,0.0,0.0,0.0,0.0,0.0,0.0,0.0,0.0,0.0,0.0,0.0,0.0,0.0,0.0,0.0,0.0,0.0,0.0,0.0,0.0,0.0,0.0,0.0,0.0,0.0,0.0,0.0,0.0,0.0,0.0,0.0,0.0,0.0,0.0,0.0,0.0,0.0,0.0,0.0,1.1892,1.2049,1.1828,1.1693,1.1681,1.1257,1.0465,0.0,0.0,0.0,0.0,0.0,0.0,0.0,0.0,0.0,0.0,0.0,0.0,0.0,0.0,0.0,0.0,0.0,0.0,0.0,0.0,0.0,0.0,0.0,0.0,0.0,0.0,0.0,0.0,0.0,0.0,0.0,0.0,0.0,0.0,0.0,0.0,0.0,0.0,0.0,0.0,0.0,0.0,0.0,0.0,0.0,0.0,0.0,0.0,0.0,0.0,0.0,0.0,0.0,0.0,0.0,0.0,0.0,0.0,0.0,0.0,0.0,0.0,0.0,0.0,0.0,0.0,0.0,0.0,0.0,0.0,0.0,0.0,0.0,0.0,0.0,0.0,0.0,0.0,0.0,0.0,0.0,0.0,0.0,0.0,0.0,0.0,0.0,0.0,0.0,0.0,0.0,0.0,0.0,0.0,0.0,0.0,0.0,0.0,0.0,0.0,0.0,0.0,0.0,0.0,0.0,0.0,0.0,0.0,1.1957,1.1799,1.1742,1.1645,1.1552,1.1293,1.0551,0.0,0.0,0.0,0.0,0.0,0.0,0.0,0.0,0.0,0.0,0.0,0.0,0.0,0.0,0.0,0.0,0.0,0.0,0.0,0.0,0.0,0.0,0.0,0.0,0.0,0.0,0.0,0.0,0.0,0.0,0.0,0.0,0.0,0.0,0.0,0.0,0.0,0.0,0.0,0.0,0.0,0.0,0.0,0.0,0.0,0.0,0.0,0.0,1.2382,0.0,0.0,0.0,0.0,0.0,0.0,0.0,0.0,0.0,0.0,0.0,0.0,0.0,0.0,0.0,0.0,0.0,0.0,0.0,0.0,0.0,0.0,0.0,0.0,0.0,0.0,0.0,0.0,0.0,0.0,0.0,0.0,0.0,0.0,0.0,0.0,0.0,0.0,0.0,0.0,0.0,0.0,0.0,0.0,0.0,0.0,0.0,0.0,0.0,0.0,0.0,0.0,0.0,0.0,0.0,0.0,0.0,0.0,0.0,1.1949,1.1749,1.1858,1.185,1.1652,1.1533,1.0583,0.0,0.0,0.0,0.0,0.0,0.0,0.0,0.0,0.0,0.0,0.0,0.0,0.0,0.0,0.0,0.0,0.0,0.0,0.0,0.0,0.0,0.0,0.0,0.0,0.0,0.0,0.0,0.0,0.0,0.0,0.0,0.0,0.0,0.0,0.0,0.0,0.0,0.0,0.0,0.0,0.0,0.0,0.0,0.0,0.0,0.0,0.0,0.0,0.0,0.0,0.0,0.0,0.0,0.0,0.0,0.0,0.0,0.0,0.0,0.0,0.0,0.0,0.0,0.0,0.0,0.0,0.0,0.0,0.0,0.0,0.0,0.0,0.0,0.0,0.0,0.0,0.0,0.0,0.0,0.0,0.0,0.0,0.0,0.0,0.0,0.0,0.0,0.0,0.0,0.0,0.0,0.0,0.0,0.0,0.0,0.0,0.0,0.0,0.0,0.0,0.0,0.0,0.0,0.0,0.0,0.0,0.0,1.1955,1.2031,1.1889,1.2092,1.2062,1.1806,1.1806,1.0581,0.8008,0.0,0.0,0.0,0.0,0.0,0.0,0.0,0.0,0.0,0.0,0.0,0.0,0.0,0.0,0.0,0.0,0.0,0.0,0.0,0.0,0.0,0.0,0.0,0.0,0.0,0.0,0.0,0.0,0.0,0.0,0.0,0.0,0.0,0.0,0.0,0.0,0.0,0.0,1.2382,1.2382,0.0,0.0,0.0,0.0,0.0,0.0,0.0,0.0,1.2382,0.0,0.0,0.0,0.0,0.0,0.0,0.0,0.0,0.0,0.0,0.0,0.0,0.0,0.0,0.0,0.0,0.0,0.0,0.0,0.0,0.0,0.0,0.0,0.0,0.0,0.0,0.0,0.0,0.0,0.0,0.0,0.0,0.0,0.0,0.0,0.0,0.0,0.0,0.0,0.0,0.0,0.0,0.0,0.0,0.0,0.0,0.0,0.0,0.0,0.0,0.0,0.0,0.0,0.0,0.0,0.0,1.2491,1.2551,1.2449,1.2144,1.2174,1.2062,1.1837,1.1806,1.0581,0.8099,0.0,0.0,0.0,0.0,0.0,0.0,0.0,0.0,0.0,0.0,0.0,0.0,0.0,0.0,0.0,0.0,0.0,0.0,0.0,0.0,0.0,0.0,0.0,0.0,0.0,0.0,0.0,0.0,0.0,0.0,0.0,0.0,0.0,0.0,0.0,0.0,0.0,0.0,0.0,1.2382,1.2382,0.0,0.0,0.0,0.0,0.0,0.0,0.0,0.0,1.2382,0.0,0.0,0.0,0.0,0.0,0.0,0.0,0.0,0.0,0.0,0.0,0.0,0.0,0.0,0.0,0.0,0.0,0.0,0.0,0.0,0.0,0.0,0.0,0.0,0.0,0.0,0.0,0.0,0.0,0.0,0.0,0.0,0.0,0.0,0.0,0.0,0.0,0.0,0.0,0.0,0.0,0.0,0.0,0.0,0.0,0.0,0.0,0.0,0.0,0.0,0.0,0.0,0.0,0.0,0.0,1.2612,1.2656,1.2535,1.2204,1.2204,1.2062,1.1806,1.1806,1.0581,0.0,0.0,0.0,0.0,0.0,0.0,0.0,0.0,0.0,0.0,0.0,0.0,0.0,0.0,0.0,0.0,0.0,0.0,0.0,0.0,0.0,0.0,0.0,0.0,0.0,0.0,0.0,0.0,0.0,0.0,0.0,0.0,0.0,0.0,0.0,0.0,0.0,0.0,0.0,0.0,1.2606,1.2644,1.2748,0.0,0.0,0.0,0.0,0.0,0.0,1.2673,1.2606,0.0,0.0,0.0,0.0,0.0,0.0,0.0,0.0,0.0,0.0,0.0,0.0,0.0,0.0,0.0,0.0,0.0,0.0,0.0,0.0,0.0,0.0,0.0,0.0,0.0,0.0,0.0,0.0,0.0,0.0,0.0,0.0,0.0,0.0,0.0,0.0,0.0,0.0,0.0,0.0,0.0,0.0,0.0,0.0,0.0,0.0,0.0,0.0,0.0,0.0,0.0,0.0,0.0,0.0,0.0,1.2454,1.253,1.2453,1.2122,1.1842,1.1631,1.1405,1.1163,0.9906,0.0,0.0,0.0,0.0,0.0,0.0,0.0,0.0,0.0,0.0,0.0,0.0,0.0,0.0,0.0,0.0,0.0,0.0,0.0,0.0,0.0,0.0,0.0,0.0,0.0,0.0,0.0,0.0,0.0,0.0,0.0,0.0,0.0,0.0,0.0,0.0,0.0,0.0,0.0,0.0,0.0,1.2918,1.307,1.3098,0.0,0.0,0.0,0.0,1.3098,1.2956,0.0,0.0,0.0,0.0,0.0,0.0,0.0,0.0,0.0,0.0,0.0,0.0,0.0,0.0,0.0,0.0,0.0,0.0,0.0,0.0,0.0,0.0,0.0,0.0,0.0,0.0,0.0,0.0,0.0,0.0,0.0,0.0,0.0,0.0,0.0,0.0,0.0,0.0,0.0,0.0,0.0,0.0,0.0,0.0,0.0,0.0,0.0,0.0,0.0,0.0,0.0,0.0,0.0,0.0,0.0,0.0,1.2276,1.2251,1.2122,1.1798,1.0694,1.0081,1.0021,0.8952,0.7647,0.0,0.0,0.0,0.0,0.0,0.0,0.0,0.0,0.0,0.0,0.0,0.0,0.0,0.0,0.0,0.0,0.0,0.0,0.0,0.0,0.0,0.0,0.0,0.0,0.0,0.0,0.0,0.0,0.0,0.0,0.0,0.0,0.0,0.0,0.0,0.0,0.0,0.0,0.0,0.0,0.0,1.307,1.3089,1.3098,1.3098,0.0,0.0,1.3098,1.3098,1.3079,0.0,0.0,0.0,0.0,0.0,0.0,0.0,0.0,0.0,0.0,0.0,0.0,0.0,0.0,0.0,0.0,0.0,0.0,0.0,0.0,0.0,0.0,0.0,0.0,0.0,0.0,0.0,0.0,0.0,0.0,0.0,0.0,0.0,0.0,0.0,0.0,0.0,0.0,0.0,0.0,0.0,0.0,0.0,0.0,0.0,0.0,0.0,0.0,0.0,0.0,0.0,0.0,0.0,0.0,0.0,1.3001,1.2564,1.2533,1.2069,1.113,1.0408,0.9623,0.8781,0.825,0.7342,0.0,0.0,0.0,0.0,0.0,0.0,0.0,0.0,0.0,0.0,0.0,0.0,0.0,0.0,0.0,0.0,0.0,0.0,0.0,0.0,0.0,0.0,0.0,0.0,0.0,0.0,0.0,0.0,0.0,0.0,0.0,0.0,0.0,0.0,0.0,0.0,0.0,0.0,0.0,0.0,0.0,0.0,1.3429,1.3448,0.0,0.0,0.0,1.3419,1.3448,0.0,0.0,0.0,0.0,0.0,0.0,0.0,0.0,0.0,0.0,0.0,0.0,0.0,0.0,0.0,0.0,0.0,0.0,0.0,0.0,0.0,0.0,0.0,0.0,0.0,0.0,0.0,0.0,0.0,0.0,0.0,0.0,0.0,0.0,0.0,0.0,0.0,0.0,0.0,0.0,0.0,0.0,0.0,0.0,0.0,0.0,0.0,0.0,0.0,0.0,0.0,0.0,0.0,0.0,0.0,0.0,0.0,1.2683,1.2691,1.1949,1.0541,0.9964,0.9011,0.7576,0.7198,0.0,0.0,0.0,0.0,0.0,0.0,0.0,0.0,0.0,0.0,0.0,0.0,0.0,0.0,0.0,0.0,0.0,0.0,0.0,0.0,0.0,0.0,0.0,0.0,0.0,0.0,0.0,1.2844,0.0,0.0,0.0,0.0,0.0,0.0,0.0,0.0,0.0,0.0,0.0,0.0,0.0,0.0,1.3512,1.362,1.3708,1.3788,0.0,0.0,1.3844,1.3844,1.3721,1.3608,0.0,0.0,0.0,0.0,0.0,0.0,0.0,0.0,0.0,0.0,0.0,0.0,0.0,0.0,0.0,0.0,0.0,0.0,0.0,0.0,0.0,0.0,0.0,0.0,0.0,0.0,0.0,0.0,0.0,0.0,0.0,0.0,0.0,0.0,0.0,0.0,0.0,0.0,0.0,0.0,0.0,0.0,0.0,0.0,0.0,0.0,0.0,0.0,0.0,0.0,0.0,0.0,0.0,0.0,0.0,1.2344,1.2336,1.164,1.0263,0.8979,0.7667,0.6266,0.5023,0.4351,0.0,0.0,0.0,0.0,0.0,0.0,0.0,0.0,0.0,0.0,0.0,0.0,0.0,0.0,0.0,0.0,0.0,0.0,0.0,0.0,0.0,0.0,0.0,0.0,0.0,0.0,0.0,0.0,0.0,0.0,0.0,0.0,0.0,0.0,0.0,0.0,0.0,0.0,0.0,0.0,0.0,1.366,1.353,1.3772,1.4062,0.0,0.0,1.427,1.427,1.426,1.4185,1.3996,0.0,0.0,0.0,0.0,0.0,0.0,0.0,0.0,0.0,0.0,0.0,0.0,0.0,0.0,0.0,0.0,0.0,0.0,0.0,0.0,0.0,0.0,0.0,0.0,0.0,0.0,0.0,0.0,0.0,0.0,0.0,0.0,0.0,0.0,0.0,0.0,0.0,0.0,0.0,0.0,0.0,0.0,0.0,0.0,0.0,0.0,0.0,0.0,0.0,0.0,0.0,0.0,0.0,1.2692,1.2499,1.258,1.1537,0.9374,0.8778,0.7384,0.5091,0.4526,0.4275,0.0,0.0,0.0,0.0,0.0,0.0,0.0,0.0,0.0,0.0,0.0,0.0,0.0,0.0,0.0,0.0,0.0,0.0,0.0,0.0,0.0,0.0,0.0,0.0,0.0,0.0,0.0,0.0,1.3904,1.4071,1.4071,0.0,0.0,0.0,0.0,0.0,0.0,0.0,0.0,0.0,0.0,1.3513,1.3647,1.379,0.0,0.0,1.4317,1.4317,1.4317,1.4317,1.4288,1.4203,1.4194,0.0,0.0,0.0,0.0,0.0,0.0,0.0,0.0,0.0,0.0,0.0,0.0,0.0,0.0,0.0,0.0,0.0,0.0,0.0,0.0,0.0,0.0,0.0,0.0,0.0,0.0,0.0,0.0,0.0,0.0,0.0,0.0,0.0,0.0,0.0,0.0,0.0,0.0,0.0,0.0,0.0,0.0,0.0,0.0,0.0,0.0,0.0,0.0,0.0,0.0,0.0,0.0,1.2678,1.2645,1.2341,1.1057,0.8732,0.8259,0.6842,0.4473,0.4371,0.4352,0.0,0.0,0.0,0.0,0.0,0.0,0.0,0.0,0.0,0.0,0.0,0.0,0.0,0.0,0.0,0.0,0.0,0.0,0.0,0.0,0.0,0.0,0.0,0.0,0.0,0.0,0.0,0.0,1.4232,1.4317,1.4317,0.0,0.0,0.0,0.0,0.0,0.0,0.0,0.0,0.0,0.0,1.3416,1.3699,1.3834,1.4051,1.4424,1.4465,1.4496,1.4465,1.4465,1.4414,1.4254,0.0,0.0,0.0,0.0,0.0,0.0,0.0,0.0,0.0,0.0,0.0,0.0,0.0,0.0,0.0,0.0,0.0,0.0,0.0,0.0,0.0,0.0,0.0,0.0,0.0,0.0,0.0,0.0,0.0,0.0,1.232,0.0,0.0,0.0,0.0,0.0,0.0,0.0,0.0,0.0,0.0,0.0,0.0,0.0,0.0,0.0,0.0,0.0,0.0,0.0,0.0,0.0,0.0,1.2791,1.2799,1.153,1.0107,0.8617,0.7212,0.5819,0.4381,0.4311,0.4344,0.4406,0.0,0.0,0.0,0.0,0.0,0.0,0.0,0.0,0.0,0.0,0.0,0.0,0.0,0.0,0.0,0.0,0.0,0.0,0.0,0.0,0.0,0.0,0.0,0.0,0.0,0.0,1.4317,1.4317,1.4317,0.0,0.0,0.0,0.0,0.0,0.0,0.0,0.0,0.0,0.0,1.3092,1.3374,1.3599,1.3883,1.4244,1.4786,1.4847,1.488,1.4838,1.488,1.4725,0.0,0.0,0.0,0.0,0.0,0.0,0.0,0.0,0.0,0.0,0.0,0.0,0.0,0.0,0.0,0.0,0.0,0.0,0.0,0.0,0.0,0.0,0.0,0.0,0.0,0.0,0.0,1.3367,1.2856,0.0,0.0,0.0,0.0,0.0,0.0,0.0,0.0,0.0,0.0,0.0,1.2888,1.2888,0.0,0.0,0.0,0.0,0.0,0.0,0.0,0.0,0.0,0.0,0.0,0.0,1.2799,1.2766,1.2338,1.0984,0.8727,0.8187,0.677,0.4436,0.5281,0.6201,0.7145,0.0,0.0,0.0,0.0,0.0,0.0,0.0,0.0,0.0,0.0,0.0,0.0,0.0,0.0,0.0,0.0,0.0,0.0,0.0,0.0,0.0,0.0,0.0,0.0,0.0,1.455,0.0,0.0,0.0,0.0,0.0,0.0,0.0,0.0,0.0,0.0,0.0,1.344,1.3246,1.3184,1.3235,1.3446,1.3638,1.3888,0.0,0.0,0.0,0.0,0.0,0.0,0.0,0.0,0.0,0.0,0.0,0.0,0.0,0.0,1.3056,1.3253,1.3398,1.3452,1.3492,0.0,0.0,0.0,0.0,0.0,0.0,0.0,0.0,0.0,0.0,0.0,0.0,0.0,0.0,0.0,0.0,1.3294,0.0,0.0,0.0,0.0,0.0,0.0,0.0,0.0,1.3189,1.3165,1.3091,1.3083,1.3083,0.0,1.3083,1.305,0.0,0.0,0.0,0.0,0.0,0.0,0.0,0.0,1.2066,1.2033,1.1068,0.9713,0.8013,0.7916,0.7003,0.5213,0.6461,0.7915,0.9305,0.9338,0.9968,0.0,0.0,0.0,0.0,0.0,0.0,0.0,0.0,0.0,0.0,0.0,0.0,0.0,0.0,0.0,0.0,0.0,0.0,0.0,0.0,0.0,0.0,0.0,1.4595,0.0,0.0,0.0,0.0,0.0,0.0,0.0,0.0,0.0,1.405,1.365,1.3367,1.3202,1.3062,1.312,1.3435,0.0,0.0,0.0,0.0,0.0,0.0,0.0,1.4285,1.3953,1.4086,1.4152,1.3944,1.3619,1.3428,1.3561,0.0,0.0,1.3127,1.325,1.3346,1.3346,1.3251,1.3176,1.3288,1.3124,1.3012,0.0,0.0,0.0,0.0,0.0,0.0,0.0,0.0,1.3402,1.3394,0.0,1.3394,0.0,0.0,0.0,0.0,0.0,1.3427,0.0,0.0,1.3419,1.3474,1.3585,1.3585,1.3593,1.3593,1.3585,1.353,1.3386,1.3019,0.0,0.0,0.0,0.0,0.0,0.0,1.0684,1.0658,0.8056,0.6489,0.6455,0.6422,0.6455,0.6522,0.7856,0.925,1.0711,1.0777,1.1398,1.2708,1.2766,0.0,0.0,0.0,0.0,0.0,0.0,0.0,0.0,0.0,0.0,0.0,0.0,0.0,0.0,0.0,0.0,0.0,0.0,0.0,0.0,1.4408,0.0,0.0,0.0,0.0,0.0,0.0,0.0,0.0,0.0,0.0,1.3895,1.3623,1.3252,1.2898,0.0,0.0,0.0,0.0,1.3781,1.4267,1.437,1.4361,1.4361,1.4361,1.4259,1.3951,0.0,0.0,1.3882,1.3608,1.3497,1.3814,1.3592,1.3296,1.2913,1.3153,1.3384,1.3384,1.3375,1.3384,1.3384,1.3112,1.2881,1.3441,0.0,0.0,0.0,0.0,1.3402,1.3402,1.3402,1.3402,1.3402,1.3402,1.3402,0.0,0.0,0.0,0.0,0.0,0.0,1.3685,1.3536,1.3563,1.3522,1.3449,1.3449,1.3449,1.3484,1.3449,1.3425,1.3402,1.3296,1.328,1.3287,0.0,0.0,0.0,0.0,0.9884,1.0811,0.9029,0.7555,0.6562,0.6558,0.7074,0.8138,0.851,0.9844,1.2309,1.2268,1.2371,1.2766,1.2799,0.0,0.0,0.0,0.0,0.0,0.0,0.0,0.0,0.0,0.0,0.0,0.0,0.0,0.0,0.0,0.0,0.0,0.0,0.0,1.4768,1.4342,1.42,0.0,0.0,0.0,0.0,0.0,0.0,0.0,0.0,0.0,1.39,1.362,1.3459,0.0,0.0,1.3487,1.3781,1.3675,1.363,1.3693,0.0,0.0,0.0,1.3882,1.3925,1.3608,1.354,1.354,1.354,1.3471,1.3437,1.3548,1.3479,1.337,1.328,1.329,1.3391,1.3391,1.3391,1.3391,1.3391,1.329,1.3214,1.365,1.3579,1.3614,1.3614,1.3614,1.3579,1.3579,1.3614,1.3622,1.3622,1.3614,1.3587,1.3579,1.3579,1.3614,0.0,0.0,0.0,1.3847,1.3742,1.3714,1.3685,1.3587,1.3614,1.3579,1.3614,1.3614,1.3579,1.3579,1.3579,1.3579,1.3579,0.0,0.0,1.3299,1.0379,0.9619,1.0972,0.9031,0.7534,0.6705,0.7226,0.8233,0.9717,1.0269,1.139,1.3138,1.3108,1.3051,1.3051,1.3018,1.2985,0.0,0.0,0.0,0.0,0.0,0.0,0.0,0.0,0.0,0.0,0.0,1.3062,1.3654,0.0,0.0,0.0,1.4119,1.4422,1.4512,1.4145,0.0,0.0,0.0,0.0,0.0,0.0,0.0,1.4008,1.3857,1.3818,1.3884,1.3719,1.3635,1.3702,1.3604,1.3592,1.3758,0.0,1.3593,1.3587,1.3579,1.3614,1.3622,1.3753,1.3831,1.3614,1.3614,1.3579,1.3579,1.3614,1.3579,1.3579,1.3614,1.3614,1.3579,1.3614,1.3557,1.3435,1.3402,1.3402,1.3402,1.3402,1.3402,1.3904,1.3904,1.3896,1.3896,1.3904,1.3904,1.3896,1.3904,1.3896,1.3904,1.3904,1.3904,1.3904,1.3896,1.3904,0.0,1.3904,1.3904,1.3896,1.3904,1.3904,1.3904,1.3904,1.3896,1.3904,1.3896,1.3904,1.3904,1.3896,1.3896,1.3904,1.3888,1.3579,1.3451,1.3271,1.0452,0.9683,1.1151,0.8432,0.7008,0.7043,0.8258,0.9648,1.1075,1.249,1.3255,1.3392,1.341,1.3402,1.3402,1.3402,1.3329,1.3124,0.0,0.0,0.0,0.0,0.0,0.0,0.0,0.0,0.0,0.0,0.0,0.0,0.0,0.0,0.0,1.3528,0.0,1.3899,1.3925,0.0,0.0,0.0,1.4396,1.4379,1.4105,1.3992,1.416,0.0,0.0,1.388,0.0,1.3782,1.3492,1.3451,1.3508,1.3636,1.3669,1.369,1.3863,1.3896,1.3896,1.3863,1.3872,1.3863,1.3863,1.3904,1.388,1.388,1.388,1.3888,1.388,1.3896,1.3888,1.3896,1.388,1.3798,1.3516,1.3459,1.3459,1.3476,1.3476,1.3484,1.3904,1.3904,1.3904,1.3904,1.3904,1.3904,1.3904,1.3904,1.3904,1.3904,1.3904,1.3904,1.3904,1.3904,1.3904,1.3904,1.3904,1.3904,1.3904,1.3904,1.3904,1.3904,1.3904,1.3904,1.3904,1.3904,1.3904,1.3904,1.3904,1.3904,1.3904,1.3896,1.3815,1.3774,1.3668,1.0737,0.9947,1.1484,0.9662,0.8704,0.8704,0.9025,0.9947,1.1448,1.1692,1.2342,1.3467,1.3449,1.3402,1.3402,1.3402,1.3386,1.3345,1.3337,0.0,0.0,0.0,0.0,0.0,0.0,0.0,0.0,0.0,1.3591,1.4336,0.0,1.4308,0.0,1.3585,1.3661,1.4224,1.4062,0.0,0.0,1.4406,1.4466,1.4075,1.4242,1.425,1.4008,1.3875,1.382,1.3896,1.3904,1.3872,1.379,1.3774,1.3896,1.4229,1.4025,1.3855,1.3896,1.3904,1.3904,1.3904,1.3904,1.3904,1.3904,1.3904,1.3904,1.3904,1.3904,1.3904,1.3904,1.3904,1.3904,1.3904,1.3904,1.388,1.379,1.3774,1.3774,1.3774,1.3774,1.3774,1.3904,1.3904,1.3904,1.3904,1.3904,1.3904,1.3904,1.3904,1.3904,1.3904,1.3904,1.3904,1.3904,1.3904,1.3904,1.3904,1.3904,1.3904,1.3904,1.3904,1.3904,1.3904,1.3904,1.3904,1.3904,1.3904,1.3904,1.3904,1.3904,1.3904,1.3904,1.3904,1.3904,1.3904,1.3797,1.1521,1.1084,1.2595,1.1119,1.0329,1.0329,1.0329,1.0725,1.1586,1.2194,1.2859,1.3687,1.366,1.3612,1.3604,1.3539,1.349,1.349,1.3417,1.3402,0.0,0.0,0.0,0.0,0.0,0.0,0.0,0.0,0.0,0.0,0.0,1.4325,1.4268,1.3801,1.3765,1.4405,1.41,1.3959,1.4059,1.4243,1.4215,1.3932,1.4082,1.4154,1.394,1.3904,1.3904,1.3904,1.3904,1.3904,1.3904,1.3904,1.3975,1.4154,1.4047,1.3904,1.3904,1.3904,1.3904,1.3904,1.3904,1.3904,1.3904,1.3904,1.3904,1.3904,1.3904,1.3904,1.3904,1.3904,1.3904,1.3904,1.3904,1.3904,1.3904,1.3904,1.3904,1.3904,1.3904,1.3904,1.3904,1.3904,1.3904,1.3904,1.3904,1.3904,1.3904,1.3904,1.3904,1.3904,1.3904,1.3904,1.3904,1.3904,1.3904,1.3904,1.3904,1.3904,1.3904,1.3904,1.3904,1.3904,1.3904,1.3904,1.3904,1.3904,1.3904,1.3904,1.3904,1.3904,1.3904,1.3904,1.3904,1.3904,1.3825,1.2559,1.2559,1.3868,1.2559,1.1908,1.1872,1.1872,1.1908,1.1944,1.3174,1.3904,1.3904,1.3904,1.3904,1.3896,1.3723,1.3642,1.3642,1.3522,1.3476,0.0,1.3476,0.0,0.0,0.0,0.0,0.0,0.0,0.0,0.0,1.3907,1.4086,1.4632,1.4054,1.3847,1.4395,1.4118,1.3904,1.3904,1.3904,1.3904,1.3904,1.3904,1.3904,1.3904,1.3904,1.3904,1.3904,1.3904,1.3904,1.3904,1.3904,1.3904,1.3904,1.3904,1.3904,1.3904,1.3904,1.3904,1.3904,1.3904,1.3904,1.3904,1.3904,1.3904,1.3904,1.3904,1.3904,1.3904,1.3904,1.3904,1.3904,1.3904,1.3904,1.3904,1.3904,1.3904,1.3904,1.3904,1.3904,1.3904,1.3904,1.3904,1.3904,1.3904,1.3904,1.3904,1.3904,1.3904,1.3904,1.3904,1.3904,1.3904,1.3904,1.3904,1.3904,1.3904,1.3904,1.3904,1.3904,1.3904,1.3904,1.3904,1.3904,1.3904,1.3904,1.3904,1.3904,1.3904,1.3904,1.3904,1.3904,1.3904,1.3904,1.3868,0.0,0.0,0.0,1.3611,1.3468,1.3468,1.346,1.3468,1.3468,1.3753,0.0,1.3904,1.3904,1.3904,1.3896,1.3872,0.0,0.0,0.0,0.0,0.0,0.0,0.0,0.0,0.0,0.0,0.0,1.4171,1.4305,1.4162,1.3999,1.4063,1.4495,1.4104,1.3899,1.4011,1.394,1.3904,1.3904,1.3904,1.3904,1.3904,1.3904,1.3904,1.3904,1.3904,1.3904,1.3904,1.3904,1.3904,1.3912,1.3904,1.3904,1.3912,1.3912,1.3904,1.3904,1.3912,1.3904,1.3904,1.3912,1.3937,1.3904,1.3904,1.3912,1.392,1.392,1.3904,1.3912,1.3904,1.3912,1.3912,1.3904,1.392,1.3904,1.3904,1.3904,1.3904,1.3904,1.3904,1.3904,0.0,1.3904,1.3904,0.0,1.3904,1.3953,1.4034,1.3945,1.3904,1.3904,1.3904,1.3904,1.3904,1.3904,1.3904,1.3904,1.3904,1.3904,1.3904,1.3904,1.3904,1.3904,1.3904,1.3904,1.3904,1.3904,1.3904,1.3904,1.3904,1.3904,1.3904,1.3904,1.3904,1.3904,1.3904,1.3904,1.3904,1.3904,1.3904,1.3904,1.3904,1.3904,1.3904,0.0,0.0,0.0,0.0,0.0,0.0,0.0,0.0,0.0,0.0,0.0,1.3896,1.3904,1.3904,1.3904,1.4082,1.4118,1.3904,1.4082,1.4148,1.4057,1.3954,1.3975,1.4189,1.4011,1.3904,1.3904,1.3904,1.3904,1.3904,1.3904,1.3904,1.3904,1.3904,1.3904,1.3904,1.3904,1.3904,1.3904,1.3904,1.3945,1.4026,1.4042,1.4066,1.4131,1.401,1.3928,1.4018,1.4042,1.4066,1.4148,1.4128,1.4164,1.4164,1.4164,1.4128,1.4128,1.4128,1.4128,1.4128,1.4164,1.4164,1.4164,1.4164,1.4164,1.4128,1.4164,1.4164,1.4156,1.4026,1.3904,1.3993,1.3993,1.3993,1.3814,1.3598,1.3886,1.3938,1.3811,0.0,0.0,0.0,1.3845,1.3937,1.3904,1.3904,1.3904,1.3904,1.3904,1.3904,1.3904,1.3904,1.3904,1.3904,1.3904,1.3904,1.3904,1.3904,1.3904,1.3904,1.3904,1.3904,1.3904,1.3904,1.3904,1.3904,1.3904,1.3904,1.3904,1.3904,1.3904,1.3904,1.3904,1.3904,1.3904,1.3904,1.3904,1.3904,1.3904,1.3904,1.3896,1.3731,1.375,1.3888,1.3731,1.3723,1.3888,1.3904,1.3904,1.3904,1.3904,1.3904,1.3904,1.3904,1.3904,1.3904,1.3904,1.3904,1.3904,1.3904,1.3904,1.3904,1.3904,1.3904,1.3904,1.3904,1.3904,1.3904,1.3904,1.3904,1.3904,1.3904,1.3912,1.3953,1.3961,1.4018,1.418,1.4221,1.427,1.4322,1.4188,1.4075,1.4196,1.4221,1.427,1.4383,1.4371,1.4395,1.4363,1.4379,1.4395,1.4395,1.4395,1.4395,1.4363,1.4395,1.4379,1.4387,1.4371,1.4395,1.4395,1.4395,1.4395,1.4371,1.4205,1.4026,1.4322,1.4359,1.4314,1.354,1.2393,1.3761,1.3555,1.2459,1.3732,1.3455,1.211,1.3507,1.405,1.3904,1.3904,1.3904,1.3904,1.3904,1.3904,0.0,1.3904,1.3904,1.3904,1.3904,1.3904,1.3904,1.3868,1.3904,1.3904,1.3868,1.3904,1.3904,1.3904,1.3904,1.3904,1.3904,1.3904,1.3904,1.3904,1.3904,1.3904,1.3904,1.3904,1.3904,1.3904,1.3904,1.3904,1.3904,1.3904,1.3896,1.388,1.388,1.3896,1.388,1.388,1.3896,1.3904,1.3904,1.3904,1.3904,1.3904,1.3904,1.3904,1.3904,1.3904,1.3904,1.3904,1.3904,1.3904,1.3904,1.3904,1.3904,1.3904,1.3904,1.3904,1.3904,1.3904,1.3904,1.3904,1.3912,1.3904,1.3977,1.4107,1.414,1.4196,1.4351,1.4416,1.4379,1.4403,1.4354,1.433,1.4354,1.4391,1.4371,1.4427,1.4403,1.4427,1.4395,1.4419,1.4435,1.4444,1.4444,1.4435,1.4411,1.4435,1.4427,1.4419,1.4395,1.4427,1.4435,1.4444,1.4427,1.4435,1.4363,1.4314,1.4395,1.4284,1.346,1.32,1.3319,1.3252,1.1742,0.9629,1.1251,1.1465,1.0638,1.1341,1.2118,1.2831,1.2868,1.3342,1.4188,1.4152,1.4188,1.4188,1.4152,1.4188,1.4188,1.4188,1.3707,1.2941,1.2868,1.2868,1.2868,1.2868,1.3306,1.4115,1.4188,1.4188,1.4188,1.4188,1.4188,1.4152,1.4002,1.3904,1.3904,1.3904,1.3904,1.3904,1.3904,1.3904,1.3904,1.3904,1.3904,1.3904,1.3904,1.3904,1.3904,1.3904,1.3904,1.3904,1.3904,1.3904,1.3904,1.3904,1.3904,1.3904,1.3904,1.3904,1.3904,1.3904,1.3904,1.3904,1.3904,1.3904,1.3904,1.3904,1.3904,1.3904,1.3904,1.3904,1.3904,1.3904,1.3937,1.4034,1.405,1.4115,1.4294,1.4318,1.4383,1.4554,1.4651,1.4716,1.4716,1.4716,1.4684,1.4565,1.4541,1.4627,1.47,1.4724,1.4724,1.4716,1.4724,1.4724,1.4724,1.4716,1.4716,1.4724,1.4716,1.4724,1.4716,1.4724,1.4724,1.4724,1.4724,1.4724,1.4724,1.4724,1.4651,1.3417,1.3267,1.206,1.2285,1.3199,1.1378,0.9282,0.7453,0.8445,0.8736,0.8597,0.9204,1.0266,1.1369,1.1437,1.2115,1.323,1.372,1.3646,1.3341,1.3683,1.3683,1.3341,1.3267,1.2821,1.204,1.2003,1.2189,1.2487,1.2531,1.3163,1.4284,1.4395,1.4395,1.4395,1.4395,1.4395,1.4379,1.4156,1.4002,1.3961,1.3928,1.3904,1.3904,1.3904,1.3904,1.3904,1.3904,1.3904,1.3904,1.3904,1.3904,1.3904,1.3904,1.3904,1.3904,1.3904,1.3904,1.3904,1.3904,1.3904,1.3896,1.3863,1.3847,1.3839,1.3798,1.3823,1.388,1.3904,1.3888,1.3847,1.388,1.3888,1.3855,1.392,1.3977,1.3969,1.3993,1.4066,1.4213,1.4274,1.4302,1.444,1.446,1.457,1.4741,1.4925,1.5006,1.5047,1.5063,1.4968,1.4911,1.4822,1.4806,1.4982,1.499,1.499,1.5006,1.499,1.4974,1.4974,1.499,1.4998,1.4974,1.499,1.4974,1.4998,1.499,1.4982,1.4966,1.4958,1.4982,1.4974,1.4974,1.4901,1.0462,1.0385,1.0257,1.0269,1.0031,0.7143,0.6488,0.7189,0.6108,0.5444,0.5845,0.8396,0.9591,0.9719,0.9725,0.9917,1.0248,1.1556,1.145,1.0361,1.1518,1.1437,1.0211,1.0056,1.0691,1.1786,1.1942,1.2596,1.3899,1.4077,1.4255,1.4395,1.4395,1.4411,1.4403,1.4403,1.4403,1.4395,1.4363,1.4273,1.4192,1.3985,1.3904,1.3904,1.3904,1.3904,1.3904,1.3904,1.3904,1.3904,1.3904,1.3896,1.3896,1.3896,1.3896,1.3888,1.3896,1.3904,1.3896,1.3904,1.3896,1.3888,1.3766,1.365,1.3642,1.353,1.3606,1.3823,1.3904,1.3831,1.3674,1.3815,1.3863,1.3739,1.3985,1.4156,1.4164,1.4294,1.4354,1.4399,1.4371,1.4444,1.4643,1.4684,1.4749,1.4919,1.5015,1.5049,1.5187,1.5173,1.526,1.5309,1.5171,1.5023,1.5039,1.5006,1.5055,1.5039,1.5023,1.5047,1.5072,1.5055,1.5015,1.5112,1.5055,1.5063,1.5047,1.5006,1.5031,1.5088,1.5072,1.5023,1.5015,1.5023,1.4941,0.9992,0.9915,0.8949,0.7937,0.6967,0.658,0.6307,0.5958,0.5332,0.5022,0.5137,0.6389,0.7435,0.8281,0.8324,0.8856,0.9807,1.05,1.05,0.9845,1.0538,1.0424,0.9851,0.9813,1.0195,1.0767,1.0806,1.1682,1.3217,1.4249,1.4749,1.4749,1.4749,1.4749,1.4749,1.4749,1.4787,1.4749,1.4643,1.4562,1.4473,1.4213,1.4066,1.405,1.3961,1.3904,1.3904,1.3904,1.3904,1.3904,1.3904,1.3855,1.3714,1.3714,1.3701,1.3604,1.3622,1.3636,1.3742,1.375,1.379,1.3896,1.3839,1.3798,1.3798,1.3725,1.3798,1.3985,1.388,1.3714,1.3807,1.3961,1.4034,1.4002,1.418,1.4326,1.4335,1.4391,1.4427,1.457,1.4603,1.4659,1.4814,1.4901,1.4935,1.5082,1.513,1.5204,1.5327,1.5359,1.5431,1.548,1.5374,1.5309,1.5285,1.5293,1.5285,1.5285,1.5293,1.5293,1.5277,1.5293,1.5293,1.5285,1.5268,1.5268,1.5309,1.5293,1.5293,1.5277,1.5285,1.5293,1.5293,1.5204,1.5106,0.8633,0.8443,0.7279,0.6111,0.5137,0.6307,0.6111,0.51,0.5022,0.5022,0.5022,0.5022,0.5645,0.6697,0.6815,0.7513,0.8555,0.9104,0.9027,0.875,0.91,0.9061,0.8711,0.9143,0.9565,1.0031,1.0535,1.1586,1.3144,1.4345,1.5006,1.5006,1.5006,1.5006,1.5006,1.5006,1.5006,1.499,1.4838,1.4781,1.4741,1.4481,1.4278,1.4217,1.405,1.3953,1.3904,1.3904,1.3904,1.3904,1.3904,1.3847,1.369,1.3682,1.3652,1.3539,1.3549,1.3571,1.3674,1.3682,1.3766,1.388,1.3904,1.3904,1.3904,1.3904,1.3985,1.4168,1.3909,1.3863,1.3961,1.414,1.4221,1.4241,1.4367,1.4468,1.4468,1.4538,1.4643,1.4757,1.4781,1.4846,1.5009,1.509,1.5187,1.5254,1.5278,1.5343,1.5536,1.5585,1.5601,1.565,1.5666,1.561,1.5545,1.5488,1.5512,1.5512,1.5488,1.548,1.5512,1.5512,1.5512,1.5415,1.5488,1.5504,1.5447,1.5472,1.548,1.5512,1.552,1.552,1.5463,1.5343,1.527,0.5215,0.5296,0.5179,0.5145,0.5022,0.5139,0.5139,0.5027,0.5022,0.5022,0.5022,0.5022,0.5061,0.5218,0.5293,0.5215,0.5528,0.6971,0.6854,0.576,0.6967,0.6776,0.5411,0.685,0.8482,1.0031,1.1508,1.3067,1.4691,1.4921,1.5006,1.5006,1.5006,1.5006,1.5006,1.5006,1.5006,1.4998,1.4982,1.4982,1.4966,1.4765,1.4521,1.4274,1.4172,1.4091,1.3945,1.3912,1.3912,1.3912,1.3928,1.3912,1.3896,1.3888,1.3872,1.3863,1.3863,1.3872,1.3888,1.3888,1.3904,1.3912,1.3928,1.3912,1.3928,1.3912,1.3993,1.42,1.4164,1.4148,1.4213,1.4318,1.4298,1.4237,1.4489,1.4659,1.47,1.4852,1.4966,1.4998,1.5015,1.5049,1.5212,1.5382,1.5447,1.5488,1.5504,1.5569,1.5715,1.5804,1.5821,1.5894,1.5918,1.5861,1.561,1.5601,1.5577,1.5593,1.5634,1.5561,1.5528,1.5512,1.5528,1.5545,1.5585,1.5593,1.5536,1.5536,1.5529,1.5545,1.5601,1.5593,1.565,1.5553,1.5472,0.5136,0.5136,0.5136,0.5136,0.5131,0.5095,0.5079,0.5074,0.4996,0.5022,0.5022,0.5022,0.5022,0.5022,0.5022,0.5022,0.5058,0.5645,0.5567,0.5097,0.5645,0.5567,0.5254,0.6697,0.837,1.0031,1.1702,1.3375,1.4853,1.5006,1.5006,1.5006,1.5006,1.5006,1.5006,1.5006,1.5006,1.5006,1.5006,1.5006,1.5006,1.4941,1.4757,1.4529,1.4399,1.4273,1.4209,1.4237,1.4237,1.4201,1.4201,1.4188,1.4083,1.3961,1.3904,1.3904,1.3904,1.3953,1.4058,1.4083,1.4131,1.4221,1.414,1.4083,1.4094,1.3985,1.4018,1.427,1.4343,1.4416,1.4594,1.4546,1.4371,1.4391,1.4554,1.4765,1.4854,1.4974,1.5047,1.5122,1.5236,1.535,1.5359,1.5432,1.5561,1.5658,1.5683,1.5756,1.5853,1.591,1.5926,1.5983,1.5999,1.5958,1.5869,1.5821,1.5821,1.5821,1.5829,1.5821,1.5796,1.5772,1.5788,1.5764,1.5756,1.5756,1.5748,1.5748,1.5748,1.5756,1.5764,1.574,1.5821,1.5748,1.5666,0.5202,0.5202,0.5202,0.5202,0.5196,0.5161,0.5142,0.5136,0.5098,0.5079,0.5079,0.504,0.504,0.5037,0.5021,0.501,0.5007,0.503,0.5022,0.5022,0.5022,0.5293,0.6033,0.7513,0.9182,1.085,1.252,1.3914,1.4853,1.5006,1.5006,1.5006,1.5006,1.5006,1.5006,1.5006,1.5006,1.5006,1.5006,1.5006,1.5006,1.5006,1.4958,1.4789,1.4667,1.4538,1.4403,1.4395,1.4395,1.4395,1.4395,1.4375,1.4261,1.414,1.4075,1.4038,1.4075,1.4099,1.4164,1.418,1.4265,1.4335,1.4302,1.4278,1.4363,1.4278,1.4375,1.4546,1.4603,1.4716,1.4789,1.4708,1.4603,1.4627,1.4765,1.4881,1.5041,1.5114,1.5204,1.5325,1.548,1.5577,1.561,1.5658,1.574,1.5853,1.5861,1.5926,1.5975,1.6007,1.6007,1.6007,1.6007,1.5999,1.5958,1.5934,1.5934,1.5942,1.5934,1.5983,1.6007,1.6007,1.6007,1.6007,1.6007,1.6007,1.6007,1.6007,1.6007,1.6007,1.5958,1.5902,1.5918,1.5934,1.5829,0.5207,0.5213,0.5204,0.5215,0.5218,0.5207,0.5202,0.5202,0.5194,0.5183,0.5177,0.5191,0.5183,0.5183,0.5134,0.5112,0.5104,0.5063,0.5033,0.5022,0.5022,0.588,0.7318,0.8949,1.0773,1.252,1.4153,1.493,1.5006,1.5006,1.5006,1.5006,1.5006,1.5006,1.5006,1.5006,1.5006,1.5006,1.5006,1.5006,1.5006,1.5006,1.4998,1.499,1.4966,1.4781,1.4444,1.4427,1.4444,1.4473,1.4427,1.4403,1.4403,1.4379,1.4387,1.4379,1.4387,1.4351,1.4237,1.4245,1.4314,1.4302,1.433,1.4497,1.4627,1.4741,1.4868,1.4925,1.4941,1.4941,1.483,1.4903,1.499,1.5006,1.5065,1.514,1.5221,1.5398,1.5512,1.5536,1.5666,1.5804,1.5813,1.5886,1.5934,1.5958,1.5975,1.5975,1.5999,1.6007,1.6007,1.6007,1.6007,1.6007,1.6007,1.6007,1.5999,1.5999,1.5991,1.6007,1.6007,1.6007,1.6007,1.6007,1.6007,1.6007,1.6007,1.6007,1.6007,1.6007,1.6007,1.6007,1.5975,1.5942,1.5894,0.5327,0.5327,0.533,0.5327,0.5322,0.5283,0.5264,0.5259,0.5224,0.5202,0.5202,0.5202,0.5202,0.5202,0.518,0.5175,0.5172,0.515,0.5101,0.5075,0.5064,0.5962,0.7673,0.926,1.147,1.3876,1.4729,1.5006,1.5006,1.5006,1.5006,1.5006,1.5006,1.5006,1.5006,1.5006,1.5006,1.5006,1.5006,1.5006,1.5006,1.5006,1.5006,1.5006,1.5006,1.4941,1.4806,1.4797,1.4835,1.4789,1.4835,1.4749,1.4614,1.4581,1.4619,1.4627,1.4627,1.4676,1.4762,1.4746,1.473,1.473,1.4659,1.4643,1.4676,1.4659,1.4749,1.4958,1.5006,1.5055,1.522,1.5309,1.5244,1.5031,1.513,1.5262,1.5383,1.5585,1.5675,1.5715,1.5853,1.591,1.5926,1.5991,1.5999,1.6007,1.6007,1.6007,1.6007,1.6007,1.6007,1.6007,1.6007,1.6007,1.6007,1.6007,1.6007,1.6007,1.6007,1.6007,1.6007,1.6007,1.6007,1.6007,1.6007,1.6007,1.6007,1.6007,1.6007,1.6007,1.6007,1.6007,1.6007,1.5975,1.5934,0.5384,0.5384,0.5384,0.5384,0.5382,0.5341,0.5327,0.5322,0.5289,0.527,0.527,0.527,0.527,0.5264,0.5248,0.5237,0.5234,0.5215,0.552,0.6006,0.6072,0.7295,0.9454,1.1173,1.2793,1.4584,1.5006,1.5006,1.5006,1.5006,1.5006,1.5006,1.5006,1.5006,1.5006,1.5006,1.5006,1.5006,1.5006,1.5006,1.5006,1.5006,1.5006,1.5006,1.5006,1.5006,1.5006,1.5006,1.5006,1.5006,1.5006,1.4949,1.4814,1.4806,1.4806,1.4806,1.4806,1.483,1.4871,1.4868,1.4909,1.4846,1.4765,1.4781,1.48,1.4743,1.484,1.5106,1.5187,1.5268,1.5463,1.5577,1.5528,1.534,1.5317,1.5383,1.5593,1.5772,1.5861,1.5902,1.5934,1.5991,1.6007,1.6007,1.6007,1.6007,1.6007,1.6007,1.6007,1.6007,1.6015,1.6015,1.6007,1.6007,1.6007,1.6007,1.6007,1.6007,1.6007,1.6007,1.6007,1.6007,1.6007,1.6007,1.6007,1.6007,1.6007,1.6007,1.6007,1.6007,1.5966,1.6007,1.6007,1.6007,1.5975,0.5384,0.5384,0.5384,0.5384,0.5384,0.5379,0.5376,0.5382,0.5376,0.5371,0.5373,0.5365,0.5373,0.5365,0.5319,0.53,0.533,0.5619,0.6564,0.7758,0.8397,0.9879,1.2303,1.3877,1.475,1.5027,1.508,1.5063,1.5096,1.5063,1.5023,1.5047,1.5023,1.5006,1.5006,1.5006,1.5006,1.5006,1.5006,1.5006,1.5006,1.5006,1.5006,1.5006,1.5006,1.5006,1.5006,1.5006,1.5006,1.5006,1.5006,1.499,1.4982,1.4982,1.4949,1.4903,1.4974,1.4862,1.4765,1.4781,1.4789,1.4814,1.483,1.4879,1.5116,1.5164,1.5229,1.5463,1.5496,1.5528,1.5593,1.5699,1.5796,1.5788,1.5626,1.561,1.5772,1.5894,1.5958,1.5983,1.6007,1.6007,1.6007,1.6007,1.6007,1.6007,1.6023,1.6056,1.6064,1.608,1.6056,1.608,1.6137,1.6153,1.6201,1.5985,1.5951,1.5909,1.587,1.5773,1.5792,1.5768,1.5669,1.5711,1.5809,1.5891,1.5834,1.5711,1.5752,1.5801,1.5842,1.5925,1.6007,1.6007,1.5883,0.5384,0.5384,0.5384,0.5384,0.5384,0.5384,0.5384,0.5384,0.5384,0.5384,0.5384,0.5384,0.5384,0.5424,0.541,0.536,0.5724,0.6746,0.8268,0.9958,1.1405,1.2144,1.321,1.4661,1.5415,1.5358,1.5333,1.5366,1.5358,1.5228,1.5171,1.5163,1.508,1.5015,1.5006,1.5015,1.5006,1.5006,1.5006,1.5006,1.5006,1.5006,1.5006,1.5006,1.5006,1.5015,1.5006,1.5006,1.5006,1.5006,1.5006,1.4941,1.4814,1.4797,1.4814,1.4822,1.4806,1.4838,1.4933,1.4941,1.496,1.5043,1.5043,1.5164,1.5375,1.5399,1.5528,1.5666,1.5747,1.5756,1.5829,1.5894,1.591,1.5813,1.5788,1.5853,1.5902,1.5966,1.6007,1.6007,1.6007,1.6007,1.6023,1.6023,1.6023,1.6047,1.612,1.6193,1.6209,1.6324,1.6349,1.6414,1.6462,1.6454,1.637,1.6116,1.5947,1.5836,1.5697,1.5394,1.537,1.5296,1.5107,1.5002,1.5221,1.5311,1.5149,1.5002,1.5216,1.5505,1.5546,1.5546,1.5883,1.5966,1.5719,0.5384,0.5384,0.5384,0.5384,0.5384,0.5384,0.5384,0.5384,0.5384,0.5384,0.5384,0.5384,0.5384,0.5468,0.6176,0.6511,0.6717,0.834,1.0128,1.1872,1.3618,1.4311,1.4499,1.5297,1.5593,1.5512,1.552,1.5512,1.5456,1.5359,1.5327,1.5325,1.5171,1.5082,1.5082,1.5039,1.5006,1.5006,1.5006,1.5006,1.5006,1.5006,1.5063,1.5057,1.5082,1.5106,1.5179,1.5204,1.5139,1.5055,1.4998,1.4958,1.483,1.4814,1.4854,1.4911,1.4897,1.5017,1.5155,1.5195,1.5244,1.5286,1.5318,1.5447,1.5577,1.5626,1.5699,1.5853,1.5886,1.5943,1.5975,1.6007,1.5958,1.5926,1.5942,1.5975,1.5943,1.5958,1.5999,1.6007,1.6007,1.6039,1.6096,1.6112,1.6153,1.6267,1.6365,1.6405,1.643,1.6535,1.66,1.6582,1.6411,1.6244,1.61,1.5845,1.5561,1.5499,1.5328,1.5025,1.5063,1.4949,1.4896,1.4806,1.4791,1.4712,1.4619,1.4631,1.4837,1.5051,1.5092,1.5175,1.5422,1.5628,1.5422,0.5443,0.5395,0.5395,0.539,0.5387,0.5384,0.5384,0.5384,0.5384,0.5384,0.5384,0.5384,0.5384,0.5508,0.6968,0.7927,0.8006,1.0003,1.1961,1.359,1.5036,1.5656,1.5577,1.5634,1.574,1.5642,1.5577,1.5601,1.557,1.5577,1.5545,1.5496,1.5318,1.5237,1.5252,1.5122,1.508,1.5104,1.5129,1.5129,1.5129,1.5137,1.5155,1.5252,1.5229,1.5333,1.5431,1.5472,1.5358,1.5088,1.5025,1.5088,1.5072,1.5072,1.5098,1.5173,1.5205,1.5278,1.5424,1.5463,1.5512,1.5528,1.5536,1.5618,1.5756,1.5804,1.5861,1.5958,1.5999,1.5991,1.5999,1.6007,1.5999,1.5975,1.5999,1.5926,1.5902,1.5975,1.6031,1.6039,1.6047,1.6145,1.6276,1.6349,1.6381,1.6422,1.6527,1.66,1.6548,1.6534,1.6567,1.6516,1.6285,1.5945,1.5723,1.5509,1.5281,1.5045,1.4808,1.465,1.4837,1.4806,1.4789,1.4724,1.4384,1.4284,1.4322,1.4383,1.4507,1.4638,1.4679,1.4679,1.4796,1.5002,1.4961,0.5539,0.55,0.5498,0.5428,0.539,0.5384,0.5384,0.5384,0.5384,0.5384,0.5426,0.5426,0.5468,0.5552,0.7429,0.801,0.8757,1.138,1.3755,1.5298,1.5711,1.5991,1.5942,1.5934,1.5918,1.5869,1.5885,1.5885,1.5853,1.578,1.5715,1.5691,1.5553,1.5455,1.5439,1.539,1.539,1.5398,1.5382,1.5366,1.5366,1.5366,1.539,1.5455,1.5424,1.548,1.5504,1.5512,1.5472,1.5415,1.5398,1.539,1.5366,1.5366,1.5398,1.5431,1.5455,1.548,1.5472,1.5553,1.5585,1.5707,1.5723,1.5796,1.5918,1.5934,1.5958,1.6007,1.6007,1.6007,1.6007,1.6007,1.6015,1.6023,1.6023,1.6014,1.612,1.6169,1.6227,1.6142,1.6231,1.6436,1.6384,1.613,1.6212,1.6515,1.6468,1.665,1.6353,1.5966,1.5836,1.5473,1.5351,1.5032,1.5473,1.5256,1.4952,1.4742,1.4538,1.4371,1.4568,1.4527,1.4443,1.4181,1.3838,1.3825,1.3977,1.3852,1.3894,1.4059,1.4232,1.4307,1.439,1.4507,1.4507,0.5586,0.5558,0.5558,0.5522,0.5476,0.5468,0.5412,0.5387,0.5384,0.5384,0.5594,0.6179,0.6637,0.6885,0.9263,1.059,1.1089,1.3259,1.5085,1.5842,1.6007,1.6007,1.6007,1.6007,1.6007,1.6007,1.5999,1.6007,1.5975,1.5959,1.5902,1.5886,1.5723,1.5642,1.561,1.5569,1.5504,1.5504,1.5512,1.5512,1.5512,1.5512,1.5569,1.565,1.5715,1.5764,1.5732,1.5732,1.5732,1.5723,1.5715,1.5675,1.5545,1.552,1.5553,1.5626,1.5634,1.5691,1.5691,1.5732,1.5772,1.5886,1.5902,1.5951,1.5983,1.6007,1.6007,1.6007,1.6007,1.6007,1.6007,1.6007,1.6023,1.6112,1.6087,1.586,1.539,1.5761,1.5879,1.5428,1.5046,1.4579,1.4457,1.4657,1.429,1.3824,1.3402,1.3517,1.3173,1.2985,1.367,1.3676,1.3835,1.4112,1.4919,1.5,1.459,1.4495,1.44,1.4319,1.4393,1.4247,1.405,1.3858,1.3702,1.358,1.3659,1.3451,1.3438,1.3604,1.3811,1.3935,1.3976,1.3976,1.3935,0.5624,0.5616,0.5616,0.5583,0.5536,0.5531,0.5455,0.5406,0.544,0.5651,0.6011,0.7425,0.7923,0.9049,1.1677,1.33,1.4086,1.4919,1.5925,1.5966,1.6007,1.6007,1.6007,1.6007,1.6007,1.6007,1.6007,1.6007,1.6007,1.6007,1.5966,1.5966,1.5902,1.5821,1.578,1.5691,1.5642,1.5618,1.5618,1.565,1.5642,1.5602,1.5667,1.5813,1.5918,1.595,1.595,1.5958,1.5983,1.6007,1.6007,1.5845,1.5651,1.5561,1.565,1.5813,1.5813,1.5869,1.591,1.5966,1.5975,1.6007,1.5999,1.5999,1.6007,1.6007,1.6007,1.6007,1.6007,1.6023,1.6039,1.5518,1.5604,1.5622,1.5661,1.476,1.3918,1.455,1.4231,1.3702,1.3409,1.3053,1.2437,1.2205,1.1654,1.1174,1.0786,1.048,1.0259,1.0707,1.1771,1.2933,1.3388,1.3837,1.4601,1.4822,1.4431,1.4343,1.4299,1.4299,1.4299,1.4224,1.4102,1.3876,1.3727,1.3599,1.3519,1.3431,1.3397,1.3397,1.3438,1.3645,1.3562,1.3438,1.3445,0.5681,0.5679,0.5679,0.5646,0.5594,0.5588,0.5555,0.5466,0.5543,0.6313,0.7474,0.7968,0.9091,1.0544,1.2341,1.4135,1.5257,1.5834,1.6007,1.6007,1.6007,1.6007,1.6007,1.6007,1.6007,1.6007,1.6007,1.6007,1.6007,1.6007,1.6007,1.5999,1.5966,1.5942,1.5934,1.5926,1.5869,1.5845,1.5853,1.5861,1.5861,1.5869,1.5877,1.5934,1.5983,1.5999,1.6007,1.6007,1.6007,1.6007,1.6007,1.5966,1.5894,1.5877,1.5902,1.5926,1.5934,1.5958,1.5999,1.6007,1.6007,1.6007,1.6007,1.6007,1.6007,1.5966,1.5883,1.576,1.5817,1.594,1.616,1.4732,1.4056,1.3771,1.2979,1.1816,1.1259,1.1318,1.1519,1.1041,1.1248,1.1302,1.0293,0.9724,0.957,0.9322,0.9104,0.893,0.8797,0.9686,1.1023,1.2231,1.3394,1.3843,1.4387,1.4431,1.4343,1.4343,1.4299,1.4299,1.4299,1.4299,1.4183,1.391,1.3754,1.3646,1.3566,1.3431,1.3397,1.3397,1.3397,1.3397,1.3397,1.3397,1.3397,0.5722,0.5698,0.5698,0.5662,0.5657,0.5649,0.5616,0.569,0.6465,0.7279,0.8412,0.9871,1.1214,1.2424,1.3962,1.5298,1.5793,1.6007,1.6007,1.6007,1.6007,1.6007,1.6007,1.6007,1.6007,1.6007,1.6007,1.6007,1.6007,1.6007,1.6007,1.6007,1.6007,1.6007,1.6007,1.5991,1.6007,1.6007,1.6007,1.6007,1.6007,1.6007,1.6007,1.6007,1.6007,1.6007,1.6007,1.6007,1.6007,1.6007,1.6007,1.6007,1.6007,1.6007,1.6007,1.6007,1.6007,1.6007,1.6007,1.6007,1.6007,1.6007,1.6007,1.6007,1.6007,1.5925,1.5554,1.486,1.4644,1.4313,1.3418,1.2688,1.224,1.1905,1.1031,0.9995,0.9097,0.8814,0.8509,0.8288,0.8534,0.8332,0.7369,0.7108,0.7424,0.7424,0.7331,0.7242,0.7153,0.8,0.9157,1.0451,1.1571,1.2597,1.3312,1.3982,1.3894,1.3894,1.4033,1.4033,1.4166,1.4122,1.4049,1.3862,1.3754,1.3687,1.3553,1.3397,1.3397,1.3397,1.3397,1.3397,1.3397,1.3397,1.3397,0.5696,0.5696,0.5696,0.5711,0.5717,0.5712,0.594,0.6395,0.7527,0.8586,0.9568,1.1951,1.3424,1.4176,1.5126,1.5966,1.6007,1.6007,1.6007,1.6007,1.6007,1.6007,1.6007,1.6007,1.6007,1.6007,1.6007,1.6007,1.6007,1.6007,1.6007,1.6007,1.6007,1.6007,1.6007,1.6007,1.6007,1.6007,1.6007,1.6007,1.6007,1.6007,1.6007,1.6007,1.6007,1.6007,1.6007,1.6007,1.6007,1.6007,1.6007,1.6007,1.6007,1.6007,1.6007,1.6007,1.6007,1.6007,1.6007,1.6007,1.6007,1.6007,1.6007,1.6007,1.5817,1.5461,1.469,1.3368,1.2923,1.2604,1.1644,1.0543,1.0202,0.9845,0.9351,0.8493,0.7033,0.6255,0.5764,0.5725,0.5909,0.5867,0.5467,0.5378,0.5823,0.5599,0.5462,0.5107,0.5062,0.5331,0.6401,0.7963,0.9299,1.0722,1.1976,1.3451,1.3274,1.3046,1.3179,1.3274,1.3584,1.3805,1.3703,1.3525,1.3802,1.372,1.3559,1.3362,1.3397,1.3397,1.3397,1.3397,1.3397,1.3397,1.3397,0.5696,0.5696,0.5696,0.5691,0.573,0.577,0.671,0.8038,0.8342,1.0091,1.2505,1.3291,1.4349,1.534,1.5711,1.6007,1.6007,1.6007,1.6007,1.6007,1.6007,1.6007,1.6007,1.6007,1.6007,1.6007,1.6007,1.6007,1.6007,1.6007,1.6007,1.6007,1.6007,1.6007,1.6007,1.6007,1.6007,1.6007,1.6007,1.6007,1.6007,1.6007,1.6007,1.6007,1.6007,1.6007,1.6007,1.6007,1.6007,1.6007,1.6007,1.6007,1.6007,1.6007,1.6007,1.6007,1.6007,1.6007,1.6007,1.6007,1.6007,1.6007,1.6023,1.6007,1.5459,1.4361,1.3062,1.1337,1.1152,1.0864,1.0106,0.9031,0.8349,0.746,0.664,0.558,0.4393,0.4751,0.4171,0.3949,0.4395,0.4485,0.4305,0.4307,0.4261,0.3902,0.3588,0.3366,0.3321,0.3812,0.435,0.6001,0.7561,0.8988,0.9833,1.1438,1.2376,1.2109,1.2331,1.2603,1.3451,1.3779,1.3123,1.3114,1.3432,1.3422,1.2965,1.2897,1.3244,1.3397,1.3397,1.3397,1.3397,1.3397,1.3355,0.5696,0.5696,0.5696,0.5696,0.5831,0.6854,0.777,0.8823,1.0703,1.2269,1.3673,1.4705,1.5433,1.5941,1.6007,1.6007,1.6007,1.6007,1.6007,1.6007,1.6007,1.6007,1.6007,1.6007,1.6007,1.6007,1.6007,1.6007,1.6007,1.6007,1.6007,1.6007,1.6007,1.6007,1.6007,1.6007,1.6007,1.6007,1.6007,1.6007,1.6007,1.6007,1.6007,1.6007,1.6007,1.6007,1.6007,1.6007,1.6007,1.6007,1.6007,1.6007,1.6007,1.6007,1.6007,1.6007,1.6007,1.6007,1.6007,1.5966,1.5891,1.6006,1.593,1.5735,1.4714,1.304,1.1248,0.9502,0.9116,0.8717,0.7889,0.6517,0.5881,0.5147,0.4662,0.4081,0.3411,0.3276,0.3233,0.3008,0.2919,0.3323,0.3592,0.359,0.359,0.3456,0.3276,0.3143,0.3053,0.3231,0.3768,0.444,0.5957,0.7383,0.7963,0.8943,1.0772,1.1039,1.1483,1.2065,1.354,1.3841,1.2547,1.2451,1.2964,1.2813,1.2287,1.2743,1.3321,1.3397,1.3397,1.3397,1.3397,1.3272,1.3272,0.5696,0.5741,0.6186,0.641,0.6633,0.8498,0.9651,1.0436,1.2704,1.4089,1.4699,1.5611,1.6071,1.6031,1.6007,1.6007,1.6007,1.6007,1.6007,1.6007,1.6007,1.6007,1.6007,1.6007,1.6007,1.6007,1.6007,1.6007,1.6007,1.6007,1.6007,1.6007,1.6007,1.6007,1.6007,1.6007,1.6007,1.6007,1.6007,1.6007,1.6007,1.6007,1.6007,1.6007,1.6007,1.6007,1.6007,1.6007,1.6007,1.6007,1.6007,1.6007,1.6007,1.6007,1.6047,1.6072,1.6096,1.5755,1.5422,1.5173,1.5391,1.5321,1.4789,1.3731,1.2234,1.0784,0.9303,0.749,0.6993,0.606,0.5105,0.4512,0.4342,0.4078,0.3633,0.3276,0.3008,0.3008,0.3008,0.2964,0.2919,0.2919,0.3053,0.3008,0.2964,0.2919,0.2919,0.2919,0.2919,0.2964,0.3231,0.3814,0.5065,0.6091,0.5912,0.685,0.8542,0.9655,1.01,1.0816,1.1799,1.1644,1.048,1.0963,1.1908,1.1282,1.0245,1.1849,1.3397,1.3397,1.3397,1.3397,1.3355,1.3065,1.2685,0.5696,0.5876,0.7699,0.8409,0.8453,1.0407,1.2225,1.3369,1.3897,1.4973,1.5983,1.616,1.6031,1.6007,1.6007,1.6007,1.6007,1.6007,1.6007,1.6007,1.6007,1.6007,1.6007,1.6007,1.6007,1.6007,1.6007,1.6007,1.6007,1.6007,1.6007,1.6007,1.6007,1.6007,1.6007,1.6007,1.6007,1.6007,1.6007,1.6007,1.6007,1.6007,1.6007,1.6007,1.6007,1.6007,1.6007,1.6007,1.6007,1.6007,1.6007,1.6007,1.6007,1.6039,1.6096,1.5753,1.5774,1.5123,1.4217,1.3999,1.383,1.3396,1.2429,1.1031,0.9663,0.8455,0.6993,0.569,0.529,0.4822,0.4297,0.3947,0.3633,0.3456,0.3276,0.3098,0.2964,0.2919,0.2919,0.2919,0.2919,0.2919,0.2919,0.2919,0.2919,0.2919,0.2919,0.2919,0.2919,0.2919,0.2919,0.3456,0.4617,0.493,0.3949,0.5065,0.6895,0.7427,0.7695,0.8409,0.9255,0.8748,0.9042,0.8801,0.9458,0.8822,0.8756,1.034,1.1784,1.2919,1.3148,1.2187,1.1724,1.135,1.1059,0.7476,0.7743,1.0806,1.0762,0.8854,1.1871,1.3603,1.439,1.5447,1.6101,1.6602,1.6177,1.6007,1.6007,1.6007,1.6007,1.6007,1.6007,1.6007,1.6007,1.6007,1.6007,1.6007,1.6007,1.6007,1.6007,1.6007,1.6007,1.6007,1.6007,1.6007,1.6007,1.6007,1.6007,1.6007,1.6007,1.6007,1.6007,1.6007,1.6007,1.6007,1.6007,1.6007,1.6007,1.6007,1.6007,1.6007,1.6007,1.6007,1.6007,1.6007,1.5933,1.5841,1.5938,1.5484,1.4764,1.4668,1.381,1.2779,1.2803,1.3205,1.1842,1.045,0.8856,0.7754,0.6833,0.5742,0.4733,0.4116,0.3902,0.3814,0.3456,0.3143,0.3098,0.3053,0.2919,0.2919,0.2919,0.2919,0.2919,0.2919,0.2919,0.2919,0.2919,0.2919,0.2919,0.2919,0.2919,0.2919,0.2919,0.2919,0.2919,0.3949,0.4216,0.3323,0.4216,0.5333,0.5423,0.5512,0.6404,0.7383,0.8498,0.8562,0.7931,0.727,0.7193,0.7718,0.8909,0.9936,1.067,1.0518,0.9805,0.9555,0.9638,0.93,0.8587,0.9077,1.2712,1.2756,1.0895,1.3779,1.5154,1.5374,1.6481,1.6909,1.6602,1.6177,1.6007,1.6007,1.6007,1.6007,1.6007,1.6007,1.6007,1.6007,1.6007,1.6007,1.6007,1.6007,1.6007,1.6007,1.6007,1.6007,1.6007,1.6007,1.6007,1.6007,1.6007,1.6007,1.6007,1.6007,1.6007,1.6007,1.6007,1.6007,1.6007,1.6007,1.6007,1.6007,1.6007,1.6007,1.6007,1.6007,1.6007,1.6031,1.5965,1.5749,1.5513,1.5173,1.4478,1.353,1.2711,1.2137,1.1286,1.1161,1.1259,0.9184,0.8144,0.7201,0.6522,0.5465,0.4523,0.4169,0.3678,0.3411,0.3411,0.3143,0.2964,0.3008,0.2964,0.2919,0.2919,0.2919,0.2919,0.2919,0.2919,0.2919,0.2919,0.2919,0.2919,0.2919,0.2919,0.2919,0.2919,0.2919,0.2919,0.2919,0.3143,0.3143,0.2964,0.368,0.4261,0.4216,0.4395,0.493,0.5912,0.6936,0.6981,0.5664,0.5275,0.5717,0.5963,0.6234,0.7138,0.8148,0.8098,0.8215,0.8257,0.8298,0.7547,0.8765,0.9077,1.2845,1.4265,1.4177,1.6181,1.6936,1.6701,1.6932,1.6885,1.6552,1.6169,1.6007,1.6007,1.6007,1.6007,1.6007,1.6007,1.6007,1.6007,1.6007,1.6007,1.6007,1.6007,1.6007,1.6007,1.6007,1.6007,1.6007,1.6007,1.6007,1.6007,1.6007,1.6007,1.6007,1.6007,1.6007,1.6007,1.6007,1.6007,1.6007,1.6007,1.6007,1.6007,1.6007,1.6007,1.6007,1.6007,1.6015,1.6064,1.5779,1.52,1.4196,1.3863,1.2914,1.1416,1.1232,1.0386,0.8878,0.8793,0.7766,0.6471,0.5981,0.5502,0.4662,0.3992,0.3723,0.3635,0.3233,0.3008,0.2964,0.2919,0.2919,0.2919,0.2919,0.2919,0.2919,0.2919,0.2919,0.2919,0.2919,0.2919,0.2919,0.2919,0.2919,0.2919,0.2919,0.2919,0.2919,0.2919,0.2919,0.2919,0.2919,0.2919,0.2919,0.2919,0.3143,0.3053,0.3366,0.3992,0.4037,0.4395,0.4035,0.3228,0.357,0.4294,0.3684,0.3082,0.4584,0.6093,0.6933,0.7174,0.717,0.6752,0.5873,1.2402,1.2623,1.511,1.6174,1.6261,1.6797,1.7112,1.7071,1.6877,1.669,1.6527,1.6161,1.6007,1.6007,1.6007,1.6007,1.6007,1.6007,1.6007,1.6007,1.6007,1.6007,1.6007,1.6007,1.6007,1.6007,1.6007,1.6007,1.6007,1.6007,1.6007,1.6007,1.6007,1.6007,1.6007,1.6007,1.6007,1.6007,1.6007,1.6007,1.6007,1.6007,1.6007,1.6007,1.6007,1.6007,1.5966,1.5925,1.5816,1.568,1.5287,1.4041,1.3147,1.2767,1.1166,0.979,0.9286,0.8417,0.6892,0.6177,0.5957,0.5199,0.4888,0.4529,0.3947,0.3723,0.3456,0.3231,0.3053,0.2919,0.2919,0.2919,0.2919,0.2919,0.2919,0.2919,0.2919,0.2919,0.2919,0.2919,0.2919,0.2919,0.2919,0.2919,0.2919,0.2919,0.2919,0.2919,0.2919,0.2919,0.2919,0.2919,0.2919,0.2919,0.2919,0.2919,0.2919,0.2964,0.3008,0.3188,0.3053,0.2919,0.2919,0.3052,0.2952,0.2852,0.2823,0.2837,0.315,0.4099,0.5049,0.5306,0.4912,0.4495,0.3866,1.4309,1.453,1.6313,1.7112,1.7112,1.7112,1.7112,1.7055,1.6803,1.6641,1.6519,1.6267,1.6056,1.6023,1.6007,1.6007,1.6007,1.6007,1.6007,1.6007,1.6007,1.6007,1.6007,1.6007,1.6007,1.6007,1.6007,1.6007,1.6007,1.6007,1.6007,1.6007,1.6007,1.6007,1.6007,1.6007,1.6007,1.6007,1.6007,1.6007,1.6007,1.6007,1.6007,1.6007,1.6007,1.6007,1.5858,1.5567,1.518,1.4776,1.3865,1.2454,1.1793,1.0839,0.9286,0.8083,0.7126,0.6493,0.5512,0.4933,0.4843,0.4485,0.4529,0.4126,0.3545,0.3321,0.3186,0.3008,0.2919,0.2919,0.2919,0.2919,0.2919,0.2919,0.2919,0.2919,0.2919,0.2919,0.2919,0.2919,0.2919,0.2919,0.2919,0.2919,0.2919,0.2919,0.2919,0.2919,0.2919,0.2919,0.2919,0.2919,0.2919,0.2919,0.2919,0.2919,0.2919,0.2919,0.2919,0.2919,0.2919,0.2919,0.2919,0.2919,0.2868,0.2857,0.2834,0.2938,0.309,0.3067,0.3303,0.3234,0.2699,0.2694,0.2697,1.4397,1.4669,1.6357,1.7112,1.7112,1.7112,1.7112,1.7096,1.6874,1.6747,1.656,1.6373,1.6194,1.6023,1.6007,1.6007,1.6007,1.6007,1.6007,1.6007,1.6007,1.6007,1.6007,1.6007,1.6007,1.6007,1.6007,1.6007,1.6007,1.6007,1.6007,1.6007,1.6007,1.6007,1.6007,1.6007,1.6007,1.6007,1.6007,1.6007,1.6007,1.6007,1.6007,1.5933,1.5701,1.5552,1.5093,1.4327,1.3649,1.2951,1.1974,1.0291,0.9145,0.8498,0.7287,0.6228,0.5467,0.5199,0.4798,0.4395,0.4083,0.3769,0.3633,0.3321,0.3143,0.3053,0.3008,0.2964,0.2919,0.2919,0.2919,0.2919,0.2919,0.2919,0.2919,0.2919,0.2919,0.2919,0.2919,0.2919,0.2919,0.2919,0.2919,0.2919,0.2919,0.2919,0.2919,0.2919,0.2919,0.2919,0.2919,0.2919,0.2919,0.2919,0.2919,0.2919,0.2919,0.2919,0.2919,0.2919,0.2919,0.2919,0.2919,0.2919,0.2919,0.2864,0.2848,0.2833,0.2862,0.2799,0.2778,0.2748,0.2721,0.2707,0.2705,1.6269,1.6357,1.6884,1.7112,1.7112,1.7112,1.7112,1.7044,1.6882,1.6755,1.661,1.6389,1.6219,1.6007,1.6007,1.6007,1.6007,1.6007,1.6007,1.6007,1.6007,1.6007,1.6007,1.6007,1.6007,1.6007,1.6007,1.6007,1.6007,1.6007,1.6007,1.6007,1.6007,1.6007,1.6007,1.6007,1.6015,1.6015,1.6015,1.6007,1.6015,1.6015,1.5941,1.5709,1.484,1.457,1.386,1.2531,1.1849,1.1545,1.0034,0.8696,0.8732,0.7331,0.5918,0.5425,0.5022,0.4753,0.4126,0.3902,0.3635,0.3278,0.3143,0.3053,0.2919,0.2919,0.2919,0.2919,0.2919,0.2919,0.2919,0.2919,0.2919,0.2919,0.2919,0.2919,0.2919,0.2919,0.2919,0.2919,0.2919,0.2919,0.2919,0.2919,0.2919,0.2919,0.2919,0.2919,0.2919,0.2919,0.2919,0.2919,0.2919,0.2919,0.2919,0.2919,0.2919,0.2919,0.2919,0.2919,0.2919,0.2919,0.2919,0.2919,0.2919,0.2917,0.2912,0.2853,0.2841,0.2829,0.281,0.2732,0.2704,0.2692,0.2675,1.7177,1.7112,1.7112,1.7112,1.7112,1.7112,1.7112,1.7088,1.6955,1.682,1.6576,1.6462,1.6276,1.6023,1.6007,1.6007,1.6007,1.6007,1.6007,1.6007,1.6007,1.6007,1.6007,1.6007,1.6007,1.6007,1.6007,1.6007,1.6007,1.6007,1.6007,1.6007,1.6007,1.6007,1.6023,1.6072,1.6112,1.6088,1.6056,1.6015,1.5949,1.5906,1.5765,1.4881,1.3817,1.3245,1.2295,1.0778,1.0097,0.982,0.8213,0.7337,0.7338,0.6231,0.5515,0.5112,0.4753,0.435,0.3812,0.3456,0.3186,0.3008,0.2919,0.2919,0.2919,0.2919,0.2919,0.2919,0.2919,0.2919,0.2919,0.2919,0.2919,0.2919,0.2919,0.2919,0.2919,0.2919,0.2919,0.2919,0.2919,0.2919,0.2919,0.2919,0.2919,0.2919,0.2919,0.2919,0.2919,0.2919,0.2919,0.2919,0.2919,0.2919,0.2919,0.2919,0.2919,0.2919,0.2919,0.2919,0.2919,0.2919,0.2919,0.2919,0.2919,0.2917,0.2916,0.2916,0.2863,0.2851,0.284,0.2818,0.2789,0.2767,0.2747,1.7274,1.7112,1.7112,1.7112,1.7112,1.7112,1.7112,1.7112,1.7052,1.6909,1.6625,1.6576,1.6365,1.6056,1.6007,1.6007,1.6007,1.6007,1.6007,1.6007,1.6007,1.6007,1.6007,1.6007,1.6007,1.6007,1.6007,1.6007,1.6007,1.6007,1.6015,1.6015,1.6047,1.608,1.6153,1.6276,1.6115,1.5462,1.5477,1.5464,1.5596,1.561,1.5226,1.3599,1.2843,1.2294,1.0686,0.9318,0.8073,0.753,0.6941,0.5957,0.5783,0.5694,0.5336,0.4888,0.4395,0.3992,0.3545,0.3188,0.3008,0.2919,0.2919,0.2919,0.2919,0.2919,0.2919,0.2919,0.2919,0.2919,0.2919,0.2919,0.2919,0.2919,0.2919,0.2919,0.2919,0.2919,0.2919,0.2919,0.2919,0.2919,0.2919,0.2919,0.2919,0.2919,0.2919,0.2919,0.2919,0.2919,0.2919,0.2919,0.2919,0.2919,0.2919,0.2919,0.2919,0.2919,0.2919,0.2919,0.2919,0.2919,0.2919,0.2919,0.2919,0.2919,0.2919,0.2919,0.2919,0.287,0.286,0.2856,0.2836,0.2807,0.278,1.7283,1.7112,1.7112,1.7112,1.7112,1.7112,1.7112,1.7112,1.7112,1.6909,1.6625,1.656,1.6381,1.6039,1.6007,1.6007,1.6007,1.6007,1.6007,1.6007,1.6007,1.6007,1.6007,1.6007,1.6007,1.6007,1.6007,1.6007,1.6007,1.6023,1.608,1.6219,1.6243,1.6284,1.6397,1.6487,1.5994,1.4833,1.4649,1.4309,1.3984,1.3941,1.3471,1.175,1.0702,0.9855,0.8496,0.7401,0.6596,0.6082,0.5999,0.5559,0.5201,0.5157,0.4709,0.4126,0.3902,0.359,0.3276,0.3008,0.2919,0.2919,0.2919,0.2919,0.2919,0.2919,0.2919,0.2919,0.2919,0.2919,0.2919,0.2919,0.2919,0.2919,0.2919,0.2919,0.2919,0.2919,0.2919,0.2919,0.2919,0.2919,0.2919,0.2919,0.2919,0.2919,0.2919,0.2919,0.2919,0.2919,0.2919,0.2919,0.2919,0.2919,0.2919,0.2919,0.2919,0.2919,0.2919,0.2919,0.2919,0.2919,0.2919,0.2919,0.2919,0.2919,0.2919,0.2919,0.2919,0.2919,0.2919,0.2866,0.2866,0.2845,0.2816,1.7348,1.712,1.7112,1.7112,1.7112,1.7112,1.7112,1.7112,1.7112,1.6958,1.6706,1.66,1.6381,1.6039,1.6007,1.6007,1.6007,1.6007,1.6007,1.6007,1.6007,1.6007,1.6007,1.6007,1.6007,1.6007,1.6007,1.6007,1.6023,1.6146,1.6235,1.6324,1.6373,1.6436,1.66,1.647,1.5661,1.3969,1.375,1.2954,1.2117,1.1877,1.1502,0.9884,0.8978,0.8064,0.7027,0.6082,0.5775,0.538,0.5157,0.498,0.4711,0.4664,0.4307,0.3857,0.3588,0.3366,0.3053,0.2919,0.2919,0.2919,0.2919,0.2919,0.2919,0.2919,0.2919,0.2919,0.2919,0.2919,0.2919,0.2919,0.2919,0.2919,0.2919,0.2919,0.2919,0.2919,0.2919,0.2919,0.2919,0.2919,0.2919,0.2919,0.2919,0.2919,0.2919,0.2919,0.2919,0.2919,0.2919,0.2919,0.2919,0.2919,0.2919,0.2919,0.2919,0.2919,0.2919,0.2919,0.2919,0.2919,0.2919,0.2919,0.2919,0.2919,0.2919,0.2919,0.2919,0.2919,0.2919,0.2917,0.2919,0.2919,0.2851,1.7384,1.7128,1.7112,1.7112,1.7112,1.7112,1.7112,1.7112,1.7112,1.6971,1.6793,1.669,1.6405,1.6137,1.6007,1.6007,1.6007,1.6007,1.6007,1.6007,1.6007,1.6007,1.6007,1.6007,1.6007,1.6031,1.6047,1.6056,1.6072,1.6243,1.6365,1.6397,1.6461,1.6497,1.6425,1.6125,1.5177,1.3179,1.212,1.1129,1.0406,0.9837,0.9365,0.8722,0.7965,0.7249,0.6141,0.5559,0.5336,0.5022,0.4621,0.4442,0.4263,0.4171,0.3904,0.3544,0.3411,0.3186,0.2964,0.2919,0.2919,0.2919,0.2919,0.2919,0.2919,0.2919,0.2919,0.2919,0.2919,0.2919,0.2919,0.2919,0.2919,0.2919,0.2919,0.2919,0.2919,0.2919,0.2919,0.2919,0.2919,0.2919,0.2919,0.2919,0.2919,0.2919,0.2919,0.2919,0.2919,0.2919,0.2919,0.2919,0.2919,0.2919,0.2919,0.2919,0.2919,0.2919,0.2919,0.2919,0.2919,0.2919,0.2919,0.2919,0.2919,0.2919,0.2919,0.2919,0.2919,0.2919,0.2919,0.2919,0.2919,0.2919,0.2919,1.7392,1.7112,1.7112,1.7112,1.7112,1.7112,1.7112,1.7112,1.7112,1.6971,1.6841,1.6768,1.6558,1.6251,1.6056,1.6007,1.6007,1.6007,1.6007,1.6007,1.6007,1.6007,1.6015,1.6039,1.6015,1.6064,1.6186,1.6251,1.6284,1.6438,1.66,1.6671,1.6704,1.616,1.4871,1.4481,1.3588,1.1566,1.0062,0.9032,0.7922,0.7547,0.7636,0.7019,0.6222,0.5783,0.5291,0.5157,0.4843,0.4532,0.4307,0.4038,0.3859,0.3725,0.35,0.3276,0.3143,0.3053,0.2919,0.2919,0.2919,0.2919,0.2919,0.2919,0.2919,0.2919,0.2919,0.2919,0.2919,0.2919,0.2919,0.2919,0.2919,0.2919,0.2919,0.2919,0.2919,0.2919,0.2919,0.2919,0.2919,0.2919,0.2919,0.2919,0.2919,0.2919,0.2919,0.2919,0.2919,0.2919,0.2919,0.2919,0.2919,0.2919,0.2919,0.2919,0.2919,0.2919,0.2919,0.2919,0.2919,0.2919,0.2919,0.2919,0.2919,0.2919,0.2919,0.2919,0.2919,0.2919,0.2919,0.2919,0.2919,0.2919,0.2919]},{"header":{"parameterUnit":"m.s-1","parameterCategory":1,"la1":31.0,"la2":29.5877,"lo1":-88.7671,"lo2":-86.6584,"dy":0.0162,"dx":0.0185,"nx":115,"ny":88,"refTime":"2024-02-26T06:00:00:Z","depth":0,"parameterNumber":3,"parameterNumberName":"V-component_of_WINDS"},"data":[0.0,0.0,0.0,0.0,0.0,0.0,0.0,0.0,0.0,0.0,0.0,0.0,0.0,0.0,0.0,0.0,0.0,0.0,0.0,0.0,0.0,0.0,0.0,0.0,0.0,0.0,0.0,0.0,0.0,0.0,0.0,0.0,0.0,0.0,0.0,0.0,0.0,0.0,0.0,0.0,0.0,0.0,0.0,0.0,0.0,0.0,0.0,0.0,0.0,0.0,0.0,0.0,0.0,0.0,0.0,0.0,0.0,0.0,0.0,0.0,0.0,0.0,0.0,0.0,0.0,0.0,0.0,0.0,0.0,0.0,0.0,0.0,0.0,0.0,0.0,0.0,0.0,0.0,0.0,0.0,0.0,0.0,0.0,0.0,0.0,0.0,0.0,0.0,0.0,0.0,0.0,0.0,0.0,0.0,0.0,0.0,0.0,0.0,0.0,0.0,0.0,0.0,0.0,0.0,0.0,0.0,0.0,0.0,0.0,0.0,0.0,0.0,0.0,0.0,0.0,0.0,0.0,0.0,0.0,0.0,0.0,0.0,0.0,0.0,0.0,0.0,0.0,0.0,0.0,0.0,0.0,0.0,0.0,0.0,0.0,0.0,0.0,0.0,0.0,0.0,0.0,0.0,0.0,0.0,0.0,0.0,0.0,0.0,0.0,0.0,0.0,0.0,0.0,0.0,0.0,0.0,0.0,0.0,0.0,0.0,0.0,0.0,0.0,0.0,0.0,0.0,0.0,0.0,0.0,0.0,0.0,0.0,0.0,0.0,0.0,0.0,0.0,0.0,0.0,0.0,0.0,0.0,0.0,0.0,0.0,0.0,0.0,0.0,0.0,0.0,0.0,0.0,0.0,0.0,0.0,0.0,0.0,0.0,0.0,0.0,0.0,0.0,0.0,0.0,0.0,0.0,0.0,0.0,0.0,0.0,0.0,0.0,0.0,0.0,0.0,0.0,0.0,0.0,0.0,0.0,0.0,0.0,0.0,0.0,0.0,0.0,0.0,0.0,0.0,0.0,0.0,0.0,0.0,0.0,0.0,0.0,0.0,0.0,0.0,0.0,0.0,0.0,0.0,0.0,0.0,0.0,0.0,0.0,0.0,0.0,0.0,0.0,0.0,0.0,0.0,0.0,0.0,0.0,0.0,0.0,0.0,0.0,0.0,0.0,0.0,0.0,0.0,0.0,0.0,0.0,0.0,0.0,0.0,0.0,0.0,0.0,0.0,0.0,0.0,0.0,0.0,0.0,0.0,0.0,0.0,0.0,0.0,0.0,0.0,0.0,0.0,0.0,0.0,0.0,0.0,0.0,0.0,0.0,0.0,0.0,0.0,0.0,0.0,0.0,0.0,0.0,0.0,0.0,0.0,0.0,0.0,0.0,0.0,0.0,0.0,0.0,0.0,0.0,0.0,0.0,0.0,0.0,0.0,0.0,0.0,0.0,0.0,0.0,0.0,0.0,0.0,0.0,0.0,0.0,0.0,0.0,0.0,0.0,0.0,0.0,0.0,0.0,0.0,0.0,0.0,0.0,0.0,0.0,0.0,0.0,0.0,0.0,0.0,0.0,0.0,0.0,0.0,0.0,0.0,0.0,0.0,0.0,0.0,0.0,0.0,0.0,0.0,0.0,0.0,0.0,0.0,0.0,0.0,0.0,0.0,0.0,0.0,0.0,0.0,0.0,0.0,0.0,0.0,0.0,0.0,0.0,0.0,0.0,0.0,0.0,0.0,0.0,0.0,0.0,0.0,0.0,0.0,0.0,0.0,0.0,0.0,0.0,0.0,0.0,0.0,0.0,0.0,0.0,0.0,0.0,0.0,0.0,0.0,0.0,0.0,0.0,0.0,0.0,0.0,0.0,0.0,0.0,0.0,0.0,0.0,0.0,0.0,0.0,0.0,0.0,0.0,0.0,0.0,0.0,0.0,0.0,0.0,0.0,0.0,0.0,0.0,0.0,0.0,0.0,0.0,0.0,0.0,0.0,0.0,0.0,0.0,0.0,0.0,0.0,0.0,0.0,0.0,0.0,0.0,0.0,0.0,0.0,0.0,0.0,0.0,0.0,0.0,0.0,0.0,0.0,0.0,0.0,0.0,0.0,0.0,0.0,0.0,0.0,0.0,0.0,0.0,0.0,0.0,0.0,0.0,0.0,0.0,0.0,0.0,0.0,0.0,0.0,0.0,0.0,0.0,0.0,0.0,0.0,0.0,0.0,0.0,0.0,0.0,0.0,0.0,0.0,0.0,0.0,0.0,0.0,0.0,0.0,0.0,0.0,0.0,0.0,0.0,0.0,0.0,0.0,0.0,0.0,0.0,0.0,0.0,0.0,0.0,0.0,0.0,0.0,0.0,0.0,0.0,0.0,0.0,0.0,0.0,0.0,0.0,0.0,0.0,0.0,0.0,0.0,0.0,0.0,0.0,0.0,0.0,0.0,0.0,0.0,0.0,0.0,0.0,0.0,0.0,0.0,0.0,0.0,0.0,0.0,0.0,0.0,0.0,0.0,0.0,0.0,0.0,0.0,0.0,0.0,0.0,0.0,0.0,0.0,0.0,0.0,0.0,0.0,0.0,0.0,0.0,0.0,0.0,0.0,0.0,0.0,0.0,0.0,0.0,0.0,0.0,0.0,0.0,0.0,0.0,0.0,0.0,0.0,0.0,0.0,0.0,0.0,0.0,0.0,0.0,0.0,0.0,0.0,0.0,0.0,0.0,0.0,0.0,0.0,0.0,0.0,0.0,0.0,0.0,0.0,0.0,0.0,0.0,0.0,0.0,0.0,0.0,0.0,0.0,0.0,0.0,0.0,0.0,0.0,0.0,0.0,0.0,0.0,0.0,0.0,0.0,0.0,0.0,0.0,0.0,0.0,0.0,0.0,0.0,0.0,0.0,0.0,0.0,0.0,0.0,0.0,0.0,0.0,0.0,0.0,0.0,0.0,0.0,0.0,0.0,0.0,0.0,0.0,0.0,0.0,0.0,0.0,0.0,0.0,0.0,0.0,0.0,0.0,0.0,0.0,0.0,0.0,0.0,0.0,0.0,0.0,0.0,0.0,0.0,0.0,0.0,0.0,0.0,0.0,0.0,0.0,0.0,0.0,0.0,0.0,0.0,0.0,0.0,0.0,0.0,0.0,0.0,0.0,0.0,0.0,0.0,0.0,0.0,0.0,0.0,0.0,0.0,0.0,0.0,0.0,0.0,0.0,0.0,0.0,0.0,0.0,0.0,0.0,0.0,0.0,0.0,0.0,0.0,0.0,0.0,0.0,0.0,0.0,0.0,0.0,0.0,0.0,0.0,0.0,0.0,0.0,0.0,0.0,0.0,0.0,0.0,0.0,0.0,0.0,0.0,0.0,0.0,0.0,0.0,0.0,0.0,0.0,0.0,0.0,0.0,0.0,0.0,0.0,0.0,0.0,0.0,0.0,0.0,0.0,0.0,0.0,0.0,0.0,0.0,0.0,0.0,0.0,0.0,0.0,0.0,0.0,0.0,0.0,0.0,0.0,0.0,0.0,0.0,0.0,0.0,0.0,0.0,0.0,0.0,0.0,0.0,0.0,0.0,0.0,0.0,0.0,0.0,0.0,0.0,0.0,0.0,0.0,0.0,0.0,0.0,0.0,0.0,0.0,0.0,0.0,0.0,0.0,0.0,0.0,0.0,0.0,0.0,0.0,0.0,0.0,0.0,0.0,0.0,0.0,0.0,0.0,0.0,0.0,0.0,0.0,0.0,0.0,0.0,0.0,0.0,0.0,0.0,0.0,0.0,0.0,0.0,0.0,0.0,0.0,0.0,0.0,0.0,0.0,0.0,0.0,0.0,0.0,0.0,0.0,0.0,0.0,0.0,0.0,0.0,0.0,0.0,0.0,0.0,0.0,0.0,0.0,0.0,0.0,0.0,0.0,0.0,0.0,0.0,0.0,0.0,0.0,0.0,0.0,0.0,0.0,0.0,0.0,0.0,0.0,0.0,0.0,0.0,0.0,0.0,0.0,0.0,0.0,0.0,0.0,0.0,0.0,0.0,0.0,0.0,0.0,0.0,0.0,0.0,0.0,0.0,0.0,0.0,0.0,0.0,0.0,0.0,0.0,0.0,0.0,0.0,0.0,0.0,0.0,0.0,0.0,0.0,0.0,0.0,0.0,0.0,0.0,0.0,0.0,0.0,0.0,0.0,0.0,0.0,0.0,0.0,0.0,0.0,0.0,0.0,0.0,0.0,0.0,0.0,0.0,0.0,0.0,0.0,0.0,0.0,0.0,0.0,0.0,0.0,0.0,4.8891,0.0,0.0,0.0,0.0,0.0,0.0,0.0,0.0,0.0,0.0,0.0,0.0,0.0,0.0,0.0,0.0,0.0,0.0,0.0,0.0,0.0,0.0,0.0,0.0,0.0,0.0,0.0,0.0,0.0,0.0,0.0,0.0,0.0,0.0,0.0,0.0,0.0,0.0,0.0,0.0,0.0,0.0,0.0,0.0,0.0,0.0,0.0,0.0,0.0,0.0,0.0,0.0,0.0,0.0,0.0,0.0,0.0,0.0,0.0,0.0,0.0,0.0,0.0,0.0,0.0,0.0,0.0,0.0,0.0,0.0,0.0,0.0,0.0,0.0,0.0,0.0,0.0,0.0,0.0,0.0,0.0,0.0,0.0,0.0,0.0,0.0,0.0,0.0,0.0,0.0,0.0,0.0,0.0,0.0,0.0,0.0,0.0,0.0,0.0,0.0,0.0,0.0,0.0,0.0,0.0,0.0,0.0,0.0,0.0,0.0,4.9157,4.8595,4.8724,4.8978,4.9391,0.0,0.0,0.0,0.0,0.0,0.0,0.0,0.0,0.0,0.0,0.0,0.0,0.0,0.0,0.0,0.0,0.0,0.0,0.0,0.0,0.0,0.0,0.0,0.0,0.0,0.0,0.0,0.0,0.0,0.0,0.0,0.0,0.0,0.0,0.0,0.0,0.0,0.0,0.0,0.0,0.0,0.0,0.0,0.0,0.0,0.0,0.0,0.0,0.0,0.0,0.0,0.0,0.0,0.0,0.0,0.0,0.0,0.0,0.0,0.0,0.0,0.0,0.0,0.0,0.0,0.0,0.0,0.0,0.0,0.0,0.0,0.0,0.0,0.0,0.0,0.0,0.0,0.0,0.0,0.0,0.0,0.0,0.0,0.0,0.0,0.0,0.0,0.0,0.0,0.0,0.0,0.0,0.0,0.0,0.0,0.0,0.0,0.0,0.0,0.0,0.0,0.0,0.0,0.0,0.0,0.0,0.0,0.0,0.0,0.0,0.0,0.0,4.9198,4.9182,4.9514,0.0,0.0,0.0,0.0,0.0,0.0,0.0,0.0,0.0,0.0,0.0,0.0,0.0,0.0,0.0,0.0,0.0,0.0,0.0,0.0,0.0,0.0,0.0,0.0,0.0,0.0,0.0,0.0,0.0,0.0,0.0,0.0,0.0,0.0,0.0,0.0,0.0,0.0,0.0,0.0,0.0,0.0,0.0,0.0,0.0,0.0,0.0,0.0,0.0,0.0,0.0,0.0,0.0,0.0,0.0,0.0,0.0,0.0,0.0,0.0,0.0,0.0,0.0,0.0,0.0,0.0,0.0,0.0,0.0,0.0,0.0,0.0,0.0,0.0,0.0,0.0,0.0,0.0,0.0,0.0,0.0,0.0,0.0,0.0,0.0,0.0,0.0,0.0,0.0,0.0,0.0,0.0,0.0,0.0,0.0,0.0,0.0,0.0,0.0,0.0,0.0,0.0,0.0,0.0,0.0,0.0,0.0,0.0,0.0,0.0,4.9852,4.9845,4.9817,0.0,4.9852,0.0,0.0,0.0,0.0,0.0,0.0,0.0,0.0,0.0,0.0,0.0,0.0,0.0,0.0,0.0,0.0,0.0,0.0,0.0,0.0,0.0,0.0,0.0,0.0,0.0,0.0,0.0,0.0,0.0,0.0,0.0,0.0,0.0,0.0,0.0,0.0,0.0,0.0,0.0,0.0,0.0,0.0,0.0,0.0,0.0,0.0,0.0,0.0,0.0,0.0,0.0,0.0,0.0,0.0,0.0,0.0,0.0,0.0,0.0,0.0,0.0,0.0,0.0,0.0,0.0,0.0,0.0,0.0,0.0,0.0,0.0,0.0,0.0,0.0,0.0,0.0,0.0,0.0,0.0,0.0,0.0,0.0,0.0,0.0,0.0,0.0,0.0,0.0,0.0,0.0,0.0,0.0,0.0,0.0,0.0,0.0,0.0,0.0,0.0,0.0,0.0,0.0,0.0,0.0,0.0,0.0,0.0,0.0,0.0,0.0,4.9893,4.9893,4.9893,4.9893,0.0,0.0,0.0,0.0,0.0,0.0,0.0,0.0,0.0,0.0,0.0,0.0,0.0,0.0,0.0,0.0,0.0,0.0,0.0,0.0,0.0,0.0,0.0,0.0,0.0,0.0,0.0,0.0,0.0,0.0,0.0,0.0,0.0,0.0,0.0,0.0,0.0,0.0,0.0,0.0,0.0,0.0,0.0,0.0,0.0,0.0,0.0,0.0,0.0,0.0,0.0,0.0,0.0,0.0,0.0,0.0,0.0,0.0,0.0,0.0,0.0,0.0,0.0,0.0,0.0,0.0,0.0,0.0,0.0,0.0,0.0,0.0,0.0,0.0,0.0,0.0,0.0,0.0,0.0,0.0,0.0,0.0,0.0,0.0,0.0,0.0,0.0,0.0,0.0,0.0,0.0,0.0,0.0,0.0,0.0,0.0,0.0,0.0,0.0,0.0,0.0,0.0,0.0,0.0,0.0,0.0,0.0,0.0,0.0,0.0,4.9893,4.9893,4.9893,4.9893,4.9893,4.9893,0.0,0.0,0.0,0.0,0.0,0.0,0.0,0.0,0.0,0.0,0.0,0.0,0.0,0.0,0.0,0.0,0.0,0.0,0.0,0.0,0.0,0.0,0.0,0.0,0.0,0.0,0.0,0.0,0.0,0.0,0.0,0.0,0.0,0.0,0.0,0.0,0.0,0.0,0.0,0.0,0.0,0.0,0.0,0.0,0.0,0.0,0.0,0.0,0.0,0.0,0.0,0.0,0.0,0.0,0.0,0.0,0.0,0.0,0.0,0.0,0.0,0.0,0.0,0.0,0.0,0.0,0.0,0.0,0.0,0.0,0.0,0.0,0.0,0.0,0.0,0.0,0.0,0.0,0.0,0.0,0.0,0.0,0.0,0.0,0.0,0.0,0.0,0.0,0.0,0.0,0.0,0.0,0.0,0.0,0.0,0.0,0.0,0.0,0.0,0.0,0.0,0.0,0.0,0.0,0.0,0.0,0.0,0.0,4.9893,4.9893,4.9893,4.9893,4.9893,4.9893,0.0,0.0,0.0,0.0,0.0,0.0,0.0,0.0,0.0,0.0,0.0,0.0,0.0,0.0,0.0,0.0,0.0,0.0,0.0,0.0,0.0,0.0,0.0,0.0,0.0,0.0,0.0,0.0,0.0,0.0,0.0,0.0,0.0,0.0,0.0,0.0,0.0,0.0,0.0,0.0,0.0,0.0,0.0,0.0,0.0,0.0,0.0,0.0,0.0,0.0,0.0,0.0,0.0,0.0,0.0,0.0,0.0,0.0,0.0,0.0,0.0,0.0,0.0,0.0,0.0,0.0,0.0,0.0,0.0,0.0,0.0,0.0,0.0,0.0,0.0,0.0,0.0,0.0,0.0,0.0,0.0,0.0,0.0,0.0,0.0,0.0,0.0,0.0,0.0,0.0,0.0,0.0,0.0,0.0,0.0,0.0,0.0,0.0,0.0,0.0,0.0,0.0,0.0,0.0,0.0,0.0,0.0,0.0,0.0,4.9893,4.9893,4.9893,4.9893,4.9893,4.9893,0.0,0.0,0.0,0.0,0.0,0.0,0.0,0.0,0.0,0.0,0.0,0.0,0.0,0.0,0.0,0.0,0.0,0.0,0.0,0.0,0.0,0.0,0.0,0.0,0.0,0.0,0.0,0.0,0.0,0.0,0.0,0.0,0.0,0.0,0.0,0.0,0.0,0.0,0.0,0.0,0.0,0.0,0.0,0.0,0.0,0.0,0.0,0.0,0.0,0.0,0.0,0.0,0.0,0.0,0.0,0.0,0.0,0.0,0.0,0.0,0.0,0.0,0.0,0.0,0.0,0.0,0.0,0.0,0.0,0.0,0.0,0.0,0.0,0.0,0.0,0.0,0.0,0.0,0.0,0.0,0.0,0.0,0.0,0.0,0.0,0.0,0.0,0.0,0.0,0.0,0.0,0.0,0.0,0.0,0.0,0.0,0.0,0.0,0.0,0.0,0.0,0.0,0.0,0.0,0.0,0.0,0.0,0.0,0.0,4.9893,0.0,4.9893,4.9893,4.9893,4.9893,0.0,0.0,0.0,0.0,0.0,0.0,0.0,0.0,0.0,0.0,0.0,0.0,0.0,0.0,0.0,0.0,0.0,0.0,0.0,0.0,0.0,0.0,0.0,0.0,0.0,0.0,0.0,0.0,0.0,0.0,0.0,0.0,0.0,0.0,0.0,0.0,0.0,0.0,0.0,0.0,0.0,0.0,0.0,0.0,0.0,0.0,0.0,0.0,0.0,0.0,0.0,0.0,0.0,0.0,0.0,0.0,0.0,0.0,0.0,0.0,0.0,0.0,0.0,0.0,0.0,0.0,0.0,0.0,0.0,0.0,0.0,0.0,0.0,0.0,0.0,0.0,0.0,0.0,0.0,0.0,0.0,0.0,0.0,0.0,0.0,0.0,0.0,0.0,0.0,0.0,0.0,0.0,0.0,0.0,0.0,0.0,0.0,0.0,0.0,0.0,0.0,0.0,0.0,0.0,0.0,0.0,0.0,0.0,4.9893,4.9893,4.9893,4.9893,4.9893,4.9893,4.9893,0.0,0.0,0.0,0.0,0.0,0.0,0.0,0.0,0.0,0.0,0.0,0.0,0.0,0.0,0.0,0.0,0.0,0.0,0.0,0.0,0.0,0.0,0.0,0.0,0.0,0.0,0.0,0.0,0.0,0.0,0.0,0.0,0.0,0.0,0.0,0.0,0.0,0.0,0.0,0.0,0.0,0.0,0.0,0.0,0.0,0.0,0.0,0.0,0.0,0.0,0.0,0.0,0.0,0.0,0.0,0.0,0.0,0.0,0.0,0.0,0.0,0.0,0.0,0.0,0.0,0.0,0.0,0.0,0.0,0.0,0.0,0.0,0.0,0.0,0.0,0.0,0.0,0.0,0.0,0.0,0.0,0.0,0.0,0.0,0.0,0.0,0.0,0.0,0.0,0.0,0.0,0.0,0.0,0.0,0.0,0.0,0.0,0.0,0.0,0.0,0.0,0.0,0.0,0.0,0.0,0.0,0.0,0.0,0.0,4.9893,4.9893,4.9893,4.9893,4.9933,4.9959,0.0,0.0,0.0,0.0,0.0,0.0,0.0,0.0,0.0,0.0,0.0,0.0,0.0,0.0,0.0,0.0,0.0,0.0,0.0,0.0,0.0,0.0,0.0,0.0,0.0,0.0,0.0,0.0,0.0,0.0,0.0,0.0,0.0,0.0,0.0,0.0,0.0,0.0,0.0,0.0,0.0,0.0,0.0,0.0,0.0,0.0,0.0,0.0,0.0,0.0,0.0,0.0,0.0,0.0,0.0,0.0,0.0,0.0,0.0,0.0,0.0,0.0,0.0,0.0,0.0,0.0,0.0,0.0,0.0,0.0,0.0,0.0,0.0,0.0,0.0,0.0,0.0,0.0,0.0,0.0,0.0,0.0,0.0,0.0,0.0,0.0,0.0,0.0,0.0,0.0,0.0,0.0,0.0,0.0,0.0,0.0,0.0,0.0,0.0,0.0,0.0,0.0,0.0,0.0,0.0,0.0,0.0,0.0,0.0,4.9893,4.9913,4.9926,4.9926,5.003,5.0018,5.0025,0.0,0.0,0.0,0.0,0.0,0.0,0.0,0.0,0.0,0.0,0.0,0.0,0.0,0.0,0.0,0.0,0.0,0.0,0.0,0.0,0.0,0.0,0.0,0.0,0.0,0.0,0.0,0.0,0.0,0.0,0.0,0.0,0.0,0.0,0.0,0.0,0.0,0.0,0.0,0.0,0.0,0.0,0.0,0.0,0.0,0.0,0.0,0.0,0.0,0.0,0.0,0.0,0.0,0.0,0.0,0.0,0.0,0.0,0.0,0.0,0.0,0.0,0.0,0.0,0.0,0.0,0.0,0.0,0.0,0.0,0.0,0.0,0.0,0.0,0.0,0.0,0.0,0.0,0.0,0.0,0.0,0.0,0.0,0.0,0.0,0.0,0.0,0.0,0.0,0.0,0.0,0.0,0.0,0.0,0.0,0.0,0.0,0.0,0.0,0.0,0.0,0.0,0.0,0.0,0.0,0.0,0.0,0.0,4.9899,4.9966,4.9999,4.9986,5.005,5.0127,0.0,0.0,0.0,0.0,0.0,0.0,0.0,0.0,0.0,0.0,0.0,0.0,0.0,0.0,0.0,0.0,0.0,0.0,0.0,0.0,0.0,0.0,0.0,0.0,0.0,0.0,0.0,0.0,0.0,0.0,0.0,0.0,0.0,0.0,0.0,0.0,0.0,0.0,0.0,0.0,0.0,0.0,0.0,0.0,0.0,0.0,0.0,0.0,0.0,0.0,0.0,0.0,0.0,0.0,0.0,0.0,0.0,0.0,0.0,0.0,0.0,0.0,0.0,0.0,0.0,0.0,0.0,0.0,0.0,0.0,0.0,0.0,0.0,0.0,0.0,0.0,0.0,0.0,0.0,0.0,0.0,0.0,0.0,0.0,0.0,0.0,0.0,0.0,0.0,0.0,0.0,0.0,0.0,0.0,0.0,0.0,0.0,0.0,0.0,0.0,0.0,0.0,0.0,0.0,0.0,0.0,0.0,0.0,0.0,5.0076,5.0107,5.0095,4.9999,5.0101,5.0163,0.0,0.0,0.0,0.0,0.0,0.0,0.0,0.0,0.0,0.0,0.0,0.0,0.0,0.0,0.0,0.0,0.0,0.0,0.0,0.0,0.0,0.0,0.0,0.0,0.0,0.0,0.0,0.0,0.0,0.0,0.0,0.0,0.0,0.0,0.0,0.0,0.0,0.0,0.0,0.0,0.0,0.0,0.0,0.0,0.0,0.0,0.0,0.0,0.0,0.0,0.0,0.0,0.0,0.0,0.0,0.0,0.0,0.0,0.0,0.0,0.0,0.0,0.0,0.0,0.0,0.0,0.0,0.0,0.0,0.0,0.0,0.0,0.0,0.0,0.0,0.0,0.0,0.0,0.0,0.0,0.0,0.0,0.0,0.0,0.0,0.0,0.0,0.0,0.0,0.0,0.0,0.0,0.0,0.0,0.0,0.0,0.0,0.0,0.0,0.0,0.0,0.0,0.0,0.0,0.0,0.0,0.0,0.0,5.0812,5.1154,5.1224,5.1218,5.1141,5.09,5.0971,0.0,0.0,0.0,0.0,0.0,0.0,0.0,0.0,0.0,0.0,0.0,0.0,0.0,0.0,0.0,0.0,0.0,0.0,0.0,0.0,0.0,0.0,0.0,0.0,0.0,0.0,0.0,0.0,0.0,0.0,0.0,0.0,0.0,0.0,0.0,0.0,0.0,0.0,0.0,0.0,0.0,0.0,0.0,0.0,0.0,0.0,0.0,0.0,0.0,0.0,0.0,0.0,0.0,0.0,0.0,0.0,0.0,0.0,0.0,0.0,0.0,0.0,0.0,0.0,0.0,0.0,0.0,0.0,0.0,0.0,0.0,0.0,0.0,0.0,0.0,0.0,0.0,0.0,0.0,0.0,0.0,0.0,0.0,0.0,0.0,0.0,0.0,0.0,0.0,0.0,0.0,0.0,0.0,0.0,0.0,0.0,0.0,0.0,0.0,0.0,0.0,0.0,0.0,0.0,0.0,0.0,0.0,0.0,5.1897,5.2582,5.2673,5.2743,5.2825,5.2118,5.2164,0.0,0.0,0.0,0.0,0.0,0.0,0.0,0.0,0.0,0.0,0.0,0.0,0.0,0.0,0.0,0.0,0.0,0.0,0.0,0.0,0.0,0.0,0.0,0.0,0.0,0.0,0.0,0.0,0.0,0.0,0.0,0.0,0.0,0.0,0.0,0.0,0.0,0.0,0.0,0.0,0.0,0.0,0.0,0.0,0.0,0.0,0.0,0.0,0.0,0.0,0.0,0.0,0.0,0.0,0.0,0.0,0.0,0.0,0.0,0.0,0.0,0.0,0.0,0.0,0.0,0.0,0.0,0.0,0.0,0.0,0.0,0.0,0.0,0.0,0.0,0.0,0.0,0.0,0.0,0.0,0.0,0.0,0.0,0.0,0.0,0.0,0.0,0.0,0.0,0.0,0.0,0.0,0.0,0.0,0.0,0.0,0.0,0.0,0.0,0.0,0.0,0.0,0.0,0.0,0.0,0.0,0.0,0.0,5.2443,5.2679,5.2692,5.3073,5.3773,5.2989,5.2744,0.0,0.0,0.0,0.0,0.0,0.0,0.0,0.0,0.0,0.0,0.0,0.0,0.0,0.0,0.0,0.0,0.0,0.0,0.0,0.0,0.0,0.0,0.0,0.0,0.0,0.0,0.0,0.0,0.0,0.0,0.0,0.0,0.0,0.0,0.0,0.0,0.0,0.0,0.0,0.0,0.0,0.0,0.0,0.0,0.0,0.0,0.0,0.0,4.9893,0.0,0.0,0.0,0.0,0.0,0.0,0.0,0.0,0.0,0.0,0.0,0.0,0.0,0.0,0.0,0.0,0.0,0.0,0.0,0.0,0.0,0.0,0.0,0.0,0.0,0.0,0.0,0.0,0.0,0.0,0.0,0.0,0.0,0.0,0.0,0.0,0.0,0.0,0.0,0.0,0.0,0.0,0.0,0.0,0.0,0.0,0.0,0.0,0.0,0.0,0.0,0.0,0.0,0.0,0.0,0.0,0.0,0.0,0.0,5.3486,5.397,5.3906,5.4148,5.467,5.4256,5.4131,0.0,0.0,0.0,0.0,0.0,0.0,0.0,0.0,0.0,0.0,0.0,0.0,0.0,0.0,0.0,0.0,0.0,0.0,0.0,0.0,0.0,0.0,0.0,0.0,0.0,0.0,0.0,0.0,0.0,0.0,0.0,0.0,0.0,0.0,0.0,0.0,0.0,0.0,0.0,0.0,0.0,0.0,0.0,0.0,0.0,0.0,0.0,0.0,0.0,0.0,0.0,0.0,0.0,0.0,0.0,0.0,0.0,0.0,0.0,0.0,0.0,0.0,0.0,0.0,0.0,0.0,0.0,0.0,0.0,0.0,0.0,0.0,0.0,0.0,0.0,0.0,0.0,0.0,0.0,0.0,0.0,0.0,0.0,0.0,0.0,0.0,0.0,0.0,0.0,0.0,0.0,0.0,0.0,0.0,0.0,0.0,0.0,0.0,0.0,0.0,0.0,0.0,0.0,0.0,0.0,0.0,0.0,5.4205,5.4548,5.5339,5.5255,5.5261,5.5396,5.5396,5.5564,5.5874,0.0,0.0,0.0,0.0,0.0,0.0,0.0,0.0,0.0,0.0,0.0,0.0,0.0,0.0,0.0,0.0,0.0,0.0,0.0,0.0,0.0,0.0,0.0,0.0,0.0,0.0,0.0,0.0,0.0,0.0,0.0,0.0,0.0,0.0,0.0,0.0,0.0,0.0,4.9893,4.9893,0.0,0.0,0.0,0.0,0.0,0.0,0.0,0.0,4.9893,0.0,0.0,0.0,0.0,0.0,0.0,0.0,0.0,0.0,0.0,0.0,0.0,0.0,0.0,0.0,0.0,0.0,0.0,0.0,0.0,0.0,0.0,0.0,0.0,0.0,0.0,0.0,0.0,0.0,0.0,0.0,0.0,0.0,0.0,0.0,0.0,0.0,0.0,0.0,0.0,0.0,0.0,0.0,0.0,0.0,0.0,0.0,0.0,0.0,0.0,0.0,0.0,0.0,0.0,0.0,0.0,5.4925,5.4912,5.5015,5.5203,5.5197,5.5261,5.539,5.5396,5.5564,5.5861,0.0,0.0,0.0,0.0,0.0,0.0,0.0,0.0,0.0,0.0,0.0,0.0,0.0,0.0,0.0,0.0,0.0,0.0,0.0,0.0,0.0,0.0,0.0,0.0,0.0,0.0,0.0,0.0,0.0,0.0,0.0,0.0,0.0,0.0,0.0,0.0,0.0,0.0,0.0,4.9893,4.9893,0.0,0.0,0.0,0.0,0.0,0.0,0.0,0.0,4.9893,0.0,0.0,0.0,0.0,0.0,0.0,0.0,0.0,0.0,0.0,0.0,0.0,0.0,0.0,0.0,0.0,0.0,0.0,0.0,0.0,0.0,0.0,0.0,0.0,0.0,0.0,0.0,0.0,0.0,0.0,0.0,0.0,0.0,0.0,0.0,0.0,0.0,0.0,0.0,0.0,0.0,0.0,0.0,0.0,0.0,0.0,0.0,0.0,0.0,0.0,0.0,0.0,0.0,0.0,0.0,5.5739,5.5369,5.5116,5.519,5.519,5.5261,5.5396,5.5396,5.5564,0.0,0.0,0.0,0.0,0.0,0.0,0.0,0.0,0.0,0.0,0.0,0.0,0.0,0.0,0.0,0.0,0.0,0.0,0.0,0.0,0.0,0.0,0.0,0.0,0.0,0.0,0.0,0.0,0.0,0.0,0.0,0.0,0.0,0.0,0.0,0.0,0.0,0.0,0.0,0.0,5.0561,5.0713,5.113,0.0,0.0,0.0,0.0,0.0,0.0,5.0827,5.0561,0.0,0.0,0.0,0.0,0.0,0.0,0.0,0.0,0.0,0.0,0.0,0.0,0.0,0.0,0.0,0.0,0.0,0.0,0.0,0.0,0.0,0.0,0.0,0.0,0.0,0.0,0.0,0.0,0.0,0.0,0.0,0.0,0.0,0.0,0.0,0.0,0.0,0.0,0.0,0.0,0.0,0.0,0.0,0.0,0.0,0.0,0.0,0.0,0.0,0.0,0.0,0.0,0.0,0.0,0.0,5.6175,5.5517,5.5174,5.5248,5.5269,5.5314,5.544,5.549,5.5648,0.0,0.0,0.0,0.0,0.0,0.0,0.0,0.0,0.0,0.0,0.0,0.0,0.0,0.0,0.0,0.0,0.0,0.0,0.0,0.0,0.0,0.0,0.0,0.0,0.0,0.0,0.0,0.0,0.0,0.0,0.0,0.0,0.0,0.0,0.0,0.0,0.0,0.0,0.0,0.0,0.0,5.1691,5.2298,5.2411,0.0,0.0,0.0,0.0,5.2411,5.1843,0.0,0.0,0.0,0.0,0.0,0.0,0.0,0.0,0.0,0.0,0.0,0.0,0.0,0.0,0.0,0.0,0.0,0.0,0.0,0.0,0.0,0.0,0.0,0.0,0.0,0.0,0.0,0.0,0.0,0.0,0.0,0.0,0.0,0.0,0.0,0.0,0.0,0.0,0.0,0.0,0.0,0.0,0.0,0.0,0.0,0.0,0.0,0.0,0.0,0.0,0.0,0.0,0.0,0.0,0.0,0.0,5.5374,5.526,5.5248,5.5358,5.5502,5.5577,5.5588,5.5731,5.5964,0.0,0.0,0.0,0.0,0.0,0.0,0.0,0.0,0.0,0.0,0.0,0.0,0.0,0.0,0.0,0.0,0.0,0.0,0.0,0.0,0.0,0.0,0.0,0.0,0.0,0.0,0.0,0.0,0.0,0.0,0.0,0.0,0.0,0.0,0.0,0.0,0.0,0.0,0.0,0.0,0.0,5.2298,5.2374,5.2411,5.2411,0.0,0.0,5.2411,5.2411,5.2336,0.0,0.0,0.0,0.0,0.0,0.0,0.0,0.0,0.0,0.0,0.0,0.0,0.0,0.0,0.0,0.0,0.0,0.0,0.0,0.0,0.0,0.0,0.0,0.0,0.0,0.0,0.0,0.0,0.0,0.0,0.0,0.0,0.0,0.0,0.0,0.0,0.0,0.0,0.0,0.0,0.0,0.0,0.0,0.0,0.0,0.0,0.0,0.0,0.0,0.0,0.0,0.0,0.0,0.0,0.0,5.6452,5.6671,5.6678,5.6778,5.693,5.7027,5.7125,5.726,5.7339,5.7462,0.0,0.0,0.0,0.0,0.0,0.0,0.0,0.0,0.0,0.0,0.0,0.0,0.0,0.0,0.0,0.0,0.0,0.0,0.0,0.0,0.0,0.0,0.0,0.0,0.0,0.0,0.0,0.0,0.0,0.0,0.0,0.0,0.0,0.0,0.0,0.0,0.0,0.0,0.0,0.0,0.0,0.0,5.3738,5.3814,0.0,0.0,0.0,5.3821,5.3814,0.0,0.0,0.0,0.0,0.0,0.0,0.0,0.0,0.0,0.0,0.0,0.0,0.0,0.0,0.0,0.0,0.0,0.0,0.0,0.0,0.0,0.0,0.0,0.0,0.0,0.0,0.0,0.0,0.0,0.0,0.0,0.0,0.0,0.0,0.0,0.0,0.0,0.0,0.0,0.0,0.0,0.0,0.0,0.0,0.0,0.0,0.0,0.0,0.0,0.0,0.0,0.0,0.0,0.0,0.0,0.0,0.0,5.7805,5.7843,5.7921,5.8114,5.8176,5.8331,5.8535,5.8622,0.0,0.0,0.0,0.0,0.0,0.0,0.0,0.0,0.0,0.0,0.0,0.0,0.0,0.0,0.0,0.0,0.0,0.0,0.0,0.0,0.0,0.0,0.0,0.0,0.0,0.0,0.0,5.5085,0.0,0.0,0.0,0.0,0.0,0.0,0.0,0.0,0.0,0.0,0.0,0.0,0.0,0.0,5.4321,5.5139,5.5238,5.5299,0.0,0.0,5.5527,5.5527,5.5034,5.4579,0.0,0.0,0.0,0.0,0.0,0.0,0.0,0.0,0.0,0.0,0.0,0.0,0.0,0.0,0.0,0.0,0.0,0.0,0.0,0.0,0.0,0.0,0.0,0.0,0.0,0.0,0.0,0.0,0.0,0.0,0.0,0.0,0.0,0.0,0.0,0.0,0.0,0.0,0.0,0.0,0.0,0.0,0.0,0.0,0.0,0.0,0.0,0.0,0.0,0.0,0.0,0.0,0.0,0.0,0.0,5.7918,5.788,5.8023,5.8204,5.8336,5.8484,5.869,5.8888,5.898,0.0,0.0,0.0,0.0,0.0,0.0,0.0,0.0,0.0,0.0,0.0,0.0,0.0,0.0,0.0,0.0,0.0,0.0,0.0,0.0,0.0,0.0,0.0,0.0,0.0,0.0,0.0,0.0,0.0,0.0,0.0,0.0,0.0,0.0,0.0,0.0,0.0,0.0,0.0,0.0,0.0,5.517,5.6086,5.6148,5.6398,0.0,0.0,5.7232,5.7232,5.7194,5.6891,5.6133,0.0,0.0,0.0,0.0,0.0,0.0,0.0,0.0,0.0,0.0,0.0,0.0,0.0,0.0,0.0,0.0,0.0,0.0,0.0,0.0,0.0,0.0,0.0,0.0,0.0,0.0,0.0,0.0,0.0,0.0,0.0,0.0,0.0,0.0,0.0,0.0,0.0,0.0,0.0,0.0,0.0,0.0,0.0,0.0,0.0,0.0,0.0,0.0,0.0,0.0,0.0,0.0,0.0,5.8922,5.8644,5.9185,5.9875,6.0686,6.0775,6.0961,6.1273,6.1357,6.114,0.0,0.0,0.0,0.0,0.0,0.0,0.0,0.0,0.0,0.0,0.0,0.0,0.0,0.0,0.0,0.0,0.0,0.0,0.0,0.0,0.0,0.0,0.0,0.0,0.0,0.0,0.0,0.0,5.6156,5.6436,5.6436,0.0,0.0,0.0,0.0,0.0,0.0,0.0,0.0,0.0,0.0,5.6693,5.6982,5.7028,0.0,0.0,5.7422,5.7422,5.7422,5.7422,5.7308,5.6967,5.6929,0.0,0.0,0.0,0.0,0.0,0.0,0.0,0.0,0.0,0.0,0.0,0.0,0.0,0.0,0.0,0.0,0.0,0.0,0.0,0.0,0.0,0.0,0.0,0.0,0.0,0.0,0.0,0.0,0.0,0.0,0.0,0.0,0.0,0.0,0.0,0.0,0.0,0.0,0.0,0.0,0.0,0.0,0.0,0.0,0.0,0.0,0.0,0.0,0.0,0.0,0.0,0.0,5.9484,5.9491,6.0153,6.0958,6.1887,6.1952,6.2163,6.2496,6.2503,6.2231,0.0,0.0,0.0,0.0,0.0,0.0,0.0,0.0,0.0,0.0,0.0,0.0,0.0,0.0,0.0,0.0,0.0,0.0,0.0,0.0,0.0,0.0,0.0,0.0,0.0,0.0,0.0,0.0,5.7081,5.7422,5.7422,0.0,0.0,0.0,0.0,0.0,0.0,0.0,0.0,0.0,0.0,5.7679,5.7893,5.7901,5.797,5.812,5.815,5.8142,5.815,5.815,5.8082,5.784,0.0,0.0,0.0,0.0,0.0,0.0,0.0,0.0,0.0,0.0,0.0,0.0,0.0,0.0,0.0,0.0,0.0,0.0,0.0,0.0,0.0,0.0,0.0,0.0,0.0,0.0,0.0,0.0,0.0,0.0,5.7963,0.0,0.0,0.0,0.0,0.0,0.0,0.0,0.0,0.0,0.0,0.0,0.0,0.0,0.0,0.0,0.0,0.0,0.0,0.0,0.0,0.0,0.0,6.0339,6.0377,6.0552,6.0806,6.1075,6.1217,6.1483,6.168,6.1646,6.1644,6.1561,0.0,0.0,0.0,0.0,0.0,0.0,0.0,0.0,0.0,0.0,0.0,0.0,0.0,0.0,0.0,0.0,0.0,0.0,0.0,0.0,0.0,0.0,0.0,0.0,0.0,0.0,5.7422,5.7422,5.7422,0.0,0.0,0.0,0.0,0.0,0.0,0.0,0.0,0.0,0.0,5.7713,5.7929,5.8759,5.8813,5.9048,5.972,5.9826,5.9818,5.9788,5.9818,5.9614,0.0,0.0,0.0,0.0,0.0,0.0,0.0,0.0,0.0,0.0,0.0,0.0,0.0,0.0,0.0,0.0,0.0,0.0,0.0,0.0,0.0,0.0,0.0,0.0,0.0,0.0,0.0,5.9373,5.9526,0.0,0.0,0.0,0.0,0.0,0.0,0.0,0.0,0.0,0.0,0.0,6.0797,6.0797,0.0,0.0,0.0,0.0,0.0,0.0,0.0,0.0,0.0,0.0,0.0,0.0,6.0377,6.0384,6.0473,6.0932,6.1848,6.1922,6.2132,6.246,6.2316,6.1917,6.1225,0.0,0.0,0.0,0.0,0.0,0.0,0.0,0.0,0.0,0.0,0.0,0.0,0.0,0.0,0.0,0.0,0.0,0.0,0.0,0.0,0.0,0.0,0.0,0.0,0.0,5.8491,0.0,0.0,0.0,0.0,0.0,0.0,0.0,0.0,0.0,0.0,0.0,5.9397,5.944,5.9934,6.0163,5.9876,6.0273,6.0456,0.0,0.0,0.0,0.0,0.0,0.0,0.0,0.0,0.0,0.0,0.0,0.0,0.0,0.0,5.9042,5.7837,5.7603,5.755,5.7581,0.0,0.0,0.0,0.0,0.0,0.0,0.0,0.0,0.0,0.0,0.0,0.0,0.0,0.0,0.0,0.0,6.1229,0.0,0.0,0.0,0.0,0.0,0.0,0.0,0.0,6.2051,6.1936,6.1753,6.1714,6.1714,0.0,6.1714,6.1562,0.0,0.0,0.0,0.0,0.0,0.0,0.0,0.0,6.0488,6.0494,6.0639,6.1108,6.1905,6.1957,6.2067,6.2321,6.2126,6.1682,6.0895,6.089,6.079,0.0,0.0,0.0,0.0,0.0,0.0,0.0,0.0,0.0,0.0,0.0,0.0,0.0,0.0,0.0,0.0,0.0,0.0,0.0,0.0,0.0,0.0,0.0,5.9365,0.0,0.0,0.0,0.0,0.0,0.0,0.0,0.0,0.0,5.9376,5.987,6.0294,6.033,6.08,6.1067,6.0759,0.0,0.0,0.0,0.0,0.0,0.0,0.0,6.0966,6.1043,6.1012,6.0997,6.1005,6.1118,6.12,6.1171,0.0,0.0,5.8907,5.8559,5.8537,5.8537,5.8118,5.7935,5.843,5.8147,5.8092,0.0,0.0,0.0,0.0,0.0,0.0,0.0,0.0,6.2884,6.2846,0.0,6.2846,0.0,0.0,0.0,0.0,0.0,6.2999,0.0,0.0,6.2961,6.3388,6.4084,6.4084,6.4122,6.4122,6.4084,6.3656,6.2808,6.1249,0.0,0.0,0.0,0.0,0.0,0.0,6.0787,6.0831,6.1191,6.1416,6.1419,6.1423,6.1419,6.1412,6.1217,6.0982,6.0742,6.0731,6.0577,6.0436,6.0384,0.0,0.0,0.0,0.0,0.0,0.0,0.0,0.0,0.0,0.0,0.0,0.0,0.0,0.0,0.0,0.0,0.0,0.0,0.0,0.0,6.0013,0.0,0.0,0.0,0.0,0.0,0.0,0.0,0.0,0.0,0.0,6.0335,6.0357,6.0399,6.0516,0.0,0.0,0.0,0.0,6.1842,6.2574,6.271,6.2672,6.2672,6.2672,6.2696,6.2765,0.0,0.0,6.278,6.284,6.2824,6.2795,6.2764,6.2388,6.0752,6.0421,6.037,6.037,6.0332,6.037,6.037,6.039,6.0439,6.3236,0.0,0.0,0.0,0.0,6.2884,6.2884,6.2884,6.2884,6.2884,6.2884,6.2884,0.0,0.0,0.0,0.0,0.0,0.0,6.4382,6.3854,6.3809,6.3618,6.3274,6.3274,6.3274,6.3266,6.3274,6.3159,6.2884,6.2388,6.2311,6.251,0.0,0.0,0.0,0.0,6.2623,6.2509,6.2752,6.2947,6.3097,6.3058,6.3002,6.2874,6.2273,6.172,6.1356,6.0806,6.0466,6.0384,6.0377,0.0,0.0,0.0,0.0,0.0,0.0,0.0,0.0,0.0,0.0,0.0,0.0,0.0,0.0,0.0,0.0,0.0,0.0,0.0,5.9926,6.0029,6.0304,0.0,0.0,0.0,0.0,0.0,0.0,0.0,0.0,0.0,6.2056,6.2078,6.2153,0.0,0.0,6.2946,6.2483,6.2985,6.3275,6.2902,0.0,0.0,0.0,6.278,6.2811,6.284,6.2855,6.2855,6.2855,6.287,6.2877,6.2893,6.2908,6.2732,6.2311,6.2189,6.2168,6.2168,6.2168,6.2168,6.2168,6.2189,6.2166,6.4389,6.3885,6.3878,6.3878,6.3878,6.3885,6.3885,6.3878,6.3916,6.3916,6.3878,6.3923,6.3885,6.3885,6.3878,0.0,0.0,0.0,6.5146,6.4649,6.4695,6.4382,6.3923,6.3878,6.3885,6.3878,6.3878,6.3885,6.3885,6.3885,6.3885,6.3885,0.0,0.0,6.2906,6.3295,6.3415,6.3235,6.3502,6.3657,6.3789,6.3732,6.361,6.3361,6.2838,6.2406,6.2142,6.1669,6.1402,6.1402,6.1409,6.1256,0.0,0.0,0.0,0.0,0.0,0.0,0.0,0.0,0.0,0.0,0.0,6.032,6.0189,0.0,0.0,0.0,6.0403,6.0653,6.1033,6.1119,0.0,0.0,0.0,0.0,0.0,0.0,0.0,6.1751,6.2666,6.3474,6.378,6.3855,6.3634,6.294,6.3321,6.3603,6.3367,0.0,6.4122,6.3923,6.3885,6.3878,6.3916,6.3848,6.3871,6.3878,6.3878,6.3885,6.3885,6.3878,6.3885,6.3885,6.3878,6.3878,6.3885,6.3878,6.361,6.3037,6.2884,6.2884,6.2884,6.2884,6.2884,6.5413,6.5413,6.5375,6.5375,6.5413,6.5413,6.5375,6.5413,6.5375,6.5413,6.5413,6.5413,6.5413,6.5375,6.5413,0.0,6.5413,6.5413,6.5375,6.5413,6.5413,6.5413,6.5413,6.5375,6.5413,6.5375,6.5413,6.5413,6.5375,6.5375,6.5413,6.5337,6.3885,6.3114,6.3112,6.3521,6.3603,6.3441,6.3781,6.3992,6.3988,6.3804,6.3608,6.3415,6.3152,6.3035,6.3006,6.2923,6.2884,6.2884,6.2884,6.2541,6.1745,0.0,0.0,0.0,0.0,0.0,0.0,0.0,0.0,0.0,0.0,0.0,0.0,0.0,0.0,0.0,6.1178,0.0,6.2696,6.2811,0.0,0.0,0.0,6.2825,6.2909,6.2971,6.3276,6.4039,0.0,0.0,6.5299,0.0,6.484,6.3305,6.3114,6.3381,6.4153,6.4305,6.458,6.5222,6.5375,6.5375,6.5222,6.5261,6.5222,6.5222,6.5413,6.5299,6.5299,6.5299,6.5337,6.5299,6.5375,6.5337,6.5375,6.5299,6.4917,6.3419,6.3152,6.3152,6.3228,6.3228,6.3266,6.5413,6.5413,6.5413,6.5413,6.5413,6.5413,6.5413,6.5413,6.5413,6.5413,6.5413,6.5413,6.5413,6.5413,6.5413,6.5413,6.5413,6.5413,6.5413,6.5413,6.5413,6.5413,6.5413,6.5413,6.5413,6.5413,6.5413,6.5413,6.5413,6.5413,6.5413,6.5375,6.4993,6.4802,6.4825,6.5255,6.5341,6.5128,6.5384,6.5557,6.5557,6.5514,6.5341,6.5134,6.4456,6.4056,6.3869,6.3274,6.2884,6.2884,6.2884,6.2808,6.2617,6.2579,0.0,0.0,0.0,0.0,0.0,0.0,0.0,0.0,0.0,6.0524,6.1034,0.0,6.1362,0.0,6.2405,6.2589,6.2704,6.278,0.0,0.0,6.3664,6.393,6.4657,6.4741,6.4779,6.5032,6.51,6.5192,6.5375,6.5413,6.5261,6.4879,6.4802,6.4856,6.5024,6.5108,6.5184,6.5375,6.5413,6.5413,6.5413,6.5413,6.5413,6.5413,6.5413,6.5413,6.5413,6.5413,6.5413,6.5413,6.5413,6.5413,6.5413,6.5413,6.5299,6.4879,6.4802,6.4802,6.4802,6.4802,6.4802,6.5413,6.5413,6.5413,6.5413,6.5413,6.5413,6.5413,6.5413,6.5413,6.5413,6.5413,6.5413,6.5413,6.5413,6.5413,6.5413,6.5413,6.5413,6.5413,6.5413,6.5413,6.5413,6.5413,6.5413,6.5413,6.5413,6.5413,6.5413,6.5413,6.5413,6.5413,6.5413,6.5413,6.5413,6.5436,6.5756,6.5792,6.5559,6.5785,6.5914,6.5914,6.5914,6.5851,6.5705,6.5197,6.4831,6.4741,6.4267,6.4038,6.4,6.3694,6.3465,6.3465,6.3121,6.2884,0.0,0.0,0.0,0.0,0.0,0.0,0.0,0.0,0.0,0.0,0.0,6.236,6.3214,6.3398,6.3566,6.3824,6.3932,6.4123,6.4581,6.4581,6.4787,6.5368,6.5375,6.536,6.5406,6.5413,6.5413,6.5413,6.5413,6.5413,6.5413,6.5413,6.5398,6.536,6.5383,6.5413,6.5413,6.5413,6.5413,6.5413,6.5413,6.5413,6.5413,6.5413,6.5413,6.5413,6.5413,6.5413,6.5413,6.5413,6.5413,6.5413,6.5413,6.5413,6.5413,6.5413,6.5413,6.5413,6.5413,6.5413,6.5413,6.5413,6.5413,6.5413,6.5413,6.5413,6.5413,6.5413,6.5413,6.5413,6.5413,6.5413,6.5413,6.5413,6.5413,6.5413,6.5413,6.5413,6.5413,6.5413,6.5413,6.5413,6.5413,6.5413,6.5413,6.5413,6.5413,6.5413,6.5413,6.5413,6.5413,6.5413,6.5413,6.5413,6.539,6.5566,6.5566,6.5421,6.5566,6.5647,6.5654,6.5654,6.5647,6.5641,6.5485,6.5413,6.5413,6.5413,6.5413,6.5375,6.4733,6.4351,6.4351,6.3618,6.3228,0.0,6.3228,0.0,0.0,0.0,0.0,0.0,0.0,0.0,0.0,6.3055,6.3375,6.4013,6.4222,6.4627,6.5267,6.5368,6.5413,6.5413,6.5413,6.5413,6.5413,6.5413,6.5413,6.5413,6.5413,6.5413,6.5413,6.5413,6.5413,6.5413,6.5413,6.5413,6.5413,6.5413,6.5413,6.5413,6.5413,6.5413,6.5413,6.5413,6.5413,6.5413,6.5413,6.5413,6.5413,6.5413,6.5413,6.5413,6.5413,6.5413,6.5413,6.5413,6.5413,6.5413,6.5413,6.5413,6.5413,6.5413,6.5413,6.5413,6.5413,6.5413,6.5413,6.5413,6.5413,6.5413,6.5413,6.5413,6.5413,6.5413,6.5413,6.5413,6.5413,6.5413,6.5413,6.5413,6.5413,6.5413,6.5413,6.5413,6.5413,6.5413,6.5413,6.5413,6.5413,6.5413,6.5413,6.5413,6.5413,6.5413,6.5413,6.5413,6.5413,6.5421,0.0,0.0,0.0,6.5435,6.5465,6.5465,6.5427,6.5465,6.5465,6.5405,0.0,6.5413,6.5413,6.5413,6.5375,6.5261,0.0,0.0,0.0,0.0,0.0,0.0,0.0,0.0,0.0,0.0,0.0,6.4756,6.4527,6.3879,6.4474,6.494,6.5045,6.5131,6.5215,6.5391,6.5406,6.5413,6.5413,6.5413,6.5413,6.5413,6.5413,6.5413,6.5413,6.5413,6.5413,6.5413,6.5413,6.5413,6.5452,6.5413,6.5413,6.5452,6.5452,6.5413,6.5413,6.5452,6.5413,6.5413,6.5452,6.5566,6.5413,6.5413,6.5452,6.549,6.549,6.5413,6.5452,6.5413,6.5452,6.5452,6.5413,6.549,6.5413,6.5413,6.5413,6.5413,6.5413,6.5413,6.5413,0.0,6.5413,6.5413,0.0,6.5413,6.5643,6.6025,6.5605,6.5413,6.5413,6.5413,6.5413,6.5413,6.5413,6.5413,6.5413,6.5413,6.5413,6.5413,6.5413,6.5413,6.5413,6.5413,6.5413,6.5413,6.5413,6.5413,6.5413,6.5413,6.5413,6.5413,6.5413,6.5413,6.5413,6.5413,6.5413,6.5413,6.5413,6.5413,6.5413,6.5413,6.5413,6.5413,0.0,0.0,0.0,0.0,0.0,0.0,0.0,0.0,0.0,0.0,0.0,6.5375,6.5413,6.5413,6.5413,6.5375,6.5368,6.5413,6.5375,6.5161,6.4741,6.5123,6.5398,6.5352,6.5391,6.5413,6.5413,6.5413,6.5413,6.5413,6.5413,6.5413,6.5413,6.5413,6.5413,6.5413,6.5413,6.5413,6.5413,6.5413,6.5605,6.5987,6.6063,6.6178,6.6483,6.591,6.5528,6.5948,6.6063,6.6178,6.656,6.6644,6.6636,6.6636,6.6636,6.6644,6.6644,6.6644,6.6644,6.6644,6.6636,6.6636,6.6636,6.6636,6.6636,6.6644,6.6636,6.6636,6.6598,6.5987,6.5413,6.5834,6.5834,6.5834,6.5872,6.5917,6.5857,6.6285,6.6949,0.0,0.0,0.0,6.5665,6.5566,6.5413,6.5413,6.5413,6.5413,6.5413,6.5413,6.5413,6.5413,6.5413,6.5413,6.5413,6.5413,6.5413,6.5413,6.5413,6.5413,6.5413,6.5413,6.5413,6.5413,6.5413,6.5413,6.5413,6.5413,6.5413,6.5413,6.5413,6.5413,6.5413,6.5413,6.5413,6.5413,6.5413,6.5413,6.5413,6.5413,6.5375,6.4771,6.4688,6.5337,6.4771,6.4733,6.5337,6.5413,6.5413,6.5413,6.5413,6.5413,6.5413,6.5413,6.5413,6.5413,6.5413,6.5413,6.5413,6.5413,6.5413,6.5413,6.5413,6.5413,6.5413,6.5413,6.5413,6.5413,6.5413,6.5413,6.5413,6.5413,6.5452,6.5643,6.5681,6.5948,6.6713,6.6904,6.7133,6.7561,6.6751,6.6216,6.6789,6.6904,6.7133,6.7668,6.779,6.7905,6.7752,6.7828,6.7905,6.7905,6.7905,6.7905,6.7752,6.7905,6.7828,6.7867,6.779,6.7905,6.7905,6.7905,6.7905,6.779,6.6827,6.5987,6.7561,6.7553,6.7523,6.7682,6.7902,6.7638,6.7759,6.8048,6.7683,6.7261,6.6762,6.6573,6.6101,6.5413,6.5413,6.5413,6.5413,6.5413,6.5413,0.0,6.5413,6.5413,6.5413,6.5413,6.5413,6.5413,6.5421,6.5413,6.5413,6.5421,6.5413,6.5413,6.5413,6.5413,6.5413,6.5413,6.5413,6.5413,6.5413,6.5413,6.5413,6.5413,6.5413,6.5413,6.5413,6.5413,6.5413,6.5413,6.5413,6.5375,6.5299,6.5299,6.5375,6.5299,6.5299,6.5375,6.5413,6.5413,6.5413,6.5413,6.5413,6.5413,6.5413,6.5413,6.5413,6.5413,6.5413,6.5413,6.5413,6.5413,6.5413,6.5413,6.5413,6.5413,6.5413,6.5413,6.5413,6.5413,6.5413,6.5452,6.5413,6.5757,6.6369,6.6522,6.6789,6.7515,6.7821,6.7828,6.7943,6.7714,6.7599,6.7714,6.7706,6.779,6.8058,6.7943,6.8058,6.7905,6.802,6.8096,6.8134,6.8134,6.8096,6.7981,6.8096,6.8058,6.802,6.7905,6.8058,6.8096,6.8134,6.8058,6.8096,6.7752,6.7523,6.7905,6.7928,6.8057,6.8107,6.8124,6.8575,6.9008,6.9334,6.9565,6.8975,6.7882,6.7768,6.7435,6.6985,6.6978,6.6885,6.6751,6.6759,6.6751,6.6751,6.6759,6.6751,6.6751,6.6751,6.6811,6.6964,6.6978,6.6978,6.6978,6.6978,6.6892,6.6766,6.6751,6.6751,6.6751,6.6751,6.6751,6.6759,6.5872,6.5413,6.5413,6.5413,6.5413,6.5413,6.5413,6.5413,6.5413,6.5413,6.5413,6.5413,6.5413,6.5413,6.5413,6.5413,6.5413,6.5413,6.5413,6.5413,6.5413,6.5413,6.5413,6.5413,6.5413,6.5413,6.5413,6.5413,6.5413,6.5413,6.5413,6.5413,6.5413,6.5413,6.5413,6.5413,6.5413,6.5413,6.5413,6.5413,6.5566,6.6025,6.6101,6.6407,6.7247,6.7362,6.7668,6.847,6.8929,6.9234,6.9234,6.9234,6.9082,6.8707,6.8593,6.8814,6.9158,6.9273,6.9273,6.9234,6.9273,6.9273,6.9273,6.9234,6.9234,6.9273,6.9234,6.9273,6.9234,6.9273,6.9273,6.9273,6.9273,6.9273,6.9273,6.9273,6.8929,6.8622,6.8652,6.8834,6.8794,6.8704,6.9623,7.0209,7.0545,7.1023,7.0515,6.9391,6.9037,6.869,6.8397,6.8346,6.8269,6.8062,6.8005,6.802,6.804,6.8012,6.8012,6.804,6.8055,6.814,6.8282,6.8289,6.8256,6.8202,6.8234,6.8115,6.7928,6.7905,6.7905,6.7905,6.7905,6.7905,6.7828,6.6598,6.5872,6.5681,6.5528,6.5413,6.5413,6.5413,6.5413,6.5413,6.5413,6.5413,6.5413,6.5413,6.5413,6.5413,6.5413,6.5413,6.5413,6.5413,6.5413,6.5413,6.5413,6.5413,6.5375,6.5222,6.5146,6.5108,6.4917,6.5031,6.5299,6.5413,6.5337,6.5146,6.5299,6.5337,6.5184,6.549,6.5757,6.5719,6.5834,6.6178,6.6865,6.6972,6.7286,6.7935,6.8211,6.8547,6.9349,7.0029,7.0411,7.0602,7.0678,7.0419,7.0151,6.9731,6.9655,7.0296,7.0334,7.0334,7.0411,7.0334,7.0258,7.0258,7.0334,7.0372,7.0258,7.0334,7.0258,7.0372,7.0334,7.0296,7.022,7.0181,7.0296,7.0258,7.0258,6.9914,7.0793,7.0805,7.0744,7.0822,7.0816,7.1323,7.1464,7.1397,7.1615,7.1668,7.1284,7.0281,6.934,6.8612,6.865,6.8662,6.8574,6.8366,6.8423,6.8557,6.8372,6.8346,6.858,6.8563,6.8467,6.8366,6.8379,6.8381,6.8128,6.8051,6.7974,6.7905,6.7905,6.7981,6.7943,6.7943,6.7943,6.7905,6.7752,6.7332,6.659,6.5796,6.5413,6.5413,6.5413,6.5413,6.5413,6.5413,6.5413,6.5413,6.5413,6.5375,6.5375,6.5375,6.5375,6.5337,6.5375,6.5413,6.5375,6.5413,6.5375,6.5337,6.4764,6.4389,6.4351,6.3656,6.384,6.5031,6.5413,6.507,6.4504,6.4993,6.5222,6.481,6.5796,6.6598,6.6636,6.7247,6.7714,6.7744,6.779,6.8134,6.889,6.9082,6.9387,7.019,7.0449,7.0801,7.145,7.1573,7.1794,7.2024,7.1374,7.0487,7.0563,7.0411,7.064,7.0563,7.0487,7.0602,7.0716,7.064,7.0449,7.0907,7.064,7.0678,7.0602,7.0411,7.0525,7.0793,7.0716,7.0487,7.0449,7.0487,7.0105,7.1098,7.1109,7.1276,7.1396,7.1536,7.1612,7.1637,7.1706,7.1755,7.1817,7.1769,7.1237,7.0743,7.0295,7.0329,7.0225,7.0059,6.9998,6.9998,7.0054,6.9992,7.0009,7.0092,7.0098,7.0043,6.9957,6.9951,6.981,6.9616,6.9452,6.9387,6.9387,6.9387,6.9387,6.9387,6.9387,6.9379,6.9387,6.889,6.8508,6.8088,6.6865,6.6178,6.6101,6.5681,6.5413,6.5413,6.5413,6.5413,6.5413,6.5413,6.5184,6.4695,6.4695,6.4458,6.4,6.3916,6.4153,6.4649,6.4688,6.4879,6.5375,6.5108,6.4917,6.4917,6.4573,6.4917,6.5796,6.5299,6.4695,6.4955,6.5681,6.6025,6.5872,6.6713,6.74,6.7439,6.7706,6.8058,6.8547,6.8699,6.8967,6.9693,6.9914,7.0266,7.0954,7.1183,7.1527,7.2299,7.2452,7.2597,7.2826,7.2329,7.2024,7.1909,7.1947,7.1909,7.1909,7.1947,7.1947,7.1871,7.1947,7.1947,7.1909,7.1833,7.1833,7.2024,7.1947,7.1947,7.1871,7.1909,7.1947,7.1947,7.1527,7.1068,7.1276,7.1338,7.1505,7.1654,7.1769,7.1637,7.1654,7.1811,7.1817,7.1817,7.1817,7.1817,7.1731,7.1601,7.159,7.1481,7.1285,7.1256,7.1266,7.1262,7.1218,7.1223,7.1266,7.1252,7.1157,7.1093,7.102,7.0895,7.0703,7.0508,7.0411,7.0411,7.0411,7.0411,7.0411,7.0411,7.0411,7.0334,6.9807,6.954,6.9349,6.8126,6.7171,6.6705,6.6101,6.5643,6.5413,6.5413,6.5413,6.5413,6.5413,6.5146,6.458,6.4542,6.4229,6.3694,6.3572,6.3847,6.4504,6.4542,6.4764,6.5299,6.5413,6.5413,6.5413,6.5413,6.5796,6.6476,6.5612,6.5222,6.5681,6.6522,6.6904,6.6819,6.7591,6.8249,6.8249,6.8394,6.889,6.9425,6.954,6.9846,7.061,7.0992,7.145,7.1956,7.207,7.2376,7.3093,7.3323,7.3399,7.3628,7.3705,7.3437,7.3132,7.2864,7.2979,7.2979,7.2864,7.2826,7.2979,7.2979,7.2979,7.252,7.2864,7.2941,7.2673,7.2788,7.3025,7.2979,7.3017,7.3017,7.275,7.2376,7.2032,7.1764,7.1797,7.1806,7.1886,7.1817,7.1808,7.1808,7.1895,7.1817,7.1817,7.1817,7.1817,7.1814,7.1803,7.1758,7.1764,7.174,7.1575,7.1587,7.1683,7.1536,7.1594,7.1749,7.1548,7.1333,7.1093,7.0908,7.0717,7.0437,7.0389,7.0411,7.0411,7.0411,7.0411,7.0411,7.0411,7.0411,7.0372,7.0296,7.0296,7.022,6.9464,6.8317,6.6972,6.6674,6.6292,6.5605,6.5452,6.5452,6.5452,6.5528,6.5452,6.5375,6.5337,6.5261,6.5222,6.5222,6.5261,6.5337,6.5337,6.5413,6.5452,6.5528,6.5452,6.5528,6.5452,6.5834,6.6628,6.6636,6.656,6.6865,6.7362,6.7446,6.698,6.8165,6.8967,6.9158,6.9685,7.022,7.0372,7.0449,7.0801,7.1565,7.2367,7.2673,7.2864,7.2941,7.3246,7.3934,7.4155,7.4431,7.4974,7.5089,7.4821,7.3437,7.3399,7.3284,7.3361,7.3552,7.3208,7.3055,7.2979,7.3055,7.3132,7.3323,7.3361,7.3093,7.3093,7.3255,7.3331,7.3399,7.3361,7.3628,7.317,7.2788,7.3453,7.3453,7.3453,7.3453,7.3375,7.2869,7.2635,7.2557,7.2014,7.1817,7.1817,7.1817,7.1817,7.1817,7.1817,7.1817,7.1775,7.1731,7.1737,7.1772,7.1731,7.1737,7.1761,7.1601,7.1386,7.1093,7.0876,7.0659,7.0443,7.0411,7.0411,7.0411,7.0411,7.0411,7.0411,7.0411,7.0411,7.0411,7.0411,7.0411,7.0411,7.0105,6.9425,6.8356,6.7744,6.7332,6.7026,6.698,6.698,6.6988,6.6988,6.6751,6.6254,6.5681,6.5413,6.5413,6.5413,6.5643,6.6139,6.6254,6.6483,6.6904,6.6522,6.6254,6.6132,6.5796,6.5948,6.7133,6.7477,6.7821,6.8661,6.8432,6.779,6.7706,6.847,6.9464,6.9884,7.0258,7.0602,7.1145,7.168,7.2215,7.2452,7.2796,7.3208,7.3667,7.3781,7.4125,7.4783,7.5051,7.5127,7.5395,7.5471,7.528,7.486,7.463,7.463,7.463,7.4669,7.463,7.4516,7.4401,7.4478,7.4363,7.4325,7.4325,7.4287,7.4287,7.4287,7.4325,7.4363,7.4248,7.463,7.4087,7.3705,7.4388,7.4388,7.4388,7.4388,7.4311,7.3804,7.3531,7.3453,7.2908,7.2635,7.2635,7.2638,7.2638,7.2599,7.2365,7.2209,7.217,7.1934,7.1817,7.1817,7.1817,7.1758,7.166,7.1481,7.1247,7.1012,7.0776,7.0555,7.0443,7.0411,7.0411,7.0411,7.0411,7.0411,7.0411,7.0411,7.0411,7.0411,7.0411,7.0411,7.0411,7.0411,7.0181,6.9578,6.9005,6.8394,6.7943,6.7905,6.7905,6.7905,6.7905,6.763,6.7095,6.6522,6.6216,6.6224,6.6216,6.633,6.6636,6.6713,6.6934,6.7439,6.7286,6.7171,6.7393,6.7171,6.763,6.8432,6.8699,6.9234,6.9578,6.9196,6.8699,6.8814,6.9464,7.0198,7.0763,7.1107,7.1527,7.21,7.2826,7.3284,7.3437,7.3667,7.4049,7.4584,7.4622,7.4927,7.5356,7.5509,7.5509,7.5509,7.5509,7.5471,7.528,7.5165,7.5165,7.5204,7.5165,7.5395,7.5509,7.5509,7.5509,7.5509,7.5509,7.5509,7.5509,7.5509,7.5509,7.5509,7.528,7.5013,7.5089,7.4966,7.4469,7.4466,7.4544,7.4427,7.4583,7.4622,7.4466,7.4388,7.4388,7.4272,7.4116,7.4038,7.4233,7.4116,7.4116,7.3414,7.3103,7.2986,7.2401,7.1973,7.1817,7.1817,7.1712,7.1501,7.1276,7.1023,7.0776,7.0547,7.0427,7.0411,7.0411,7.0411,7.0411,7.0411,7.0411,7.0411,7.0411,7.0411,7.0411,7.0411,7.0411,7.0411,7.0411,7.0372,7.0334,7.022,6.954,6.8134,6.8058,6.8134,6.8088,6.8058,6.7943,6.7943,6.7828,6.7867,6.7828,6.7867,6.7515,6.698,6.7018,6.7163,6.7286,6.7599,6.8203,6.8814,6.9349,6.9761,7.0029,7.0105,7.0105,6.9769,7.0113,7.0334,7.0411,7.0877,7.1421,7.1803,7.2444,7.2979,7.3093,7.3705,7.4155,7.4393,7.4736,7.5165,7.528,7.5356,7.5356,7.5471,7.5509,7.5509,7.5509,7.5509,7.5509,7.5509,7.5509,7.5471,7.5471,7.5433,7.5509,7.5509,7.5509,7.5509,7.5509,7.5509,7.5509,7.5509,7.5509,7.5509,7.5509,7.5509,7.5509,7.5356,7.5204,7.4974,7.6181,7.6181,7.622,7.6181,7.6103,7.5558,7.5285,7.5207,7.47,7.4388,7.4388,7.4388,7.4388,7.4388,7.4077,7.3999,7.396,7.3648,7.2947,7.2009,7.1853,7.1745,7.1503,7.1236,7.0914,7.0563,7.0429,7.0411,7.0411,7.0411,7.0411,7.0411,7.0411,7.0411,7.0411,7.0411,7.0411,7.0411,7.0411,7.0411,7.0411,7.0411,7.0411,7.0411,7.0411,7.0105,6.9655,6.9616,6.9608,6.9578,6.9608,6.9387,6.8937,6.8784,6.8776,6.8814,6.8814,6.9043,6.9265,6.9188,6.9112,6.9112,6.8967,6.889,6.9043,6.8967,6.9387,7.0181,7.0411,7.064,7.1603,7.2024,7.1718,7.0525,7.1183,7.1994,7.2567,7.3323,7.3743,7.3934,7.4584,7.5051,7.5127,7.5433,7.5471,7.5509,7.5509,7.5509,7.5509,7.5509,7.5509,7.5509,7.5509,7.5509,7.5509,7.5509,7.5509,7.5509,7.5509,7.5509,7.5509,7.5509,7.5509,7.5509,7.5509,7.5509,7.5509,7.5509,7.5509,7.5509,7.5509,7.5509,7.5509,7.5356,7.5165,7.6999,7.6999,7.6999,7.6999,7.696,7.6376,7.6181,7.6103,7.5635,7.5363,7.5363,7.5363,7.5363,7.5285,7.5051,7.4895,7.4856,7.4583,7.3739,7.276,7.2598,7.2446,7.2117,7.1555,7.0965,7.0499,7.0411,7.0411,7.0411,7.0411,7.0411,7.0411,7.0411,7.0411,7.0411,7.0411,7.0411,7.0411,7.0411,7.0411,7.0411,7.0411,7.0411,7.0411,7.0411,7.0411,7.0411,7.0411,7.0411,7.0411,7.0411,7.0143,6.9693,6.9655,6.9655,6.9655,6.9655,6.9769,6.996,6.9761,6.9952,6.9846,6.9464,6.954,6.9816,6.9548,7.0007,7.1068,7.145,7.1833,7.275,7.3284,7.2856,7.1977,7.2062,7.2567,7.3361,7.4201,7.4622,7.4813,7.5165,7.5433,7.5509,7.5509,7.5509,7.5509,7.5509,7.5509,7.5509,7.5509,7.5548,7.5548,7.5509,7.5509,7.5509,7.5509,7.5509,7.5509,7.5509,7.5509,7.5509,7.5509,7.5509,7.5509,7.5509,7.5509,7.5509,7.5509,7.5509,7.5509,7.5518,7.5509,7.5509,7.5509,7.5356,7.6999,7.6999,7.6999,7.6999,7.6999,7.6921,7.6882,7.696,7.6882,7.6804,7.6843,7.6727,7.6843,7.6727,7.6064,7.5791,7.5633,7.5063,7.4555,7.4205,7.4057,7.3795,7.3033,7.2234,7.1502,7.0886,7.0754,7.0678,7.0831,7.0678,7.0487,7.0602,7.0487,7.0411,7.0411,7.0411,7.0411,7.0411,7.0411,7.0411,7.0411,7.0411,7.0411,7.0411,7.0411,7.0411,7.0411,7.0411,7.0411,7.0411,7.0411,7.0334,7.0296,7.0296,7.0143,7.0113,7.0258,6.9922,6.9464,6.954,6.9578,6.9693,6.9769,6.9999,7.1306,7.1535,7.1841,7.275,7.2902,7.3055,7.3361,7.3858,7.4116,7.4078,7.3514,7.3637,7.4201,7.4974,7.528,7.5395,7.5509,7.5509,7.5509,7.5509,7.5509,7.5509,7.5586,7.5739,7.5777,7.5853,7.5739,7.5853,7.6121,7.6197,7.6426,7.6432,7.6479,7.6488,7.6297,7.6037,7.5714,7.56,7.554,7.5532,7.5591,7.5574,7.5506,7.5532,7.5523,7.5553,7.5544,7.5527,7.5509,7.5509,7.5535,7.6999,7.6999,7.6999,7.6999,7.6999,7.6999,7.6999,7.6999,7.6999,7.6999,7.6999,7.6999,7.6999,7.6957,7.6763,7.6649,7.6466,7.6147,7.5879,7.5636,7.5471,7.4564,7.351,7.2876,7.252,7.2253,7.2138,7.2291,7.2253,7.1642,7.1374,7.1336,7.0754,7.0449,7.0411,7.0449,7.0411,7.0411,7.0411,7.0411,7.0411,7.0411,7.0411,7.0411,7.0411,7.0449,7.0411,7.0411,7.0411,7.0411,7.0411,7.0105,6.9693,6.9616,6.9693,6.9731,6.9655,6.9807,7.0067,7.0105,7.0381,7.0962,7.0962,7.1535,7.2529,7.2643,7.3055,7.3705,7.3887,7.4125,7.4669,7.4974,7.4851,7.4393,7.4478,7.4783,7.5013,7.5318,7.5509,7.5509,7.5509,7.5509,7.5586,7.5586,7.5586,7.57,7.6044,7.6388,7.6465,7.68,7.6914,7.722,7.7449,7.7411,7.7429,7.7482,7.7517,7.762,7.7369,7.6952,7.6399,7.5816,7.5734,7.5636,7.5871,7.5893,7.5726,7.5636,7.5633,7.5574,7.5566,7.5566,7.5535,7.5518,7.557,7.6999,7.6999,7.6999,7.6999,7.6999,7.6999,7.6999,7.6999,7.6999,7.6999,7.6999,7.6999,7.6999,7.6993,7.6861,7.6834,7.6777,7.6539,7.6284,7.6032,7.5778,7.4934,7.3943,7.3543,7.3361,7.2979,7.3017,7.2979,7.2911,7.2452,7.2299,7.21,7.1374,7.0954,7.0954,7.0563,7.0411,7.0411,7.0411,7.0411,7.0411,7.0411,7.0678,7.0839,7.0954,7.1068,7.1412,7.1527,7.1221,7.064,7.0372,7.0181,6.9769,6.9693,6.9884,7.0151,7.0274,7.0648,7.1298,7.1489,7.1718,7.2108,7.2261,7.2673,7.3284,7.3514,7.3858,7.4584,7.4736,7.5004,7.5356,7.5509,7.528,7.4927,7.5204,7.5356,7.5004,7.528,7.5471,7.5509,7.5509,7.5662,7.593,7.6006,7.6197,7.6532,7.6991,7.7182,7.7296,7.7793,7.8099,7.8222,7.8258,7.8094,7.8044,7.8096,7.8233,7.8365,7.8398,7.798,7.7495,7.6681,7.6413,7.6391,7.6314,7.613,7.587,7.5708,7.5668,7.5666,7.5658,7.5641,7.5591,7.5549,7.5591,7.723,7.7155,7.7155,7.7077,7.7038,7.6999,7.6999,7.6999,7.6999,7.6999,7.6999,7.6999,7.6999,7.6951,7.6754,7.6622,7.6575,7.63,7.6057,7.5862,7.5589,7.5064,7.4482,7.435,7.4049,7.359,7.3284,7.3399,7.3446,7.3284,7.3132,7.2902,7.2261,7.1879,7.1756,7.1145,7.0754,7.0869,7.0984,7.0984,7.0984,7.1022,7.1298,7.1756,7.1841,7.2138,7.2597,7.2788,7.2253,7.0793,7.0686,7.0793,7.0716,7.0716,7.103,7.1573,7.1726,7.207,7.2758,7.275,7.2979,7.3055,7.3093,7.3476,7.4125,7.4354,7.4622,7.528,7.5471,7.5433,7.5471,7.5509,7.5471,7.5356,7.5471,7.5127,7.4813,7.5157,7.5624,7.5662,7.57,7.6159,7.657,7.6914,7.7067,7.7258,7.7755,7.8099,7.827,7.8632,7.8785,7.8755,7.8724,7.8594,7.8599,7.8641,7.8845,7.901,7.9174,7.9044,7.885,7.822,7.7667,7.7321,7.6908,7.6371,7.5887,7.5756,7.5732,7.5747,7.5739,7.5739,7.5676,7.5636,7.5644,7.8594,7.8048,7.8009,7.7623,7.7077,7.6999,7.6999,7.6999,7.6999,7.6999,7.6996,7.6996,7.6993,7.6987,7.6711,7.6613,7.6492,7.6146,7.5833,7.5616,7.5532,7.5433,7.5204,7.5165,7.5089,7.486,7.4936,7.4936,7.4783,7.424,7.3934,7.3819,7.317,7.2711,7.2635,7.2406,7.2406,7.2444,7.2367,7.2291,7.2291,7.2291,7.2406,7.2711,7.2758,7.2826,7.2941,7.2979,7.2788,7.252,7.2444,7.2406,7.2291,7.2291,7.2444,7.2597,7.2711,7.2826,7.2987,7.317,7.3323,7.3896,7.3972,7.4316,7.5089,7.5165,7.528,7.5509,7.5509,7.5509,7.5509,7.5509,7.5548,7.5586,7.5586,7.5747,7.6044,7.6274,7.6341,7.6559,7.6979,7.7535,7.7705,7.7759,7.7941,7.8117,7.8526,7.8967,7.9268,7.9586,7.9612,7.9604,7.9667,7.9648,7.9604,7.9646,7.9703,7.9782,7.9899,7.9969,7.9814,7.9345,7.8646,7.7939,7.7247,7.6693,7.611,7.5894,7.5887,7.5856,7.5864,7.581,7.5794,7.5732,7.5732,7.9256,7.8867,7.8867,7.836,7.7698,7.7581,7.7389,7.7038,7.6999,7.6999,7.6984,7.69,7.6823,7.6762,7.6472,7.626,7.6189,7.5921,7.5619,7.5544,7.5509,7.5509,7.5509,7.5509,7.5509,7.5509,7.5471,7.5509,7.5356,7.508,7.4813,7.4736,7.3972,7.359,7.3437,7.3246,7.2941,7.2941,7.2979,7.2979,7.2979,7.2979,7.3246,7.3628,7.3934,7.4163,7.421,7.421,7.421,7.4172,7.4134,7.3743,7.3132,7.3017,7.317,7.3514,7.3552,7.3819,7.4019,7.421,7.4401,7.4736,7.4813,7.5042,7.5395,7.5509,7.5509,7.5509,7.5509,7.5509,7.5509,7.5509,7.5586,7.6006,7.6091,7.6458,7.7152,7.7037,7.6973,7.7343,7.7856,7.8422,7.8722,7.8844,7.9269,7.9669,7.982,8.0236,8.0333,8.0562,8.0607,8.0645,8.0777,8.0808,8.0742,8.0688,8.0683,8.0661,8.0638,8.0692,8.06,8.0031,7.9431,7.8592,7.7707,7.7015,7.6485,7.6284,7.5969,7.5939,7.5902,7.5879,7.5872,7.5872,7.5879,7.9802,7.9685,7.9685,7.9217,7.8555,7.8477,7.8012,7.7311,7.7191,7.7176,7.6914,7.6672,7.6583,7.6458,7.6141,7.5914,7.5772,7.5652,7.5527,7.5518,7.5509,7.5509,7.5509,7.5509,7.5509,7.5509,7.5509,7.5509,7.5509,7.5509,7.5318,7.5318,7.4813,7.4431,7.424,7.3819,7.359,7.3675,7.3675,7.3628,7.359,7.3599,7.3904,7.4393,7.4889,7.5242,7.5242,7.528,7.5395,7.5509,7.5509,7.4745,7.3828,7.3408,7.3628,7.4393,7.4393,7.466,7.5051,7.5318,7.5356,7.5509,7.5471,7.5471,7.5509,7.5509,7.5509,7.5509,7.5509,7.5586,7.5662,7.5851,7.6272,7.6786,7.6978,7.7513,7.8185,7.7792,7.797,7.8461,7.9066,7.9601,7.9936,8.017,8.0686,8.1109,8.124,8.1319,8.1348,8.1329,8.1182,8.1084,8.109,8.1054,8.0999,8.0959,8.1069,8.1085,8.1093,8.1093,8.1093,8.0669,7.9977,7.8946,7.8099,7.7369,7.6669,7.6169,7.5976,7.5976,7.5969,7.5932,7.5947,7.5969,7.6007,8.1247,8.0581,8.0581,8.0114,7.9373,7.9295,7.8828,7.8168,7.8045,7.7517,7.6746,7.6618,7.6453,7.6227,7.6036,7.5803,7.5625,7.5506,7.5509,7.5509,7.5509,7.5509,7.5509,7.5509,7.5509,7.5509,7.5509,7.5509,7.5509,7.5509,7.5509,7.5471,7.5318,7.5204,7.5165,7.5127,7.486,7.4745,7.4783,7.4821,7.4821,7.486,7.4898,7.5165,7.5395,7.5471,7.5509,7.5509,7.5509,7.5509,7.5509,7.5318,7.4974,7.4898,7.5013,7.5127,7.5165,7.528,7.5471,7.5509,7.5509,7.5509,7.5509,7.5509,7.5509,7.5518,7.5535,7.5561,7.5629,7.5803,7.6435,7.6683,7.7247,7.7854,7.8346,7.8767,7.948,7.959,7.9443,7.9826,8.0349,8.0736,8.091,8.102,8.1235,8.1421,8.1485,8.1543,8.1558,8.1457,8.1327,8.1233,8.1128,8.1092,8.1077,8.1069,8.1085,8.1085,8.1093,8.1093,8.1093,8.1093,8.0439,7.9138,7.8253,7.7638,7.6938,7.6169,7.5976,7.5976,7.5976,7.5976,7.5976,7.5976,7.5976,8.1831,8.1481,8.1481,8.0974,8.0269,8.0153,7.9685,7.8896,7.8327,7.7824,7.7199,7.6593,7.6171,7.6023,7.5795,7.5616,7.5514,7.5509,7.5509,7.5509,7.5509,7.5509,7.5509,7.5509,7.5509,7.5509,7.5509,7.5509,7.5509,7.5509,7.5509,7.5509,7.5509,7.5509,7.5509,7.5433,7.5509,7.5509,7.5509,7.5509,7.5509,7.5509,7.5509,7.5509,7.5509,7.5509,7.5509,7.5509,7.5509,7.5509,7.5509,7.5509,7.5509,7.5509,7.5509,7.5509,7.5509,7.5509,7.5509,7.5509,7.5509,7.5509,7.5509,7.5509,7.5509,7.5527,7.5604,7.5783,7.6223,7.6524,7.7083,7.7642,7.8386,7.907,7.9433,7.9963,8.0621,8.0888,8.096,8.0983,8.1193,8.141,8.166,8.1762,8.1773,8.1773,8.1742,8.175,8.1758,8.1679,8.1558,8.1441,8.1369,8.1256,8.1181,8.1108,8.1123,8.1123,8.1139,8.1139,8.1116,8.1124,8.0185,7.8869,7.8253,7.7869,7.6861,7.5976,7.5976,7.5976,7.5976,7.5976,7.5976,7.5976,7.5976,8.2107,8.2107,8.2107,8.1675,8.1127,8.1049,8.0523,7.9587,7.8625,7.8005,7.7576,7.6533,7.5892,7.5795,7.5611,7.5518,7.5509,7.5509,7.5509,7.5509,7.5509,7.5509,7.5509,7.5509,7.5509,7.5509,7.5509,7.5509,7.5509,7.5509,7.5509,7.5509,7.5509,7.5509,7.5509,7.5509,7.5509,7.5509,7.5509,7.5509,7.5509,7.5509,7.5509,7.5509,7.5509,7.5509,7.5509,7.5509,7.5509,7.5509,7.5509,7.5509,7.5509,7.5509,7.5509,7.5509,7.5509,7.5509,7.5509,7.5509,7.5509,7.5509,7.5509,7.5509,7.5629,7.5782,7.6015,7.6299,7.6969,7.7656,7.82,7.875,7.9504,8.0179,8.0513,8.0805,8.1415,8.1753,8.1789,8.187,8.1935,8.1978,8.2044,8.205,8.1981,8.1996,8.1966,8.2028,8.2031,8.2014,8.1899,8.1761,8.162,8.1445,8.135,8.1198,8.1227,8.1224,8.1203,8.1227,8.1176,8.1138,8.0007,7.8967,7.8523,7.8061,7.6899,7.6022,7.5976,7.5976,7.5976,7.5976,7.5976,7.5976,7.5976,8.2107,8.2107,8.2107,8.2029,8.1948,8.1867,8.1286,8.0262,7.9367,7.8298,7.7315,7.6352,7.5802,7.5608,7.5532,7.5509,7.5509,7.5509,7.5509,7.5509,7.5509,7.5509,7.5509,7.5509,7.5509,7.5509,7.5509,7.5509,7.5509,7.5509,7.5509,7.5509,7.5509,7.5509,7.5509,7.5509,7.5509,7.5509,7.5509,7.5509,7.5509,7.5509,7.5509,7.5509,7.5509,7.5509,7.5509,7.5509,7.5509,7.5509,7.5509,7.5509,7.5509,7.5509,7.5509,7.5509,7.5509,7.5509,7.5509,7.5509,7.5509,7.5509,7.5586,7.5509,7.5982,7.6555,7.7025,7.7298,7.8114,7.8864,7.9438,8.0039,8.0702,8.1181,8.1527,8.1724,8.2109,8.2089,8.216,8.221,8.2148,8.2143,8.2153,8.2192,8.2155,8.2173,8.2187,8.2236,8.2237,8.2177,8.215,8.1968,8.18,8.1655,8.1558,8.1387,8.129,8.133,8.1296,8.1294,8.1198,8.0984,8.0302,7.9432,7.8943,7.8113,7.6962,7.63,7.6082,7.5976,7.5976,7.5976,7.5976,7.5976,7.5984,8.2107,8.2107,8.2107,8.2107,8.2098,8.194,8.1623,8.0966,7.9951,7.8856,7.7792,7.6768,7.6067,7.5603,7.5509,7.5509,7.5509,7.5509,7.5509,7.5509,7.5509,7.5509,7.5509,7.5509,7.5509,7.5509,7.5509,7.5509,7.5509,7.5509,7.5509,7.5509,7.5509,7.5509,7.5509,7.5509,7.5509,7.5509,7.5509,7.5509,7.5509,7.5509,7.5509,7.5509,7.5509,7.5509,7.5509,7.5509,7.5509,7.5509,7.5509,7.5509,7.5509,7.5509,7.5509,7.5509,7.5509,7.5509,7.5509,7.5518,7.5574,7.5709,7.5965,7.6484,7.7045,7.7663,7.8179,7.845,7.9243,7.9995,8.0552,8.1106,8.1546,8.1948,8.2094,8.2164,8.2234,8.2239,8.228,8.2289,8.2292,8.2277,8.2265,8.2226,8.2226,8.2232,8.2239,8.2284,8.2287,8.2241,8.2179,8.2146,8.1971,8.1816,8.1761,8.166,8.1478,8.1443,8.1381,8.1336,8.1183,8.0815,8.0354,7.9737,7.9061,7.8136,7.7034,7.6405,7.6029,7.5976,7.5976,7.5976,7.5976,7.5998,7.5998,8.2107,8.2104,8.2033,8.2015,8.1998,8.1708,8.154,8.1325,8.0211,7.9146,7.8121,7.6948,7.6015,7.5624,7.5509,7.5509,7.5509,7.5509,7.5509,7.5509,7.5509,7.5509,7.5509,7.5509,7.5509,7.5509,7.5509,7.5509,7.5509,7.5509,7.5509,7.5509,7.5509,7.5509,7.5509,7.5509,7.5509,7.5509,7.5509,7.5509,7.5509,7.5509,7.5509,7.5509,7.5509,7.5509,7.5509,7.5509,7.5509,7.5509,7.5509,7.5509,7.5509,7.5509,7.57,7.5815,7.593,7.6161,7.6229,7.6279,7.6076,7.6369,7.6752,7.7623,7.8347,7.8915,7.9339,7.9609,8.0439,8.0945,8.1285,8.1829,8.1994,8.2086,8.2185,8.2239,8.2289,8.2289,8.2289,8.229,8.2292,8.2292,8.2287,8.2289,8.229,8.2292,8.2292,8.2292,8.2292,8.229,8.2241,8.2216,8.207,8.1961,8.1974,8.1901,8.1703,8.1579,8.1525,8.1472,8.1375,8.124,8.0965,8.0231,7.9385,7.8411,7.749,7.6707,7.5976,7.5976,7.5976,7.5976,7.5984,7.6034,7.6059,8.2107,8.2095,8.1826,8.1717,8.1712,8.1447,8.1194,8.0974,8.0092,7.9103,7.7908,7.6435,7.5624,7.5509,7.5509,7.5509,7.5509,7.5509,7.5509,7.5509,7.5509,7.5509,7.5509,7.5509,7.5509,7.5509,7.5509,7.5509,7.5509,7.5509,7.5509,7.5509,7.5509,7.5509,7.5509,7.5509,7.5509,7.5509,7.5509,7.5509,7.5509,7.5509,7.5509,7.5509,7.5509,7.5509,7.5509,7.5509,7.5509,7.5509,7.5509,7.5509,7.5509,7.5662,7.593,7.6361,7.6675,7.7125,7.7654,7.7416,7.7447,7.7959,7.8475,7.8802,7.9414,8.0023,8.0439,8.0737,8.1391,8.1772,8.1997,8.2171,8.2185,8.2232,8.2239,8.2285,8.229,8.2292,8.2292,8.2292,8.2292,8.2292,8.2292,8.2292,8.2292,8.2292,8.2292,8.2292,8.2292,8.2292,8.2292,8.2232,8.2097,8.2078,8.221,8.207,8.1898,8.1812,8.1787,8.1717,8.1625,8.1524,8.1335,8.0772,7.9911,7.8962,7.7986,7.724,7.6559,7.6178,7.602,7.614,7.6173,7.623,7.6273,8.1847,8.1822,8.1395,8.1401,8.167,8.1247,8.1014,8.0838,8.0404,7.936,7.7899,7.6312,7.5509,7.5509,7.5509,7.5509,7.5509,7.5509,7.5509,7.5509,7.5509,7.5509,7.5509,7.5509,7.5509,7.5509,7.5509,7.5509,7.5509,7.5509,7.5509,7.5509,7.5509,7.5509,7.5509,7.5509,7.5509,7.5509,7.5509,7.5509,7.5509,7.5509,7.5509,7.5509,7.5509,7.5509,7.5509,7.5509,7.5509,7.5509,7.5509,7.5565,7.5744,7.6003,7.6535,7.7075,7.7491,7.8323,7.9012,7.8613,7.8387,7.9237,7.9708,8.0058,8.0526,8.1158,8.1477,8.1777,8.1967,8.2173,8.2216,8.2232,8.2284,8.2285,8.2287,8.2292,8.2292,8.2292,8.2292,8.2292,8.2292,8.2292,8.2292,8.2292,8.2292,8.2292,8.2292,8.2292,8.2292,8.2292,8.2292,8.2292,8.221,8.2157,8.2277,8.2157,8.2053,8.2047,8.2041,8.1937,8.1816,8.1708,8.1465,8.098,8.0571,7.9715,7.8802,7.7812,7.7097,7.6525,7.6349,7.6405,7.6436,7.6426,7.6428,8.1698,8.1645,8.1119,8.1112,8.1383,8.0984,8.0778,8.0737,8.0558,7.9551,7.7899,7.6312,7.5509,7.5509,7.5509,7.5509,7.5509,7.5509,7.5509,7.5509,7.5509,7.5509,7.5509,7.5509,7.5509,7.5509,7.5509,7.5509,7.5509,7.5509,7.5509,7.5509,7.5509,7.5509,7.5509,7.5509,7.5509,7.5509,7.5509,7.5509,7.5509,7.5509,7.5509,7.5509,7.5509,7.5509,7.5509,7.5509,7.5509,7.5624,7.5718,7.5923,7.625,7.6717,7.7408,7.7975,7.8588,7.9429,7.9989,8.0046,7.9795,8.0611,8.088,8.1283,8.1732,8.2005,8.2024,8.2121,8.2183,8.2234,8.2234,8.2284,8.229,8.2289,8.229,8.2292,8.2292,8.2292,8.2292,8.2292,8.2292,8.2292,8.2292,8.2292,8.2292,8.2292,8.2292,8.2292,8.2292,8.2292,8.2292,8.2292,8.2284,8.2284,8.229,8.2222,8.2155,8.2157,8.2148,8.2078,8.1974,8.1855,8.1851,8.1639,8.1157,8.05,7.966,7.8659,7.768,7.6717,7.6644,7.6552,7.6548,7.6543,7.6621,8.1679,8.1645,8.1098,8.09,8.0916,8.0658,8.0543,8.0512,8.0305,7.9436,7.787,7.6274,7.5509,7.5509,7.5509,7.5509,7.5509,7.5509,7.5509,7.5509,7.5509,7.5509,7.5509,7.5509,7.5509,7.5509,7.5509,7.5509,7.5509,7.5509,7.5509,7.5509,7.5509,7.5509,7.5509,7.5509,7.5509,7.5509,7.5509,7.5509,7.5509,7.5509,7.5509,7.5509,7.5509,7.5509,7.5509,7.5509,7.5548,7.5777,7.6276,7.6632,7.7063,7.7877,7.8753,7.9655,7.9918,8.0583,8.1471,8.1519,8.1584,8.1658,8.1695,8.1886,8.2094,8.2169,8.2181,8.2224,8.228,8.2289,8.229,8.2292,8.2292,8.2292,8.2292,8.2292,8.2292,8.2292,8.2292,8.2292,8.2292,8.2292,8.2292,8.2292,8.2292,8.2292,8.2292,8.2292,8.2292,8.2292,8.2292,8.2292,8.2292,8.2292,8.2292,8.2292,8.2284,8.2287,8.2236,8.2169,8.2166,8.2148,8.2127,8.2163,8.1758,8.1097,8.0345,7.955,7.846,7.7417,7.6836,7.6696,7.6657,7.6695,7.6768,8.1167,8.1133,8.0786,8.062,8.0602,8.0532,8.0506,8.0315,7.9398,7.8519,7.7755,7.6235,7.5509,7.5509,7.5509,7.5509,7.5509,7.5509,7.5509,7.5509,7.5509,7.5509,7.5509,7.5509,7.5509,7.5509,7.5509,7.5509,7.5509,7.5509,7.5509,7.5509,7.5509,7.5509,7.5509,7.5509,7.5509,7.5509,7.5509,7.5509,7.5509,7.5509,7.5509,7.5509,7.5509,7.5509,7.5518,7.5527,7.5829,7.6216,7.6854,7.7409,7.8041,7.8935,7.9769,8.0461,8.0717,8.1362,8.1859,8.1916,8.1971,8.2062,8.212,8.2141,8.2171,8.2181,8.2232,8.2241,8.2287,8.2292,8.2292,8.2292,8.2292,8.2292,8.2292,8.2292,8.2292,8.2292,8.2292,8.2292,8.2292,8.2292,8.2292,8.2292,8.2292,8.2292,8.2292,8.2292,8.2292,8.2292,8.2292,8.2292,8.2292,8.2292,8.2292,8.2292,8.2292,8.229,8.2289,8.2282,8.2287,8.2292,8.2292,8.2248,8.1978,8.1669,8.0849,7.9989,7.9078,7.8213,7.7687,7.7083,7.6874,7.6939,7.6973,8.0892,8.0853,8.0632,8.0506,8.0506,8.0506,8.0506,8.0238,7.9054,7.829,7.7717,7.6532,7.5739,7.5586,7.5509,7.5509,7.5509,7.5509,7.5509,7.5509,7.5509,7.5509,7.5509,7.5509,7.5509,7.5509,7.5509,7.5509,7.5509,7.5509,7.5509,7.5509,7.5509,7.5509,7.5509,7.5509,7.5509,7.5509,7.5509,7.5509,7.5509,7.5509,7.5509,7.5509,7.5509,7.5509,7.5621,7.588,7.6317,7.6914,7.7639,7.8352,7.9205,7.9972,8.0717,8.1161,8.1447,8.193,8.2041,8.2117,8.2123,8.2143,8.2141,8.2162,8.2228,8.2237,8.2243,8.2289,8.2292,8.2292,8.2292,8.2292,8.2292,8.2292,8.2292,8.2292,8.2292,8.2292,8.2292,8.2292,8.2292,8.2292,8.2292,8.2292,8.2292,8.2292,8.2292,8.2292,8.2292,8.2292,8.2292,8.2292,8.2292,8.2292,8.2292,8.2292,8.2292,8.2292,8.2292,8.2292,8.2292,8.2292,8.2292,8.2292,8.2137,8.1825,8.1161,8.0376,7.9745,7.9159,7.8602,7.798,7.7296,7.714,7.7218,8.0877,8.0868,8.0623,8.0506,8.0506,8.0506,8.0506,8.043,7.9598,7.8787,7.7908,7.7029,7.6188,7.5586,7.5509,7.5509,7.5509,7.5509,7.5509,7.5509,7.5509,7.5509,7.5509,7.5509,7.5509,7.5509,7.5509,7.5509,7.5509,7.5509,7.5509,7.5509,7.5509,7.5509,7.5509,7.5509,7.5509,7.5509,7.5509,7.5509,7.5509,7.5509,7.5509,7.5565,7.5693,7.5804,7.6096,7.6601,7.7161,7.7915,7.8941,7.9847,8.0655,8.1276,8.1746,8.199,8.2044,8.2062,8.2125,8.2148,8.2203,8.2218,8.2185,8.2237,8.2284,8.2287,8.2289,8.229,8.2292,8.2292,8.2292,8.2292,8.2292,8.2292,8.2292,8.2292,8.2292,8.2292,8.2292,8.2292,8.2292,8.2292,8.2292,8.2292,8.2292,8.2292,8.2292,8.2292,8.2292,8.2292,8.2292,8.2292,8.2292,8.2292,8.2292,8.2292,8.2292,8.2292,8.2292,8.2292,8.2292,8.2292,8.2292,8.2292,8.2292,8.202,8.1552,8.1122,8.0691,8.0146,7.9561,7.8702,7.7921,7.7531,7.7453,8.0641,8.0623,8.0514,8.0506,8.0506,8.0506,8.0506,8.0401,7.9636,7.8825,7.7937,7.7105,7.6303,7.5509,7.5509,7.5509,7.5509,7.5509,7.5509,7.5509,7.5509,7.5509,7.5509,7.5509,7.5509,7.5509,7.5509,7.5509,7.5509,7.5509,7.5509,7.5509,7.5509,7.5509,7.5509,7.5509,7.5548,7.5548,7.5548,7.5509,7.5548,7.5548,7.5603,7.5731,7.6344,7.6516,7.6886,7.7746,7.8406,7.932,7.9919,8.0626,8.1369,8.1742,8.2052,8.2086,8.2112,8.2128,8.2162,8.2173,8.2224,8.2278,8.2284,8.2287,8.2292,8.2292,8.2292,8.2292,8.2292,8.2292,8.2292,8.2292,8.2292,8.2292,8.2292,8.2292,8.2292,8.2292,8.2292,8.2292,8.2292,8.2292,8.2292,8.2292,8.2292,8.2292,8.2292,8.2292,8.2292,8.2292,8.2292,8.2292,8.2292,8.2292,8.2292,8.2292,8.2292,8.2292,8.2292,8.2292,8.2292,8.2292,8.2292,8.2292,8.2292,8.2253,8.2097,8.1708,8.1356,8.1005,8.0459,7.9484,7.8664,7.8313,7.7805,8.0812,8.0506,8.0506,8.0506,8.0506,8.0506,8.0506,8.0391,7.998,7.913,7.7984,7.7449,7.657,7.5586,7.5509,7.5509,7.5509,7.5509,7.5509,7.5509,7.5509,7.5509,7.5509,7.5509,7.5509,7.5509,7.5509,7.5509,7.5509,7.5509,7.5509,7.5509,7.5509,7.5509,7.5586,7.5815,7.6006,7.5891,7.5739,7.5548,7.5641,7.585,7.5999,7.6336,7.7131,7.7588,7.7903,7.8876,7.9714,8.0339,8.0677,8.131,8.182,8.2029,8.208,8.2106,8.2128,8.215,8.2177,8.2232,8.2243,8.2289,8.2292,8.2292,8.2292,8.2292,8.2292,8.2292,8.2292,8.2292,8.2292,8.2292,8.2292,8.2292,8.2292,8.2292,8.2292,8.2292,8.2292,8.2292,8.2292,8.2292,8.2292,8.2292,8.2292,8.2292,8.2292,8.2292,8.2292,8.2292,8.2292,8.2292,8.2292,8.2292,8.2292,8.2292,8.2292,8.2292,8.2292,8.2292,8.2292,8.2292,8.2292,8.2292,8.2292,8.2253,8.2214,8.2214,8.1981,8.163,8.1317,8.0693,7.9873,7.9248,7.8663,8.127,8.0506,8.0506,8.0506,8.0506,8.0506,8.0506,8.0506,8.0439,7.9551,7.8213,7.7984,7.6991,7.5739,7.5509,7.5509,7.5509,7.5509,7.5509,7.5509,7.5509,7.5509,7.5509,7.5509,7.5509,7.5509,7.5509,7.5509,7.5509,7.5509,7.5548,7.5548,7.57,7.5853,7.6197,7.657,7.6844,7.6858,7.6497,7.622,7.6233,7.651,7.6985,7.7369,7.8052,7.8733,7.9165,7.9849,8.0612,8.0979,8.1384,8.1971,8.2062,8.2068,8.2092,8.212,8.2148,8.2169,8.2228,8.2282,8.2289,8.2292,8.2292,8.2292,8.2292,8.2292,8.2292,8.2292,8.2292,8.2292,8.2292,8.2292,8.2292,8.2292,8.2292,8.2292,8.2292,8.2292,8.2292,8.2292,8.2292,8.2292,8.2292,8.2292,8.2292,8.2292,8.2292,8.2292,8.2292,8.2292,8.2292,8.2292,8.2292,8.2292,8.2292,8.2292,8.2292,8.2292,8.2292,8.2292,8.2292,8.2292,8.2292,8.2292,8.2292,8.2292,8.2292,8.2292,8.2292,8.2176,8.1903,8.1786,8.12,8.0381,7.96,8.1308,8.0506,8.0506,8.0506,8.0506,8.0506,8.0506,8.0506,8.0506,7.9551,7.8213,7.7908,7.7067,7.5662,7.5509,7.5509,7.5509,7.5509,7.5509,7.5509,7.5509,7.5509,7.5509,7.5509,7.5509,7.5509,7.5509,7.5509,7.5509,7.5586,7.5853,7.6303,7.6418,7.6609,7.7144,7.7564,7.7747,7.7897,7.7852,7.7677,7.7816,7.7823,7.8144,7.8619,7.9281,7.9902,8.0412,8.103,8.153,8.1844,8.1929,8.2077,8.2101,8.2104,8.2131,8.2162,8.2173,8.2226,8.2239,8.2289,8.2292,8.2292,8.2292,8.2292,8.2292,8.2292,8.2292,8.2292,8.2292,8.2292,8.2292,8.2292,8.2292,8.2292,8.2292,8.2292,8.2292,8.2292,8.2292,8.2292,8.2292,8.2292,8.2292,8.2292,8.2292,8.2292,8.2292,8.2292,8.2292,8.2292,8.2292,8.2292,8.2292,8.2292,8.2292,8.2292,8.2292,8.2292,8.2292,8.2292,8.2292,8.2292,8.2292,8.2292,8.2292,8.2292,8.2292,8.2292,8.2292,8.2292,8.2292,8.2059,8.2059,8.1474,8.0654,8.1614,8.0544,8.0506,8.0506,8.0506,8.0506,8.0506,8.0506,8.0506,7.978,7.8596,7.8099,7.7067,7.5662,7.5509,7.5509,7.5509,7.5509,7.5509,7.5509,7.5509,7.5509,7.5509,7.5509,7.5509,7.5509,7.5509,7.5509,7.5586,7.5959,7.6379,7.68,7.7029,7.7535,7.8099,7.8326,7.8731,7.8969,7.9245,7.9538,7.9591,7.9469,7.9327,7.978,8.0359,8.0966,8.1337,8.1844,8.1945,8.2089,8.2104,8.2154,8.217,8.2133,8.2192,8.2175,8.2187,8.2236,8.2287,8.2292,8.2292,8.2292,8.2292,8.2292,8.2292,8.2292,8.2292,8.2292,8.2292,8.2292,8.2292,8.2292,8.2292,8.2292,8.2292,8.2292,8.2292,8.2292,8.2292,8.2292,8.2292,8.2292,8.2292,8.2292,8.2292,8.2292,8.2292,8.2292,8.2292,8.2292,8.2292,8.2292,8.2292,8.2292,8.2292,8.2292,8.2292,8.2292,8.2292,8.2292,8.2292,8.2292,8.2292,8.2292,8.2292,8.2292,8.2292,8.2292,8.2292,8.2292,8.2292,8.2253,8.2292,8.2292,8.163,8.2006,8.0582,8.0506,8.0506,8.0506,8.0506,8.0506,8.0506,8.0506,8.0057,7.9216,7.8519,7.7182,7.6121,7.5509,7.5509,7.5509,7.5509,7.5509,7.5509,7.5509,7.5509,7.5509,7.5509,7.5509,7.5624,7.57,7.5739,7.5815,7.6418,7.6991,7.7144,7.7649,7.8241,7.8535,7.9036,7.9701,8.0095,8.0499,8.1115,8.1093,8.0849,8.063,8.0859,8.1329,8.1828,8.2036,8.2077,8.2092,8.2112,8.2175,8.2185,8.2194,8.216,8.2212,8.2189,8.2234,8.2243,8.229,8.2292,8.2292,8.2292,8.2292,8.2292,8.2292,8.2292,8.2292,8.2292,8.2292,8.2292,8.2292,8.2292,8.2292,8.2292,8.2292,8.2292,8.2292,8.2292,8.2292,8.2292,8.2292,8.2292,8.2292,8.2292,8.2292,8.2292,8.2292,8.2292,8.2292,8.2292,8.2292,8.2292,8.2292,8.2292,8.2292,8.2292,8.2292,8.2292,8.2292,8.2292,8.2292,8.2292,8.2292,8.2292,8.2292,8.2292,8.2292,8.2292,8.2292,8.2292,8.2292,8.2292,8.2292,8.2292,8.2292,8.2044,8.0506,8.0506,8.0506,8.0506,8.0506,8.0506,8.0506,8.0506,8.0057,7.9445,7.9101,7.8108,7.6456,7.5739,7.5509,7.5509,7.5509,7.5509,7.5509,7.5509,7.5509,7.5548,7.5662,7.5548,7.5777,7.615,7.6456,7.6609,7.7335,7.8099,7.8643,7.8796,7.9427,8.0235,8.0584,8.066,8.1014,8.1215,8.165,8.1805,8.1644,8.1636,8.1769,8.1912,8.2062,8.2095,8.2104,8.2123,8.218,8.2192,8.2205,8.2214,8.222,8.223,8.2239,8.2284,8.2287,8.2292,8.2292,8.2292,8.2292,8.2292,8.2292,8.2292,8.2292,8.2292,8.2292,8.2292,8.2292,8.2292,8.2292,8.2292,8.2292,8.2292,8.2292,8.2292,8.2292,8.2292,8.2292,8.2292,8.2292,8.2292,8.2292,8.2292,8.2292,8.2292,8.2292,8.2292,8.2292,8.2292,8.2292,8.2292,8.2292,8.2292,8.2292,8.2292,8.2292,8.2292,8.2292,8.2292,8.2292,8.2292,8.2292,8.2292,8.2292,8.2292,8.2292,8.2292,8.2292,8.2292,8.2292,8.2292,8.2292,8.2292]}]]